<?xml version='1.0' encoding='UTF-8'?>
<gpx version="1.1" creator="https://www.komoot.de" xmlns="http://www.topografix.com/GPX/1/1" xmlns:xsi="http://www.w3.org/2001/XMLSchema-instance" xsi:schemaLocation="http://www.topografix.com/GPX/1/1 http://www.topografix.com/GPX/1/1/gpx.xsd">
  <metadata>
    <name>80_1150AlbtalFreiwaldkap</name>
    <author>
      <link href="https://www.komoot.de">
        <text>komoot</text>
        <type>text/html</type>
      </link>
    </author>
  </metadata>
  <trk>
    <name>80_1150AlbtalFreiwaldkap</name>
    <trkseg>
      <trkpt lat="47.541406" lon="7.870794">
        <ele>341.127441</ele>
        <time>2021-11-22T06:25:48.392Z</time>
      </trkpt>
      <trkpt lat="47.541410" lon="7.870791">
        <ele>341.127441</ele>
        <time>2021-11-22T06:25:48.441Z</time>
      </trkpt>
      <trkpt lat="47.541576" lon="7.870664">
        <ele>341.127441</ele>
        <time>2021-11-22T06:25:52.585Z</time>
      </trkpt>
      <trkpt lat="47.541796" lon="7.871042">
        <ele>341.127441</ele>
        <time>2021-11-22T06:25:59.687Z</time>
      </trkpt>
      <trkpt lat="47.541953" lon="7.871286">
        <ele>341.127441</ele>
        <time>2021-11-22T06:26:04.509Z</time>
      </trkpt>
      <trkpt lat="47.542039" lon="7.871556">
        <ele>341.351999</ele>
        <time>2021-11-22T06:26:08.893Z</time>
      </trkpt>
      <trkpt lat="47.542067" lon="7.871664">
        <ele>341.654404</ele>
        <time>2021-11-22T06:26:10.583Z</time>
      </trkpt>
      <trkpt lat="47.542091" lon="7.871721">
        <ele>341.830003</ele>
        <time>2021-11-22T06:26:11.189Z</time>
      </trkpt>
      <trkpt lat="47.542218" lon="7.871866">
        <ele>342.450876</ele>
        <time>2021-11-22T06:26:16.265Z</time>
      </trkpt>
      <trkpt lat="47.542394" lon="7.872341">
        <ele>343.867209</ele>
        <time>2021-11-22T06:26:26.317Z</time>
      </trkpt>
      <trkpt lat="47.542436" lon="7.872494">
        <ele>344.298936</ele>
        <time>2021-11-22T06:26:29.708Z</time>
      </trkpt>
      <trkpt lat="47.542537" lon="7.872430">
        <ele>344.724300</ele>
        <time>2021-11-22T06:26:31.820Z</time>
      </trkpt>
      <trkpt lat="47.542714" lon="7.872334">
        <ele>345.454164</ele>
        <time>2021-11-22T06:26:38.777Z</time>
      </trkpt>
      <trkpt lat="47.542814" lon="7.872280">
        <ele>345.866304</ele>
        <time>2021-11-22T06:26:41.791Z</time>
      </trkpt>
      <trkpt lat="47.542919" lon="7.872226">
        <ele>346.296684</ele>
        <time>2021-11-22T06:26:45.629Z</time>
      </trkpt>
      <trkpt lat="47.543013" lon="7.872182">
        <ele>346.678405</ele>
        <time>2021-11-22T06:26:49.136Z</time>
      </trkpt>
      <trkpt lat="47.543233" lon="7.872082">
        <ele>347.569479</ele>
        <time>2021-11-22T06:26:56.374Z</time>
      </trkpt>
      <trkpt lat="47.543251" lon="7.872152">
        <ele>347.765274</ele>
        <time>2021-11-22T06:26:59.748Z</time>
      </trkpt>
      <trkpt lat="47.543332" lon="7.872237">
        <ele>348.187790</ele>
        <time>2021-11-22T06:27:03.053Z</time>
      </trkpt>
      <trkpt lat="47.544390" lon="7.872423">
        <ele>355.047608</ele>
        <time>2021-11-22T06:27:44.773Z</time>
      </trkpt>
      <trkpt lat="47.544883" lon="7.872555">
        <ele>358.273255</ele>
        <time>2021-11-22T06:28:07.181Z</time>
      </trkpt>
      <trkpt lat="47.545131" lon="7.872664">
        <ele>359.942618</ele>
        <time>2021-11-22T06:28:18.185Z</time>
      </trkpt>
      <trkpt lat="47.545375" lon="7.872836">
        <ele>361.707292</ele>
        <time>2021-11-22T06:28:29.126Z</time>
      </trkpt>
      <trkpt lat="47.545478" lon="7.872968">
        <ele>362.596708</ele>
        <time>2021-11-22T06:28:35.934Z</time>
      </trkpt>
      <trkpt lat="47.545515" lon="7.873015">
        <ele>362.915006</ele>
        <time>2021-11-22T06:28:37.890Z</time>
      </trkpt>
      <trkpt lat="47.545746" lon="7.873302">
        <ele>364.883874</ele>
        <time>2021-11-22T06:28:51.090Z</time>
      </trkpt>
      <trkpt lat="47.545934" lon="7.873549">
        <ele>366.524893</ele>
        <time>2021-11-22T06:29:01.190Z</time>
      </trkpt>
      <trkpt lat="47.546077" lon="7.873763">
        <ele>367.852316</ele>
        <time>2021-11-22T06:29:10.386Z</time>
      </trkpt>
      <trkpt lat="47.546135" lon="7.873859">
        <ele>368.420258</ele>
        <time>2021-11-22T06:29:13.626Z</time>
      </trkpt>
      <trkpt lat="47.546309" lon="7.874154">
        <ele>370.147197</ele>
        <time>2021-11-22T06:29:24.740Z</time>
      </trkpt>
      <trkpt lat="47.547126" lon="7.875801">
        <ele>375.837831</ele>
        <time>2021-11-22T06:30:10.500Z</time>
      </trkpt>
      <trkpt lat="47.547574" lon="7.876801">
        <ele>377.948173</ele>
        <time>2021-11-22T06:30:29.497Z</time>
      </trkpt>
      <trkpt lat="47.547992" lon="7.877974">
        <ele>377.133837</ele>
        <time>2021-11-22T06:30:42.298Z</time>
      </trkpt>
      <trkpt lat="47.548234" lon="7.878638">
        <ele>376.670562</ele>
        <time>2021-11-22T06:30:47.610Z</time>
      </trkpt>
      <trkpt lat="47.548422" lon="7.878959">
        <ele>376.117814</ele>
        <time>2021-11-22T06:30:50.453Z</time>
      </trkpt>
      <trkpt lat="47.548718" lon="7.879258">
        <ele>374.620173</ele>
        <time>2021-11-22T06:30:53.991Z</time>
      </trkpt>
      <trkpt lat="47.549140" lon="7.879391">
        <ele>372.816570</ele>
        <time>2021-11-22T06:30:58.178Z</time>
      </trkpt>
      <trkpt lat="47.549318" lon="7.879398">
        <ele>372.072196</ele>
        <time>2021-11-22T06:30:59.805Z</time>
      </trkpt>
      <trkpt lat="47.549327" lon="7.879547">
        <ele>371.650100</ele>
        <time>2021-11-22T06:31:00.791Z</time>
      </trkpt>
      <trkpt lat="47.549726" lon="7.880786">
        <ele>367.945187</ele>
        <time>2021-11-22T06:31:09.726Z</time>
      </trkpt>
      <trkpt lat="47.549927" lon="7.881490">
        <ele>366.092573</ele>
        <time>2021-11-22T06:31:14.758Z</time>
      </trkpt>
      <trkpt lat="47.550234" lon="7.883221">
        <ele>361.594450</ele>
        <time>2021-11-22T06:31:27.158Z</time>
      </trkpt>
      <trkpt lat="47.550332" lon="7.884727">
        <ele>357.151790</ele>
        <time>2021-11-22T06:31:36.978Z</time>
      </trkpt>
      <trkpt lat="47.550391" lon="7.885109">
        <ele>356.001109</ele>
        <time>2021-11-22T06:31:39.498Z</time>
      </trkpt>
      <trkpt lat="47.550548" lon="7.885799">
        <ele>353.608586</ele>
        <time>2021-11-22T06:31:44.115Z</time>
      </trkpt>
      <trkpt lat="47.550677" lon="7.886476">
        <ele>350.906058</ele>
        <time>2021-11-22T06:31:48.551Z</time>
      </trkpt>
      <trkpt lat="47.550682" lon="7.886533">
        <ele>350.685237</ele>
        <time>2021-11-22T06:31:48.893Z</time>
      </trkpt>
      <trkpt lat="47.550758" lon="7.887295">
        <ele>347.726036</ele>
        <time>2021-11-22T06:31:53.690Z</time>
      </trkpt>
      <trkpt lat="47.550789" lon="7.887816">
        <ele>345.716726</ele>
        <time>2021-11-22T06:31:56.921Z</time>
      </trkpt>
      <trkpt lat="47.550831" lon="7.888611">
        <ele>342.487691</ele>
        <time>2021-11-22T06:32:01.879Z</time>
      </trkpt>
      <trkpt lat="47.550833" lon="7.889069">
        <ele>340.566075</ele>
        <time>2021-11-22T06:32:04.692Z</time>
      </trkpt>
      <trkpt lat="47.550915" lon="7.890600">
        <ele>334.122452</ele>
        <time>2021-11-22T06:32:14.095Z</time>
      </trkpt>
      <trkpt lat="47.550904" lon="7.891725">
        <ele>330.718851</ele>
        <time>2021-11-22T06:32:21.098Z</time>
      </trkpt>
      <trkpt lat="47.550892" lon="7.893176">
        <ele>326.703762</ele>
        <time>2021-11-22T06:32:30.712Z</time>
      </trkpt>
      <trkpt lat="47.550908" lon="7.894308">
        <ele>325.185132</ele>
        <time>2021-11-22T06:32:39.917Z</time>
      </trkpt>
      <trkpt lat="47.550891" lon="7.894802">
        <ele>324.766785</ele>
        <time>2021-11-22T06:32:44.338Z</time>
      </trkpt>
      <trkpt lat="47.550878" lon="7.895158">
        <ele>324.465255</ele>
        <time>2021-11-22T06:32:47.164Z</time>
      </trkpt>
      <trkpt lat="47.550838" lon="7.895509">
        <ele>324.164192</ele>
        <time>2021-11-22T06:32:50.329Z</time>
      </trkpt>
      <trkpt lat="47.550660" lon="7.896255">
        <ele>323.322391</ele>
        <time>2021-11-22T06:32:56.817Z</time>
      </trkpt>
      <trkpt lat="47.550639" lon="7.896345">
        <ele>323.147223</ele>
        <time>2021-11-22T06:32:58.007Z</time>
      </trkpt>
      <trkpt lat="47.550648" lon="7.896481">
        <ele>322.895854</ele>
        <time>2021-11-22T06:32:58.962Z</time>
      </trkpt>
      <trkpt lat="47.550819" lon="7.898109">
        <ele>319.865133</ele>
        <time>2021-11-22T06:33:10.708Z</time>
      </trkpt>
      <trkpt lat="47.550801" lon="7.900244">
        <ele>314.360418</ele>
        <time>2021-11-22T06:33:24.545Z</time>
      </trkpt>
      <trkpt lat="47.550769" lon="7.901362">
        <ele>311.143584</ele>
        <time>2021-11-22T06:33:31.817Z</time>
      </trkpt>
      <trkpt lat="47.550757" lon="7.901591">
        <ele>310.567097</ele>
        <time>2021-11-22T06:33:33.953Z</time>
      </trkpt>
      <trkpt lat="47.550688" lon="7.902451">
        <ele>308.427702</ele>
        <time>2021-11-22T06:33:42.387Z</time>
      </trkpt>
      <trkpt lat="47.550498" lon="7.903445">
        <ele>305.875669</ele>
        <time>2021-11-22T06:33:52.637Z</time>
      </trkpt>
      <trkpt lat="47.550302" lon="7.904164">
        <ele>303.957190</ele>
        <time>2021-11-22T06:33:59.897Z</time>
      </trkpt>
      <trkpt lat="47.550025" lon="7.904774">
        <ele>302.131026</ele>
        <time>2021-11-22T06:34:06.822Z</time>
      </trkpt>
      <trkpt lat="47.549868" lon="7.905010">
        <ele>301.307951</ele>
        <time>2021-11-22T06:34:09.954Z</time>
      </trkpt>
      <trkpt lat="47.549867" lon="7.905155">
        <ele>300.947769</ele>
        <time>2021-11-22T06:34:11.351Z</time>
      </trkpt>
      <trkpt lat="47.550067" lon="7.905245">
        <ele>300.178546</ele>
        <time>2021-11-22T06:34:14.276Z</time>
      </trkpt>
      <trkpt lat="47.550283" lon="7.905413">
        <ele>299.280769</ele>
        <time>2021-11-22T06:34:17.726Z</time>
      </trkpt>
      <trkpt lat="47.550497" lon="7.905558">
        <ele>298.414777</ele>
        <time>2021-11-22T06:34:21.084Z</time>
      </trkpt>
      <trkpt lat="47.549539" lon="7.908625">
        <ele>293.133431</ele>
        <time>2021-11-22T06:34:45.522Z</time>
      </trkpt>
      <trkpt lat="47.549520" lon="7.908678">
        <ele>293.076576</ele>
        <time>2021-11-22T06:34:46.024Z</time>
      </trkpt>
      <trkpt lat="47.549360" lon="7.909207">
        <ele>292.527383</ele>
        <time>2021-11-22T06:34:50.761Z</time>
      </trkpt>
      <trkpt lat="47.549311" lon="7.909371">
        <ele>292.357467</ele>
        <time>2021-11-22T06:34:52.208Z</time>
      </trkpt>
      <trkpt lat="47.549195" lon="7.909756">
        <ele>291.958026</ele>
        <time>2021-11-22T06:34:55.668Z</time>
      </trkpt>
      <trkpt lat="47.549102" lon="7.910058">
        <ele>291.643538</ele>
        <time>2021-11-22T06:34:58.364Z</time>
      </trkpt>
      <trkpt lat="47.549012" lon="7.910340">
        <ele>291.348009</ele>
        <time>2021-11-22T06:35:00.887Z</time>
      </trkpt>
      <trkpt lat="47.548412" lon="7.912168">
        <ele>289.800158</ele>
        <time>2021-11-22T06:35:17.219Z</time>
      </trkpt>
      <trkpt lat="47.548027" lon="7.913334">
        <ele>289.046532</ele>
        <time>2021-11-22T06:35:27.980Z</time>
      </trkpt>
      <trkpt lat="47.547994" lon="7.913433">
        <ele>289.022142</ele>
        <time>2021-11-22T06:35:28.901Z</time>
      </trkpt>
      <trkpt lat="47.547423" lon="7.915080">
        <ele>288.613133</ele>
        <time>2021-11-22T06:35:46.378Z</time>
      </trkpt>
      <trkpt lat="47.547113" lon="7.915971">
        <ele>288.742112</ele>
        <time>2021-11-22T06:35:56.825Z</time>
      </trkpt>
      <trkpt lat="47.547091" lon="7.916039">
        <ele>288.764127</ele>
        <time>2021-11-22T06:35:57.849Z</time>
      </trkpt>
      <trkpt lat="47.547032" lon="7.916218">
        <ele>288.822282</ele>
        <time>2021-11-22T06:36:00.052Z</time>
      </trkpt>
      <trkpt lat="47.546821" lon="7.916867">
        <ele>289.032584</ele>
        <time>2021-11-22T06:36:08.161Z</time>
      </trkpt>
      <trkpt lat="47.546262" lon="7.919081">
        <ele>289.680746</ele>
        <time>2021-11-22T06:36:35.673Z</time>
      </trkpt>
      <trkpt lat="47.546128" lon="7.919617">
        <ele>289.830213</ele>
        <time>2021-11-22T06:36:41.141Z</time>
      </trkpt>
      <trkpt lat="47.545973" lon="7.920313">
        <ele>290.032005</ele>
        <time>2021-11-22T06:36:49.604Z</time>
      </trkpt>
      <trkpt lat="47.545913" lon="7.920765">
        <ele>290.424659</ele>
        <time>2021-11-22T06:36:53.778Z</time>
      </trkpt>
      <trkpt lat="47.545881" lon="7.921096">
        <ele>290.709674</ele>
        <time>2021-11-22T06:36:57.794Z</time>
      </trkpt>
      <trkpt lat="47.545810" lon="7.921755">
        <ele>291.278501</ele>
        <time>2021-11-22T06:37:06.703Z</time>
      </trkpt>
      <trkpt lat="47.545778" lon="7.921947">
        <ele>291.447073</ele>
        <time>2021-11-22T06:37:10.312Z</time>
      </trkpt>
      <trkpt lat="47.545714" lon="7.922249">
        <ele>291.716880</ele>
        <time>2021-11-22T06:37:13.510Z</time>
      </trkpt>
      <trkpt lat="47.545699" lon="7.922325">
        <ele>291.784373</ele>
        <time>2021-11-22T06:37:14.708Z</time>
      </trkpt>
      <trkpt lat="47.545690" lon="7.922369">
        <ele>291.823562</ele>
        <time>2021-11-22T06:37:16.806Z</time>
      </trkpt>
      <trkpt lat="47.545641" lon="7.922610">
        <ele>292.038102</ele>
        <time>2021-11-22T06:37:19.160Z</time>
      </trkpt>
      <trkpt lat="47.545587" lon="7.922895">
        <ele>292.293576</ele>
        <time>2021-11-22T06:37:24.956Z</time>
      </trkpt>
      <trkpt lat="47.545553" lon="7.923142">
        <ele>292.896038</ele>
        <time>2021-11-22T06:37:27.603Z</time>
      </trkpt>
      <trkpt lat="47.545536" lon="7.923407">
        <ele>293.532224</ele>
        <time>2021-11-22T06:37:33.493Z</time>
      </trkpt>
      <trkpt lat="47.545521" lon="7.923709">
        <ele>294.255935</ele>
        <time>2021-11-22T06:37:37.646Z</time>
      </trkpt>
      <trkpt lat="47.545481" lon="7.924396">
        <ele>295.903916</ele>
        <time>2021-11-22T06:37:52.249Z</time>
      </trkpt>
      <trkpt lat="47.545466" lon="7.924880">
        <ele>297.061863</ele>
        <time>2021-11-22T06:38:03.556Z</time>
      </trkpt>
      <trkpt lat="47.545446" lon="7.925350">
        <ele>298.187362</ele>
        <time>2021-11-22T06:38:13.931Z</time>
      </trkpt>
      <trkpt lat="47.545417" lon="7.925848">
        <ele>299.132704</ele>
        <time>2021-11-22T06:38:24.410Z</time>
      </trkpt>
      <trkpt lat="47.545409" lon="7.926773">
        <ele>300.583434</ele>
        <time>2021-11-22T06:38:41.611Z</time>
      </trkpt>
      <trkpt lat="47.545407" lon="7.927001">
        <ele>300.941020</ele>
        <time>2021-11-22T06:38:45.420Z</time>
      </trkpt>
      <trkpt lat="47.545406" lon="7.927306">
        <ele>301.419336</ele>
        <time>2021-11-22T06:38:50.024Z</time>
      </trkpt>
      <trkpt lat="47.545421" lon="7.927686">
        <ele>302.016280</ele>
        <time>2021-11-22T06:38:55.560Z</time>
      </trkpt>
      <trkpt lat="47.545475" lon="7.928419">
        <ele>302.637485</ele>
        <time>2021-11-22T06:39:04.877Z</time>
      </trkpt>
      <trkpt lat="47.545563" lon="7.929641">
        <ele>301.503345</ele>
        <time>2021-11-22T06:39:14.757Z</time>
      </trkpt>
      <trkpt lat="47.545661" lon="7.930955">
        <ele>300.290494</ele>
        <time>2021-11-22T06:39:24.153Z</time>
      </trkpt>
      <trkpt lat="47.545696" lon="7.931497">
        <ele>299.826637</ele>
        <time>2021-11-22T06:39:28.121Z</time>
      </trkpt>
      <trkpt lat="47.545721" lon="7.931992">
        <ele>299.403750</ele>
        <time>2021-11-22T06:39:31.914Z</time>
      </trkpt>
      <trkpt lat="47.545724" lon="7.932758">
        <ele>298.751157</ele>
        <time>2021-11-22T06:39:38.123Z</time>
      </trkpt>
      <trkpt lat="47.545702" lon="7.933290">
        <ele>298.297077</ele>
        <time>2021-11-22T06:39:42.766Z</time>
      </trkpt>
      <trkpt lat="47.545674" lon="7.933625">
        <ele>298.176253</ele>
        <time>2021-11-22T06:39:45.967Z</time>
      </trkpt>
      <trkpt lat="47.545457" lon="7.935110">
        <ele>299.106570</ele>
        <time>2021-11-22T06:40:04.102Z</time>
      </trkpt>
      <trkpt lat="47.545074" lon="7.936484">
        <ele>300.274938</ele>
        <time>2021-11-22T06:40:25.629Z</time>
      </trkpt>
      <trkpt lat="47.544903" lon="7.936917">
        <ele>300.866623</ele>
        <time>2021-11-22T06:40:32.945Z</time>
      </trkpt>
      <trkpt lat="47.544705" lon="7.937395">
        <ele>301.528091</ele>
        <time>2021-11-22T06:40:41.129Z</time>
      </trkpt>
      <trkpt lat="47.544472" lon="7.937932">
        <ele>302.281022</ele>
        <time>2021-11-22T06:40:50.536Z</time>
      </trkpt>
      <trkpt lat="47.543826" lon="7.939433">
        <ele>304.336652</ele>
        <time>2021-11-22T06:41:17.418Z</time>
      </trkpt>
      <trkpt lat="47.543435" lon="7.940670">
        <ele>305.900466</ele>
        <time>2021-11-22T06:41:37.379Z</time>
      </trkpt>
      <trkpt lat="47.543161" lon="7.942213">
        <ele>306.523400</ele>
        <time>2021-11-22T06:41:58.228Z</time>
      </trkpt>
      <trkpt lat="47.543007" lon="7.943867">
        <ele>306.267504</ele>
        <time>2021-11-22T06:42:13.772Z</time>
      </trkpt>
      <trkpt lat="47.542913" lon="7.945267">
        <ele>304.625062</ele>
        <time>2021-11-22T06:42:24.532Z</time>
      </trkpt>
      <trkpt lat="47.542872" lon="7.945781">
        <ele>304.020837</ele>
        <time>2021-11-22T06:42:28.128Z</time>
      </trkpt>
      <trkpt lat="47.542875" lon="7.946089">
        <ele>303.599286</ele>
        <time>2021-11-22T06:42:30.219Z</time>
      </trkpt>
      <trkpt lat="47.542902" lon="7.946514">
        <ele>302.914135</ele>
        <time>2021-11-22T06:42:33.098Z</time>
      </trkpt>
      <trkpt lat="47.542943" lon="7.946806">
        <ele>302.435436</ele>
        <time>2021-11-22T06:42:35.145Z</time>
      </trkpt>
      <trkpt lat="47.542974" lon="7.946965">
        <ele>302.169805</ele>
        <time>2021-11-22T06:42:36.355Z</time>
      </trkpt>
      <trkpt lat="47.542979" lon="7.946989">
        <ele>302.129492</ele>
        <time>2021-11-22T06:42:36.511Z</time>
      </trkpt>
      <trkpt lat="47.543007" lon="7.947104">
        <ele>301.933275</ele>
        <time>2021-11-22T06:42:37.359Z</time>
      </trkpt>
      <trkpt lat="47.543087" lon="7.947317">
        <ele>301.542050</ele>
        <time>2021-11-22T06:42:39.102Z</time>
      </trkpt>
      <trkpt lat="47.543191" lon="7.947615">
        <ele>301.003614</ele>
        <time>2021-11-22T06:42:41.543Z</time>
      </trkpt>
      <trkpt lat="47.543242" lon="7.947745">
        <ele>300.762283</ele>
        <time>2021-11-22T06:42:42.673Z</time>
      </trkpt>
      <trkpt lat="47.543273" lon="7.947816">
        <ele>300.626567</ele>
        <time>2021-11-22T06:42:43.300Z</time>
      </trkpt>
      <trkpt lat="47.543358" lon="7.947967">
        <ele>300.311000</ele>
        <time>2021-11-22T06:42:44.743Z</time>
      </trkpt>
      <trkpt lat="47.543455" lon="7.948127">
        <ele>299.965834</ele>
        <time>2021-11-22T06:42:46.410Z</time>
      </trkpt>
      <trkpt lat="47.543532" lon="7.948214">
        <ele>299.735579</ele>
        <time>2021-11-22T06:42:47.491Z</time>
      </trkpt>
      <trkpt lat="47.543579" lon="7.948287">
        <ele>299.573665</ele>
        <time>2021-11-22T06:42:48.254Z</time>
      </trkpt>
      <trkpt lat="47.543760" lon="7.948548">
        <ele>299.533181</ele>
        <time>2021-11-22T06:42:51.143Z</time>
      </trkpt>
      <trkpt lat="47.543864" lon="7.948694">
        <ele>299.523310</ele>
        <time>2021-11-22T06:42:52.815Z</time>
      </trkpt>
      <trkpt lat="47.544239" lon="7.949202">
        <ele>299.488302</ele>
        <time>2021-11-22T06:43:00.177Z</time>
      </trkpt>
      <trkpt lat="47.544521" lon="7.949558">
        <ele>299.462777</ele>
        <time>2021-11-22T06:43:06.350Z</time>
      </trkpt>
      <trkpt lat="47.544901" lon="7.950044">
        <ele>299.428191</ele>
        <time>2021-11-22T06:43:15.747Z</time>
      </trkpt>
      <trkpt lat="47.545166" lon="7.950366">
        <ele>299.489646</ele>
        <time>2021-11-22T06:43:22.296Z</time>
      </trkpt>
      <trkpt lat="47.545434" lon="7.950668">
        <ele>299.558661</ele>
        <time>2021-11-22T06:43:28.086Z</time>
      </trkpt>
      <trkpt lat="47.545542" lon="7.950842">
        <ele>299.591365</ele>
        <time>2021-11-22T06:43:30.512Z</time>
      </trkpt>
      <trkpt lat="47.545667" lon="7.950979">
        <ele>299.623234</ele>
        <time>2021-11-22T06:43:33.117Z</time>
      </trkpt>
      <trkpt lat="47.545737" lon="7.951055">
        <ele>299.641022</ele>
        <time>2021-11-22T06:43:34.371Z</time>
      </trkpt>
      <trkpt lat="47.545876" lon="7.951233">
        <ele>299.678680</ele>
        <time>2021-11-22T06:43:36.764Z</time>
      </trkpt>
      <trkpt lat="47.546112" lon="7.951485">
        <ele>299.738306</ele>
        <time>2021-11-22T06:43:41.306Z</time>
      </trkpt>
      <trkpt lat="47.546164" lon="7.951520">
        <ele>299.750012</ele>
        <time>2021-11-22T06:43:41.941Z</time>
      </trkpt>
      <trkpt lat="47.546212" lon="7.951535">
        <ele>299.760067</ele>
        <time>2021-11-22T06:43:42.706Z</time>
      </trkpt>
      <trkpt lat="47.546231" lon="7.951558">
        <ele>299.765096</ele>
        <time>2021-11-22T06:43:43.435Z</time>
      </trkpt>
      <trkpt lat="47.546421" lon="7.951793">
        <ele>299.750380</ele>
        <time>2021-11-22T06:43:46.616Z</time>
      </trkpt>
      <trkpt lat="47.546634" lon="7.952024">
        <ele>299.637399</ele>
        <time>2021-11-22T06:43:50.151Z</time>
      </trkpt>
      <trkpt lat="47.546695" lon="7.952091">
        <ele>299.604898</ele>
        <time>2021-11-22T06:43:51.106Z</time>
      </trkpt>
      <trkpt lat="47.546776" lon="7.952185">
        <ele>299.560860</ele>
        <time>2021-11-22T06:43:52.292Z</time>
      </trkpt>
      <trkpt lat="47.546935" lon="7.952372">
        <ele>299.473971</ele>
        <time>2021-11-22T06:43:55.228Z</time>
      </trkpt>
      <trkpt lat="47.547090" lon="7.952543">
        <ele>299.391257</ele>
        <time>2021-11-22T06:43:57.865Z</time>
      </trkpt>
      <trkpt lat="47.547400" lon="7.952910">
        <ele>299.221417</ele>
        <time>2021-11-22T06:44:03.186Z</time>
      </trkpt>
      <trkpt lat="47.547458" lon="7.952975">
        <ele>299.190291</ele>
        <time>2021-11-22T06:44:04.112Z</time>
      </trkpt>
      <trkpt lat="47.547550" lon="7.953078">
        <ele>299.140936</ele>
        <time>2021-11-22T06:44:05.610Z</time>
      </trkpt>
      <trkpt lat="47.547624" lon="7.953160">
        <ele>299.101384</ele>
        <time>2021-11-22T06:44:06.855Z</time>
      </trkpt>
      <trkpt lat="47.547797" lon="7.953355">
        <ele>299.015832</ele>
        <time>2021-11-22T06:44:09.843Z</time>
      </trkpt>
      <trkpt lat="47.547871" lon="7.953437">
        <ele>298.994269</ele>
        <time>2021-11-22T06:44:11.098Z</time>
      </trkpt>
      <trkpt lat="47.547994" lon="7.953584">
        <ele>298.957393</ele>
        <time>2021-11-22T06:44:13.226Z</time>
      </trkpt>
      <trkpt lat="47.548115" lon="7.953729">
        <ele>298.921078</ele>
        <time>2021-11-22T06:44:15.349Z</time>
      </trkpt>
      <trkpt lat="47.548251" lon="7.953895">
        <ele>298.879959</ele>
        <time>2021-11-22T06:44:17.729Z</time>
      </trkpt>
      <trkpt lat="47.548342" lon="7.954009">
        <ele>298.852151</ele>
        <time>2021-11-22T06:44:19.369Z</time>
      </trkpt>
      <trkpt lat="47.548542" lon="7.954269">
        <ele>298.790062</ele>
        <time>2021-11-22T06:44:23.099Z</time>
      </trkpt>
      <trkpt lat="47.548833" lon="7.954652">
        <ele>298.699233</ele>
        <time>2021-11-22T06:44:28.641Z</time>
      </trkpt>
      <trkpt lat="47.549042" lon="7.954942">
        <ele>298.632415</ele>
        <time>2021-11-22T06:44:32.784Z</time>
      </trkpt>
      <trkpt lat="47.549157" lon="7.955099">
        <ele>298.599663</ele>
        <time>2021-11-22T06:44:35.069Z</time>
      </trkpt>
      <trkpt lat="47.549444" lon="7.955496">
        <ele>298.545380</ele>
        <time>2021-11-22T06:44:40.915Z</time>
      </trkpt>
      <trkpt lat="47.550205" lon="7.956552">
        <ele>298.401234</ele>
        <time>2021-11-22T06:44:55.548Z</time>
      </trkpt>
      <trkpt lat="47.550380" lon="7.956806">
        <ele>298.367365</ele>
        <time>2021-11-22T06:44:59.109Z</time>
      </trkpt>
      <trkpt lat="47.550445" lon="7.956918">
        <ele>298.356671</ele>
        <time>2021-11-22T06:45:00.593Z</time>
      </trkpt>
      <trkpt lat="47.550549" lon="7.957126">
        <ele>298.358658</ele>
        <time>2021-11-22T06:45:03.114Z</time>
      </trkpt>
      <trkpt lat="47.550613" lon="7.957254">
        <ele>298.359881</ele>
        <time>2021-11-22T06:45:04.742Z</time>
      </trkpt>
      <trkpt lat="47.550735" lon="7.957541">
        <ele>298.362485</ele>
        <time>2021-11-22T06:45:08.198Z</time>
      </trkpt>
      <trkpt lat="47.550745" lon="7.957569">
        <ele>298.362728</ele>
        <time>2021-11-22T06:45:08.446Z</time>
      </trkpt>
      <trkpt lat="47.550869" lon="7.957700">
        <ele>298.364461</ele>
        <time>2021-11-22T06:45:10.719Z</time>
      </trkpt>
      <trkpt lat="47.551300" lon="7.958844">
        <ele>298.374519</ele>
        <time>2021-11-22T06:45:23.571Z</time>
      </trkpt>
      <trkpt lat="47.551677" lon="7.960100">
        <ele>298.674529</ele>
        <time>2021-11-22T06:45:38.310Z</time>
      </trkpt>
      <trkpt lat="47.551865" lon="7.960528">
        <ele>298.817229</ele>
        <time>2021-11-22T06:45:44.160Z</time>
      </trkpt>
      <trkpt lat="47.551882" lon="7.960631">
        <ele>298.846860</ele>
        <time>2021-11-22T06:45:45.376Z</time>
      </trkpt>
      <trkpt lat="47.551894" lon="7.960729">
        <ele>298.874692</ele>
        <time>2021-11-22T06:45:46.780Z</time>
      </trkpt>
      <trkpt lat="47.551859" lon="7.961133">
        <ele>298.988513</ele>
        <time>2021-11-22T06:45:51.255Z</time>
      </trkpt>
      <trkpt lat="47.551906" lon="7.962453">
        <ele>299.282747</ele>
        <time>2021-11-22T06:46:06.650Z</time>
      </trkpt>
      <trkpt lat="47.551918" lon="7.963725">
        <ele>299.525184</ele>
        <time>2021-11-22T06:46:20.311Z</time>
      </trkpt>
      <trkpt lat="47.551902" lon="7.964650">
        <ele>299.541171</ele>
        <time>2021-11-22T06:46:29.423Z</time>
      </trkpt>
      <trkpt lat="47.551767" lon="7.967910">
        <ele>298.955083</ele>
        <time>2021-11-22T06:46:59.086Z</time>
      </trkpt>
      <trkpt lat="47.551839" lon="7.968208">
        <ele>298.938311</ele>
        <time>2021-11-22T06:47:02.177Z</time>
      </trkpt>
      <trkpt lat="47.551847" lon="7.968315">
        <ele>298.932607</ele>
        <time>2021-11-22T06:47:03.153Z</time>
      </trkpt>
      <trkpt lat="47.551825" lon="7.968445">
        <ele>298.925505</ele>
        <time>2021-11-22T06:47:04.384Z</time>
      </trkpt>
      <trkpt lat="47.551750" lon="7.968659">
        <ele>298.912727</ele>
        <time>2021-11-22T06:47:06.987Z</time>
      </trkpt>
      <trkpt lat="47.551734" lon="7.970034">
        <ele>299.040316</ele>
        <time>2021-11-22T06:47:21.383Z</time>
      </trkpt>
      <trkpt lat="47.551725" lon="7.970823">
        <ele>299.322129</ele>
        <time>2021-11-22T06:47:30.503Z</time>
      </trkpt>
      <trkpt lat="47.551755" lon="7.972603">
        <ele>299.829503</ele>
        <time>2021-11-22T06:47:51.978Z</time>
      </trkpt>
      <trkpt lat="47.551793" lon="7.974325">
        <ele>299.882144</ele>
        <time>2021-11-22T06:48:09.149Z</time>
      </trkpt>
      <trkpt lat="47.551829" lon="7.976305">
        <ele>299.983607</ele>
        <time>2021-11-22T06:48:27.107Z</time>
      </trkpt>
      <trkpt lat="47.551901" lon="7.979190">
        <ele>300.480809</ele>
        <time>2021-11-22T06:49:01.222Z</time>
      </trkpt>
      <trkpt lat="47.551923" lon="7.979308">
        <ele>300.512209</ele>
        <time>2021-11-22T06:49:02.912Z</time>
      </trkpt>
      <trkpt lat="47.551933" lon="7.979363">
        <ele>300.526819</ele>
        <time>2021-11-22T06:49:04.125Z</time>
      </trkpt>
      <trkpt lat="47.551873" lon="7.980135">
        <ele>300.726141</ele>
        <time>2021-11-22T06:49:11.406Z</time>
      </trkpt>
      <trkpt lat="47.551865" lon="7.980584">
        <ele>300.157693</ele>
        <time>2021-11-22T06:49:15.654Z</time>
      </trkpt>
      <trkpt lat="47.551861" lon="7.981113">
        <ele>299.377447</ele>
        <time>2021-11-22T06:49:20.052Z</time>
      </trkpt>
      <trkpt lat="47.551892" lon="7.983447">
        <ele>295.978346</ele>
        <time>2021-11-22T06:49:36.059Z</time>
      </trkpt>
      <trkpt lat="47.551911" lon="7.983632">
        <ele>295.716192</ele>
        <time>2021-11-22T06:49:37.358Z</time>
      </trkpt>
      <trkpt lat="47.552005" lon="7.983849">
        <ele>295.354965</ele>
        <time>2021-11-22T06:49:39.216Z</time>
      </trkpt>
      <trkpt lat="47.552007" lon="7.983931">
        <ele>295.240015</ele>
        <time>2021-11-22T06:49:39.728Z</time>
      </trkpt>
      <trkpt lat="47.551993" lon="7.984014">
        <ele>295.120163</ele>
        <time>2021-11-22T06:49:40.319Z</time>
      </trkpt>
      <trkpt lat="47.551934" lon="7.984260">
        <ele>294.754424</ele>
        <time>2021-11-22T06:49:42.368Z</time>
      </trkpt>
      <trkpt lat="47.551939" lon="7.985151">
        <ele>293.506161</ele>
        <time>2021-11-22T06:49:49.005Z</time>
      </trkpt>
      <trkpt lat="47.551898" lon="7.985654">
        <ele>293.340595</ele>
        <time>2021-11-22T06:49:53.314Z</time>
      </trkpt>
      <trkpt lat="47.551915" lon="7.986209">
        <ele>294.075800</ele>
        <time>2021-11-22T06:49:58.931Z</time>
      </trkpt>
      <trkpt lat="47.551917" lon="7.986288">
        <ele>294.180416</ele>
        <time>2021-11-22T06:50:00.254Z</time>
      </trkpt>
      <trkpt lat="47.551971" lon="7.986555">
        <ele>294.549269</ele>
        <time>2021-11-22T06:50:04.515Z</time>
      </trkpt>
      <trkpt lat="47.552152" lon="7.986883">
        <ele>295.109936</ele>
        <time>2021-11-22T06:50:11.741Z</time>
      </trkpt>
      <trkpt lat="47.552224" lon="7.986975">
        <ele>295.296353</ele>
        <time>2021-11-22T06:50:14.308Z</time>
      </trkpt>
      <trkpt lat="47.552436" lon="7.987273">
        <ele>295.869323</ele>
        <time>2021-11-22T06:50:22.207Z</time>
      </trkpt>
      <trkpt lat="47.552504" lon="7.987369">
        <ele>296.053484</ele>
        <time>2021-11-22T06:50:24.841Z</time>
      </trkpt>
      <trkpt lat="47.552713" lon="7.987638">
        <ele>296.596295</ele>
        <time>2021-11-22T06:50:33.309Z</time>
      </trkpt>
      <trkpt lat="47.552867" lon="7.987810">
        <ele>297.293596</ele>
        <time>2021-11-22T06:50:39.797Z</time>
      </trkpt>
      <trkpt lat="47.553232" lon="7.988247">
        <ele>299.004082</ele>
        <time>2021-11-22T06:50:54.425Z</time>
      </trkpt>
      <trkpt lat="47.553343" lon="7.988401">
        <ele>299.558359</ele>
        <time>2021-11-22T06:50:59.262Z</time>
      </trkpt>
      <trkpt lat="47.553410" lon="7.988607">
        <ele>300.120902</ele>
        <time>2021-11-22T06:51:03.859Z</time>
      </trkpt>
      <trkpt lat="47.553424" lon="7.988762">
        <ele>300.505607</ele>
        <time>2021-11-22T06:51:07.046Z</time>
      </trkpt>
      <trkpt lat="47.553352" lon="7.989142">
        <ele>301.476560</ele>
        <time>2021-11-22T06:51:14.890Z</time>
      </trkpt>
      <trkpt lat="47.553253" lon="7.989578">
        <ele>302.608213</ele>
        <time>2021-11-22T06:51:23.842Z</time>
      </trkpt>
      <trkpt lat="47.553214" lon="7.989758">
        <ele>303.073279</ele>
        <time>2021-11-22T06:51:27.425Z</time>
      </trkpt>
      <trkpt lat="47.553163" lon="7.990004">
        <ele>303.276760</ele>
        <time>2021-11-22T06:51:32.125Z</time>
      </trkpt>
      <trkpt lat="47.553146" lon="7.990113">
        <ele>303.335986</ele>
        <time>2021-11-22T06:51:34.052Z</time>
      </trkpt>
      <trkpt lat="47.553126" lon="7.990240">
        <ele>303.405028</ele>
        <time>2021-11-22T06:51:36.210Z</time>
      </trkpt>
      <trkpt lat="47.553050" lon="7.990744">
        <ele>303.678432</ele>
        <time>2021-11-22T06:51:43.860Z</time>
      </trkpt>
      <trkpt lat="47.553091" lon="7.991915">
        <ele>304.299210</ele>
        <time>2021-11-22T06:51:54.668Z</time>
      </trkpt>
      <trkpt lat="47.553107" lon="7.992226">
        <ele>304.464336</ele>
        <time>2021-11-22T06:51:57.137Z</time>
      </trkpt>
      <trkpt lat="47.553130" lon="7.993014">
        <ele>305.012296</ele>
        <time>2021-11-22T06:52:06.711Z</time>
      </trkpt>
      <trkpt lat="47.553137" lon="7.993190">
        <ele>305.144637</ele>
        <time>2021-11-22T06:52:07.830Z</time>
      </trkpt>
      <trkpt lat="47.553156" lon="7.993696">
        <ele>305.525046</ele>
        <time>2021-11-22T06:52:13.463Z</time>
      </trkpt>
      <trkpt lat="47.553164" lon="7.993925">
        <ele>305.697172</ele>
        <time>2021-11-22T06:52:19.930Z</time>
      </trkpt>
      <trkpt lat="47.553246" lon="7.995617">
        <ele>307.294033</ele>
        <time>2021-11-22T06:52:42.715Z</time>
      </trkpt>
      <trkpt lat="47.553268" lon="7.996252">
        <ele>308.157147</ele>
        <time>2021-11-22T06:52:56.060Z</time>
      </trkpt>
      <trkpt lat="47.553279" lon="7.996528">
        <ele>308.532454</ele>
        <time>2021-11-22T06:53:00.213Z</time>
      </trkpt>
      <trkpt lat="47.553287" lon="7.997190">
        <ele>309.431228</ele>
        <time>2021-11-22T06:53:09.963Z</time>
      </trkpt>
      <trkpt lat="47.553287" lon="7.998380">
        <ele>310.385361</ele>
        <time>2021-11-22T06:53:26.546Z</time>
      </trkpt>
      <trkpt lat="47.553278" lon="7.999508">
        <ele>310.737406</ele>
        <time>2021-11-22T06:53:39.896Z</time>
      </trkpt>
      <trkpt lat="47.553275" lon="7.999860">
        <ele>310.847265</ele>
        <time>2021-11-22T06:53:43.396Z</time>
      </trkpt>
      <trkpt lat="47.553273" lon="8.001687">
        <ele>310.286450</ele>
        <time>2021-11-22T06:53:58.940Z</time>
      </trkpt>
      <trkpt lat="47.553271" lon="8.002109">
        <ele>310.043692</ele>
        <time>2021-11-22T06:54:02.306Z</time>
      </trkpt>
      <trkpt lat="47.553270" lon="8.002465">
        <ele>309.838904</ele>
        <time>2021-11-22T06:54:05.084Z</time>
      </trkpt>
      <trkpt lat="47.553266" lon="8.003502">
        <ele>309.558773</ele>
        <time>2021-11-22T06:54:13.858Z</time>
      </trkpt>
      <trkpt lat="47.553256" lon="8.004837">
        <ele>309.785656</ele>
        <time>2021-11-22T06:54:28.088Z</time>
      </trkpt>
      <trkpt lat="47.553251" lon="8.005657">
        <ele>309.925012</ele>
        <time>2021-11-22T06:54:38.178Z</time>
      </trkpt>
      <trkpt lat="47.553220" lon="8.006182">
        <ele>310.099285</ele>
        <time>2021-11-22T06:54:45.126Z</time>
      </trkpt>
      <trkpt lat="47.553211" lon="8.006270">
        <ele>310.131481</ele>
        <time>2021-11-22T06:54:46.928Z</time>
      </trkpt>
      <trkpt lat="47.553173" lon="8.006642">
        <ele>310.267580</ele>
        <time>2021-11-22T06:54:51.478Z</time>
      </trkpt>
      <trkpt lat="47.552935" lon="8.007851">
        <ele>310.723145</ele>
        <time>2021-11-22T06:55:06.584Z</time>
      </trkpt>
      <trkpt lat="47.552640" lon="8.008615">
        <ele>310.631043</ele>
        <time>2021-11-22T06:55:14.728Z</time>
      </trkpt>
      <trkpt lat="47.552604" lon="8.008677">
        <ele>310.572619</ele>
        <time>2021-11-22T06:55:15.278Z</time>
      </trkpt>
      <trkpt lat="47.551902" lon="8.009884">
        <ele>309.434435</ele>
        <time>2021-11-22T06:55:27.638Z</time>
      </trkpt>
      <trkpt lat="47.551275" lon="8.010934">
        <ele>309.139299</ele>
        <time>2021-11-22T06:55:39.593Z</time>
      </trkpt>
      <trkpt lat="47.551187" lon="8.011080">
        <ele>309.173697</ele>
        <time>2021-11-22T06:55:41.727Z</time>
      </trkpt>
      <trkpt lat="47.550764" lon="8.011985">
        <ele>309.367145</ele>
        <time>2021-11-22T06:55:53.817Z</time>
      </trkpt>
      <trkpt lat="47.550565" lon="8.012461">
        <ele>309.465539</ele>
        <time>2021-11-22T06:56:01.236Z</time>
      </trkpt>
      <trkpt lat="47.550001" lon="8.014034">
        <ele>311.192587</ele>
        <time>2021-11-22T06:56:27.075Z</time>
      </trkpt>
      <trkpt lat="47.549871" lon="8.014427">
        <ele>311.619869</ele>
        <time>2021-11-22T06:56:33.261Z</time>
      </trkpt>
      <trkpt lat="47.549795" lon="8.014667">
        <ele>311.878685</ele>
        <time>2021-11-22T06:56:36.762Z</time>
      </trkpt>
      <trkpt lat="47.549589" lon="8.015316">
        <ele>312.512670</ele>
        <time>2021-11-22T06:56:46.140Z</time>
      </trkpt>
      <trkpt lat="47.549431" lon="8.015998">
        <ele>313.125091</ele>
        <time>2021-11-22T06:56:56.054Z</time>
      </trkpt>
      <trkpt lat="47.549281" lon="8.017304">
        <ele>314.250277</ele>
        <time>2021-11-22T06:57:13.278Z</time>
      </trkpt>
      <trkpt lat="47.549274" lon="8.017401">
        <ele>314.333133</ele>
        <time>2021-11-22T06:57:14.571Z</time>
      </trkpt>
      <trkpt lat="47.549236" lon="8.017402">
        <ele>314.388508</ele>
        <time>2021-11-22T06:57:15.394Z</time>
      </trkpt>
      <trkpt lat="47.549145" lon="8.017497">
        <ele>314.550723</ele>
        <time>2021-11-22T06:57:17.651Z</time>
      </trkpt>
      <trkpt lat="47.549133" lon="8.017550">
        <ele>314.605705</ele>
        <time>2021-11-22T06:57:18.640Z</time>
      </trkpt>
      <trkpt lat="47.549131" lon="8.017604">
        <ele>314.658896</ele>
        <time>2021-11-22T06:57:19.157Z</time>
      </trkpt>
      <trkpt lat="47.549220" lon="8.017761">
        <ele>314.860546</ele>
        <time>2021-11-22T06:57:21.735Z</time>
      </trkpt>
      <trkpt lat="47.549256" lon="8.017769">
        <ele>314.913592</ele>
        <time>2021-11-22T06:57:22.538Z</time>
      </trkpt>
      <trkpt lat="47.549261" lon="8.017878">
        <ele>315.021044</ele>
        <time>2021-11-22T06:57:24.178Z</time>
      </trkpt>
      <trkpt lat="47.549208" lon="8.019997">
        <ele>317.055600</ele>
        <time>2021-11-22T06:57:54.733Z</time>
      </trkpt>
      <trkpt lat="47.549186" lon="8.021006">
        <ele>317.716527</ele>
        <time>2021-11-22T06:58:07.795Z</time>
      </trkpt>
      <trkpt lat="47.549191" lon="8.021436">
        <ele>317.998085</ele>
        <time>2021-11-22T06:58:13.177Z</time>
      </trkpt>
      <trkpt lat="47.549201" lon="8.022146">
        <ele>318.463016</ele>
        <time>2021-11-22T06:58:21.979Z</time>
      </trkpt>
      <trkpt lat="47.549268" lon="8.023385">
        <ele>318.743133</ele>
        <time>2021-11-22T06:58:35.931Z</time>
      </trkpt>
      <trkpt lat="47.549322" lon="8.024323">
        <ele>318.790460</ele>
        <time>2021-11-22T06:58:45.314Z</time>
      </trkpt>
      <trkpt lat="47.549436" lon="8.026046">
        <ele>318.497561</ele>
        <time>2021-11-22T06:59:01.535Z</time>
      </trkpt>
      <trkpt lat="47.549454" lon="8.027138">
        <ele>318.086555</ele>
        <time>2021-11-22T06:59:10.822Z</time>
      </trkpt>
      <trkpt lat="47.549445" lon="8.027599">
        <ele>317.913024</ele>
        <time>2021-11-22T06:59:14.782Z</time>
      </trkpt>
      <trkpt lat="47.549431" lon="8.028306">
        <ele>317.669440</ele>
        <time>2021-11-22T06:59:21.013Z</time>
      </trkpt>
      <trkpt lat="47.549418" lon="8.028906">
        <ele>317.471378</ele>
        <time>2021-11-22T06:59:26.431Z</time>
      </trkpt>
      <trkpt lat="47.549380" lon="8.030702">
        <ele>316.947091</ele>
        <time>2021-11-22T06:59:42.317Z</time>
      </trkpt>
      <trkpt lat="47.549378" lon="8.030790">
        <ele>316.945599</ele>
        <time>2021-11-22T06:59:43.246Z</time>
      </trkpt>
      <trkpt lat="47.549372" lon="8.031883">
        <ele>316.927076</ele>
        <time>2021-11-22T06:59:54.484Z</time>
      </trkpt>
      <trkpt lat="47.549368" lon="8.032544">
        <ele>316.915874</ele>
        <time>2021-11-22T07:00:00.733Z</time>
      </trkpt>
      <trkpt lat="47.549363" lon="8.032869">
        <ele>316.910365</ele>
        <time>2021-11-22T07:00:05.094Z</time>
      </trkpt>
      <trkpt lat="47.549374" lon="8.033423">
        <ele>316.848454</ele>
        <time>2021-11-22T07:00:11.100Z</time>
      </trkpt>
      <trkpt lat="47.549386" lon="8.033799">
        <ele>316.770363</ele>
        <time>2021-11-22T07:00:14.321Z</time>
      </trkpt>
      <trkpt lat="47.549394" lon="8.034003">
        <ele>316.727970</ele>
        <time>2021-11-22T07:00:17.412Z</time>
      </trkpt>
      <trkpt lat="47.549395" lon="8.034029">
        <ele>316.722567</ele>
        <time>2021-11-22T07:00:17.558Z</time>
      </trkpt>
      <trkpt lat="47.549442" lon="8.034584">
        <ele>316.606526</ele>
        <time>2021-11-22T07:00:22.762Z</time>
      </trkpt>
      <trkpt lat="47.549494" lon="8.034935">
        <ele>316.531975</ele>
        <time>2021-11-22T07:00:26.568Z</time>
      </trkpt>
      <trkpt lat="47.549554" lon="8.035288">
        <ele>316.456457</ele>
        <time>2021-11-22T07:00:29.646Z</time>
      </trkpt>
      <trkpt lat="47.549632" lon="8.035633">
        <ele>316.380976</ele>
        <time>2021-11-22T07:00:32.800Z</time>
      </trkpt>
      <trkpt lat="47.549699" lon="8.035900">
        <ele>316.269761</ele>
        <time>2021-11-22T07:00:35.296Z</time>
      </trkpt>
      <trkpt lat="47.549753" lon="8.036077">
        <ele>316.161549</ele>
        <time>2021-11-22T07:00:36.970Z</time>
      </trkpt>
      <trkpt lat="47.549832" lon="8.036349">
        <ele>315.996584</ele>
        <time>2021-11-22T07:00:39.410Z</time>
      </trkpt>
      <trkpt lat="47.550111" lon="8.037123">
        <ele>315.507750</ele>
        <time>2021-11-22T07:00:46.601Z</time>
      </trkpt>
      <trkpt lat="47.550424" lon="8.037956">
        <ele>314.976624</ele>
        <time>2021-11-22T07:00:54.369Z</time>
      </trkpt>
      <trkpt lat="47.550515" lon="8.038174">
        <ele>314.894916</ele>
        <time>2021-11-22T07:00:56.617Z</time>
      </trkpt>
      <trkpt lat="47.551001" lon="8.039426">
        <ele>315.519645</ele>
        <time>2021-11-22T07:01:11.916Z</time>
      </trkpt>
      <trkpt lat="47.551167" lon="8.039905">
        <ele>315.752551</ele>
        <time>2021-11-22T07:01:18.962Z</time>
      </trkpt>
      <trkpt lat="47.551627" lon="8.041127">
        <ele>317.127538</ele>
        <time>2021-11-22T07:01:39.508Z</time>
      </trkpt>
      <trkpt lat="47.552844" lon="8.044355">
        <ele>321.975578</ele>
        <time>2021-11-22T07:02:39.459Z</time>
      </trkpt>
      <trkpt lat="47.553619" lon="8.046372">
        <ele>322.892915</ele>
        <time>2021-11-22T07:03:07.297Z</time>
      </trkpt>
      <trkpt lat="47.553996" lon="8.047557">
        <ele>322.667054</ele>
        <time>2021-11-22T07:03:18.206Z</time>
      </trkpt>
      <trkpt lat="47.554309" lon="8.048719">
        <ele>321.100047</ele>
        <time>2021-11-22T07:03:27.498Z</time>
      </trkpt>
      <trkpt lat="47.554412" lon="8.049127">
        <ele>320.554460</ele>
        <time>2021-11-22T07:03:30.696Z</time>
      </trkpt>
      <trkpt lat="47.554715" lon="8.050527">
        <ele>318.963252</ele>
        <time>2021-11-22T07:03:41.569Z</time>
      </trkpt>
      <trkpt lat="47.554985" lon="8.051466">
        <ele>318.107571</ele>
        <time>2021-11-22T07:03:49.489Z</time>
      </trkpt>
      <trkpt lat="47.554988" lon="8.051475">
        <ele>318.099156</ele>
        <time>2021-11-22T07:03:49.549Z</time>
      </trkpt>
      <trkpt lat="47.555035" lon="8.051590">
        <ele>317.986446</ele>
        <time>2021-11-22T07:03:50.718Z</time>
      </trkpt>
      <trkpt lat="47.555259" lon="8.052135">
        <ele>317.451487</ele>
        <time>2021-11-22T07:03:56.358Z</time>
      </trkpt>
      <trkpt lat="47.555603" lon="8.052757">
        <ele>317.183771</ele>
        <time>2021-11-22T07:04:03.999Z</time>
      </trkpt>
      <trkpt lat="47.555773" lon="8.053070">
        <ele>317.145765</ele>
        <time>2021-11-22T07:04:07.706Z</time>
      </trkpt>
      <trkpt lat="47.555890" lon="8.053286">
        <ele>317.119564</ele>
        <time>2021-11-22T07:04:10.121Z</time>
      </trkpt>
      <trkpt lat="47.556032" lon="8.053510">
        <ele>317.090492</ele>
        <time>2021-11-22T07:04:12.825Z</time>
      </trkpt>
      <trkpt lat="47.556239" lon="8.053780">
        <ele>317.051836</ele>
        <time>2021-11-22T07:04:16.834Z</time>
      </trkpt>
      <trkpt lat="47.556494" lon="8.054073">
        <ele>317.006605</ele>
        <time>2021-11-22T07:04:22.077Z</time>
      </trkpt>
      <trkpt lat="47.557019" lon="8.054678">
        <ele>316.983837</ele>
        <time>2021-11-22T07:04:33.198Z</time>
      </trkpt>
      <trkpt lat="47.557097" lon="8.054768">
        <ele>316.983933</ele>
        <time>2021-11-22T07:04:34.435Z</time>
      </trkpt>
      <trkpt lat="47.557273" lon="8.054941">
        <ele>316.984138</ele>
        <time>2021-11-22T07:04:37.759Z</time>
      </trkpt>
      <trkpt lat="47.557500" lon="8.055133">
        <ele>316.984392</ele>
        <time>2021-11-22T07:04:41.325Z</time>
      </trkpt>
      <trkpt lat="47.557710" lon="8.055283">
        <ele>316.984618</ele>
        <time>2021-11-22T07:04:44.478Z</time>
      </trkpt>
      <trkpt lat="47.557918" lon="8.055409">
        <ele>316.984836</ele>
        <time>2021-11-22T07:04:47.757Z</time>
      </trkpt>
      <trkpt lat="47.558012" lon="8.055477">
        <ele>316.984938</ele>
        <time>2021-11-22T07:04:49.132Z</time>
      </trkpt>
      <trkpt lat="47.558239" lon="8.055639">
        <ele>316.997343</ele>
        <time>2021-11-22T07:04:52.963Z</time>
      </trkpt>
      <trkpt lat="47.558447" lon="8.055831">
        <ele>317.032084</ele>
        <time>2021-11-22T07:04:56.547Z</time>
      </trkpt>
      <trkpt lat="47.558662" lon="8.056061">
        <ele>317.069678</ele>
        <time>2021-11-22T07:05:00.974Z</time>
      </trkpt>
      <trkpt lat="47.559116" lon="8.056760">
        <ele>317.162494</ele>
        <time>2021-11-22T07:05:11.082Z</time>
      </trkpt>
      <trkpt lat="47.559294" lon="8.057130">
        <ele>317.205966</ele>
        <time>2021-11-22T07:05:15.751Z</time>
      </trkpt>
      <trkpt lat="47.559447" lon="8.057490">
        <ele>317.252630</ele>
        <time>2021-11-22T07:05:20.116Z</time>
      </trkpt>
      <trkpt lat="47.559548" lon="8.057827">
        <ele>317.319890</ele>
        <time>2021-11-22T07:05:24.106Z</time>
      </trkpt>
      <trkpt lat="47.559579" lon="8.057955">
        <ele>317.344695</ele>
        <time>2021-11-22T07:05:25.550Z</time>
      </trkpt>
      <trkpt lat="47.559654" lon="8.058257">
        <ele>317.403392</ele>
        <time>2021-11-22T07:05:29.154Z</time>
      </trkpt>
      <trkpt lat="47.559725" lon="8.058554">
        <ele>317.460864</ele>
        <time>2021-11-22T07:05:32.548Z</time>
      </trkpt>
      <trkpt lat="47.559859" lon="8.059093">
        <ele>317.565638</ele>
        <time>2021-11-22T07:05:38.667Z</time>
      </trkpt>
      <trkpt lat="47.559979" lon="8.059591">
        <ele>317.662092</ele>
        <time>2021-11-22T07:05:44.255Z</time>
      </trkpt>
      <trkpt lat="47.560019" lon="8.059741">
        <ele>317.691510</ele>
        <time>2021-11-22T07:05:46.063Z</time>
      </trkpt>
      <trkpt lat="47.560040" lon="8.059827">
        <ele>317.708192</ele>
        <time>2021-11-22T07:05:47.006Z</time>
      </trkpt>
      <trkpt lat="47.560069" lon="8.059943">
        <ele>317.737576</ele>
        <time>2021-11-22T07:05:48.251Z</time>
      </trkpt>
      <trkpt lat="47.560130" lon="8.060196">
        <ele>317.860899</ele>
        <time>2021-11-22T07:05:51.296Z</time>
      </trkpt>
      <trkpt lat="47.560262" lon="8.060729">
        <ele>318.121515</ele>
        <time>2021-11-22T07:05:57.553Z</time>
      </trkpt>
      <trkpt lat="47.560293" lon="8.060828">
        <ele>318.171612</ele>
        <time>2021-11-22T07:05:58.834Z</time>
      </trkpt>
      <trkpt lat="47.560335" lon="8.060984">
        <ele>318.248708</ele>
        <time>2021-11-22T07:06:00.867Z</time>
      </trkpt>
      <trkpt lat="47.560570" lon="8.061926">
        <ele>318.709708</ele>
        <time>2021-11-22T07:06:13.538Z</time>
      </trkpt>
      <trkpt lat="47.560765" lon="8.062729">
        <ele>319.117727</ele>
        <time>2021-11-22T07:06:23.709Z</time>
      </trkpt>
      <trkpt lat="47.560673" lon="8.062786">
        <ele>319.192839</ele>
        <time>2021-11-22T07:06:26.080Z</time>
      </trkpt>
      <trkpt lat="47.560580" lon="8.062890">
        <ele>319.280598</ele>
        <time>2021-11-22T07:06:28.818Z</time>
      </trkpt>
      <trkpt lat="47.560545" lon="8.062928">
        <ele>319.313280</ele>
        <time>2021-11-22T07:06:29.607Z</time>
      </trkpt>
      <trkpt lat="47.560443" lon="8.063042">
        <ele>319.409513</ele>
        <time>2021-11-22T07:06:32.030Z</time>
      </trkpt>
      <trkpt lat="47.560335" lon="8.063169">
        <ele>319.513365</ele>
        <time>2021-11-22T07:06:34.626Z</time>
      </trkpt>
      <trkpt lat="47.560392" lon="8.063300">
        <ele>319.592594</ele>
        <time>2021-11-22T07:06:36.473Z</time>
      </trkpt>
      <trkpt lat="47.560719" lon="8.063873">
        <ele>319.974037</ele>
        <time>2021-11-22T07:06:45.786Z</time>
      </trkpt>
      <trkpt lat="47.560806" lon="8.064037">
        <ele>320.080072</ele>
        <time>2021-11-22T07:06:48.288Z</time>
      </trkpt>
      <trkpt lat="47.560887" lon="8.064271">
        <ele>320.213750</ele>
        <time>2021-11-22T07:06:51.418Z</time>
      </trkpt>
      <trkpt lat="47.561017" lon="8.064820">
        <ele>320.321563</ele>
        <time>2021-11-22T07:06:58.032Z</time>
      </trkpt>
      <trkpt lat="47.561108" lon="8.065242">
        <ele>320.340251</ele>
        <time>2021-11-22T07:07:02.275Z</time>
      </trkpt>
      <trkpt lat="47.561253" lon="8.066385">
        <ele>320.389312</ele>
        <time>2021-11-22T07:07:13.268Z</time>
      </trkpt>
      <trkpt lat="47.561276" lon="8.067022">
        <ele>320.416222</ele>
        <time>2021-11-22T07:07:19.520Z</time>
      </trkpt>
      <trkpt lat="47.561265" lon="8.067435">
        <ele>320.740912</ele>
        <time>2021-11-22T07:07:23.902Z</time>
      </trkpt>
      <trkpt lat="47.561229" lon="8.067903">
        <ele>321.127162</ele>
        <time>2021-11-22T07:07:29.646Z</time>
      </trkpt>
      <trkpt lat="47.561187" lon="8.068256">
        <ele>321.421091</ele>
        <time>2021-11-22T07:07:34.052Z</time>
      </trkpt>
      <trkpt lat="47.561130" lon="8.068650">
        <ele>321.751517</ele>
        <time>2021-11-22T07:07:39.296Z</time>
      </trkpt>
      <trkpt lat="47.560998" lon="8.069237">
        <ele>322.258888</ele>
        <time>2021-11-22T07:07:48.443Z</time>
      </trkpt>
      <trkpt lat="47.560904" lon="8.069780">
        <ele>322.821102</ele>
        <time>2021-11-22T07:07:57.402Z</time>
      </trkpt>
      <trkpt lat="47.560864" lon="8.070015">
        <ele>323.195665</ele>
        <time>2021-11-22T07:08:01.434Z</time>
      </trkpt>
      <trkpt lat="47.560739" lon="8.070551">
        <ele>324.072114</ele>
        <time>2021-11-22T07:08:11.048Z</time>
      </trkpt>
      <trkpt lat="47.560584" lon="8.070919">
        <ele>324.742546</ele>
        <time>2021-11-22T07:08:18.362Z</time>
      </trkpt>
      <trkpt lat="47.560553" lon="8.071099">
        <ele>325.029650</ele>
        <time>2021-11-22T07:08:21.553Z</time>
      </trkpt>
      <trkpt lat="47.560524" lon="8.071179">
        <ele>325.169999</ele>
        <time>2021-11-22T07:08:23.313Z</time>
      </trkpt>
      <trkpt lat="47.560318" lon="8.072316">
        <ele>326.906812</ele>
        <time>2021-11-22T07:08:42.214Z</time>
      </trkpt>
      <trkpt lat="47.559811" lon="8.074398">
        <ele>329.270548</ele>
        <time>2021-11-22T07:09:13.054Z</time>
      </trkpt>
      <trkpt lat="47.559426" lon="8.075372">
        <ele>330.470164</ele>
        <time>2021-11-22T07:09:28.504Z</time>
      </trkpt>
      <trkpt lat="47.559046" lon="8.076086">
        <ele>331.435013</ele>
        <time>2021-11-22T07:09:41.529Z</time>
      </trkpt>
      <trkpt lat="47.558613" lon="8.076826">
        <ele>332.445978</ele>
        <time>2021-11-22T07:09:56.112Z</time>
      </trkpt>
      <trkpt lat="47.557793" lon="8.078299">
        <ele>333.735388</ele>
        <time>2021-11-22T07:10:23.869Z</time>
      </trkpt>
      <trkpt lat="47.557256" lon="8.079416">
        <ele>332.989167</ele>
        <time>2021-11-22T07:10:35.717Z</time>
      </trkpt>
      <trkpt lat="47.557099" lon="8.079786">
        <ele>332.223441</ele>
        <time>2021-11-22T07:10:38.956Z</time>
      </trkpt>
      <trkpt lat="47.556853" lon="8.080477">
        <ele>330.854688</ele>
        <time>2021-11-22T07:10:44.341Z</time>
      </trkpt>
      <trkpt lat="47.556470" lon="8.081563">
        <ele>327.933113</ele>
        <time>2021-11-22T07:10:52.356Z</time>
      </trkpt>
      <trkpt lat="47.556083" lon="8.083354">
        <ele>321.521208</ele>
        <time>2021-11-22T07:11:04.160Z</time>
      </trkpt>
      <trkpt lat="47.555956" lon="8.084115">
        <ele>319.008239</ele>
        <time>2021-11-22T07:11:09.163Z</time>
      </trkpt>
      <trkpt lat="47.555899" lon="8.084472">
        <ele>317.883086</ele>
        <time>2021-11-22T07:11:11.483Z</time>
      </trkpt>
      <trkpt lat="47.555764" lon="8.085769">
        <ele>313.858114</ele>
        <time>2021-11-22T07:11:19.948Z</time>
      </trkpt>
      <trkpt lat="47.555733" lon="8.086819">
        <ele>311.895179</ele>
        <time>2021-11-22T07:11:26.876Z</time>
      </trkpt>
      <trkpt lat="47.555737" lon="8.087083">
        <ele>311.711266</ele>
        <time>2021-11-22T07:11:28.674Z</time>
      </trkpt>
      <trkpt lat="47.555780" lon="8.087557">
        <ele>311.378172</ele>
        <time>2021-11-22T07:11:32.164Z</time>
      </trkpt>
      <trkpt lat="47.555809" lon="8.087783">
        <ele>311.217951</ele>
        <time>2021-11-22T07:11:34.599Z</time>
      </trkpt>
      <trkpt lat="47.555829" lon="8.087941">
        <ele>311.105991</ele>
        <time>2021-11-22T07:11:36.196Z</time>
      </trkpt>
      <trkpt lat="47.555887" lon="8.088299">
        <ele>310.849573</ele>
        <time>2021-11-22T07:11:39.760Z</time>
      </trkpt>
      <trkpt lat="47.555939" lon="8.088552">
        <ele>310.665377</ele>
        <time>2021-11-22T07:11:42.556Z</time>
      </trkpt>
      <trkpt lat="47.555991" lon="8.088778">
        <ele>310.499080</ele>
        <time>2021-11-22T07:11:45.991Z</time>
      </trkpt>
      <trkpt lat="47.555997" lon="8.088801">
        <ele>310.481907</ele>
        <time>2021-11-22T07:11:46.584Z</time>
      </trkpt>
      <trkpt lat="47.556065" lon="8.089084">
        <ele>310.966053</ele>
        <time>2021-11-22T07:11:50.877Z</time>
      </trkpt>
      <trkpt lat="47.556111" lon="8.089266">
        <ele>311.517536</ele>
        <time>2021-11-22T07:11:54.684Z</time>
      </trkpt>
      <trkpt lat="47.556151" lon="8.089459">
        <ele>312.090446</ele>
        <time>2021-11-22T07:11:59.327Z</time>
      </trkpt>
      <trkpt lat="47.556137" lon="8.089730">
        <ele>312.861699</ele>
        <time>2021-11-22T07:12:04.545Z</time>
      </trkpt>
      <trkpt lat="47.556110" lon="8.089809">
        <ele>313.112981</ele>
        <time>2021-11-22T07:12:06.817Z</time>
      </trkpt>
      <trkpt lat="47.556193" lon="8.089926">
        <ele>313.594670</ele>
        <time>2021-11-22T07:12:10.794Z</time>
      </trkpt>
      <trkpt lat="47.556259" lon="8.090058">
        <ele>314.060841</ele>
        <time>2021-11-22T07:12:13.837Z</time>
      </trkpt>
      <trkpt lat="47.556527" lon="8.090721">
        <ele>316.253858</ele>
        <time>2021-11-22T07:12:32.093Z</time>
      </trkpt>
      <trkpt lat="47.556692" lon="8.091113">
        <ele>317.564833</ele>
        <time>2021-11-22T07:12:43.876Z</time>
      </trkpt>
      <trkpt lat="47.556850" lon="8.091457">
        <ele>318.774487</ele>
        <time>2021-11-22T07:12:54.807Z</time>
      </trkpt>
      <trkpt lat="47.557677" lon="8.092776">
        <ele>324.074138</ele>
        <time>2021-11-22T07:13:35.004Z</time>
      </trkpt>
      <trkpt lat="47.557795" lon="8.093036">
        <ele>324.996431</ele>
        <time>2021-11-22T07:13:41.000Z</time>
      </trkpt>
      <trkpt lat="47.557973" lon="8.093429">
        <ele>326.350314</ele>
        <time>2021-11-22T07:13:48.563Z</time>
      </trkpt>
      <trkpt lat="47.558531" lon="8.094661">
        <ele>330.417637</ele>
        <time>2021-11-22T07:14:18.254Z</time>
      </trkpt>
      <trkpt lat="47.558776" lon="8.095210">
        <ele>332.221865</ele>
        <time>2021-11-22T07:14:32.309Z</time>
      </trkpt>
      <trkpt lat="47.558857" lon="8.095293">
        <ele>332.621895</ele>
        <time>2021-11-22T07:14:37.077Z</time>
      </trkpt>
      <trkpt lat="47.558983" lon="8.095482">
        <ele>333.425204</ele>
        <time>2021-11-22T07:14:43.715Z</time>
      </trkpt>
      <trkpt lat="47.559606" lon="8.096837">
        <ele>339.408831</ele>
        <time>2021-11-22T07:15:32.462Z</time>
      </trkpt>
      <trkpt lat="47.560171" lon="8.097877">
        <ele>343.361404</ele>
        <time>2021-11-22T07:16:10.257Z</time>
      </trkpt>
      <trkpt lat="47.560787" lon="8.098864">
        <ele>345.113066</ele>
        <time>2021-11-22T07:16:38.504Z</time>
      </trkpt>
      <trkpt lat="47.561466" lon="8.099697">
        <ele>345.588472</ele>
        <time>2021-11-22T07:16:54.794Z</time>
      </trkpt>
      <trkpt lat="47.562207" lon="8.100413">
        <ele>343.035088</ele>
        <time>2021-11-22T07:17:07.387Z</time>
      </trkpt>
      <trkpt lat="47.563031" lon="8.100935">
        <ele>340.516578</ele>
        <time>2021-11-22T07:17:20.289Z</time>
      </trkpt>
      <trkpt lat="47.563202" lon="8.101042">
        <ele>340.034239</ele>
        <time>2021-11-22T07:17:22.876Z</time>
      </trkpt>
      <trkpt lat="47.564165" lon="8.101615">
        <ele>337.337663</ele>
        <time>2021-11-22T07:17:33.838Z</time>
      </trkpt>
      <trkpt lat="47.565727" lon="8.102512">
        <ele>333.924887</ele>
        <time>2021-11-22T07:17:53.026Z</time>
      </trkpt>
      <trkpt lat="47.566684" lon="8.102974">
        <ele>331.664589</ele>
        <time>2021-11-22T07:18:03.627Z</time>
      </trkpt>
      <trkpt lat="47.567683" lon="8.103272">
        <ele>329.072840</ele>
        <time>2021-11-22T07:18:14.247Z</time>
      </trkpt>
      <trkpt lat="47.569557" lon="8.103677">
        <ele>324.315894</ele>
        <time>2021-11-22T07:18:34.479Z</time>
      </trkpt>
      <trkpt lat="47.570159" lon="8.103813">
        <ele>322.082630</ele>
        <time>2021-11-22T07:18:40.784Z</time>
      </trkpt>
      <trkpt lat="47.570286" lon="8.103898">
        <ele>321.523317</ele>
        <time>2021-11-22T07:18:42.163Z</time>
      </trkpt>
      <trkpt lat="47.570517" lon="8.104111">
        <ele>320.431354</ele>
        <time>2021-11-22T07:18:44.726Z</time>
      </trkpt>
      <trkpt lat="47.570786" lon="8.104202">
        <ele>319.323879</ele>
        <time>2021-11-22T07:18:47.317Z</time>
      </trkpt>
      <trkpt lat="47.570863" lon="8.104203">
        <ele>319.014806</ele>
        <time>2021-11-22T07:18:48.072Z</time>
      </trkpt>
      <trkpt lat="47.571140" lon="8.104418">
        <ele>317.759767</ele>
        <time>2021-11-22T07:18:51.030Z</time>
      </trkpt>
      <trkpt lat="47.571149" lon="8.104460">
        <ele>317.640432</ele>
        <time>2021-11-22T07:18:51.345Z</time>
      </trkpt>
      <trkpt lat="47.571165" lon="8.104498">
        <ele>317.519133</ele>
        <time>2021-11-22T07:18:51.682Z</time>
      </trkpt>
      <trkpt lat="47.571190" lon="8.104530">
        <ele>317.386549</ele>
        <time>2021-11-22T07:18:51.998Z</time>
      </trkpt>
      <trkpt lat="47.571252" lon="8.104556">
        <ele>317.127926</ele>
        <time>2021-11-22T07:18:52.639Z</time>
      </trkpt>
      <trkpt lat="47.571285" lon="8.104547">
        <ele>316.993248</ele>
        <time>2021-11-22T07:18:52.956Z</time>
      </trkpt>
      <trkpt lat="47.571319" lon="8.104520">
        <ele>316.838426</ele>
        <time>2021-11-22T07:18:53.321Z</time>
      </trkpt>
      <trkpt lat="47.571345" lon="8.104476">
        <ele>316.712899</ele>
        <time>2021-11-22T07:18:53.684Z</time>
      </trkpt>
      <trkpt lat="47.571404" lon="8.104462">
        <ele>316.593613</ele>
        <time>2021-11-22T07:18:54.226Z</time>
      </trkpt>
      <trkpt lat="47.571506" lon="8.104457">
        <ele>316.389872</ele>
        <time>2021-11-22T07:18:55.271Z</time>
      </trkpt>
      <trkpt lat="47.571606" lon="8.104456">
        <ele>316.190231</ele>
        <time>2021-11-22T07:18:56.248Z</time>
      </trkpt>
      <trkpt lat="47.571788" lon="8.104486">
        <ele>315.824652</ele>
        <time>2021-11-22T07:18:57.951Z</time>
      </trkpt>
      <trkpt lat="47.572479" lon="8.104559">
        <ele>314.441662</ele>
        <time>2021-11-22T07:19:05.321Z</time>
      </trkpt>
      <trkpt lat="47.573291" lon="8.104448">
        <ele>313.460245</ele>
        <time>2021-11-22T07:19:16.755Z</time>
      </trkpt>
      <trkpt lat="47.573366" lon="8.104434">
        <ele>313.595507</ele>
        <time>2021-11-22T07:19:19.223Z</time>
      </trkpt>
      <trkpt lat="47.573446" lon="8.104418">
        <ele>313.739953</ele>
        <time>2021-11-22T07:19:21.475Z</time>
      </trkpt>
      <trkpt lat="47.573480" lon="8.104411">
        <ele>313.801375</ele>
        <time>2021-11-22T07:19:22.344Z</time>
      </trkpt>
      <trkpt lat="47.573668" lon="8.104380">
        <ele>314.139849</ele>
        <time>2021-11-22T07:19:26.149Z</time>
      </trkpt>
      <trkpt lat="47.573831" lon="8.104354">
        <ele>314.433199</ele>
        <time>2021-11-22T07:19:31.006Z</time>
      </trkpt>
      <trkpt lat="47.574232" lon="8.104312">
        <ele>315.152520</ele>
        <time>2021-11-22T07:19:40.695Z</time>
      </trkpt>
      <trkpt lat="47.574708" lon="8.104323">
        <ele>316.004358</ele>
        <time>2021-11-22T07:19:51.700Z</time>
      </trkpt>
      <trkpt lat="47.574899" lon="8.104362">
        <ele>316.349352</ele>
        <time>2021-11-22T07:19:57.262Z</time>
      </trkpt>
      <trkpt lat="47.575253" lon="8.104463">
        <ele>316.491278</ele>
        <time>2021-11-22T07:20:04.426Z</time>
      </trkpt>
      <trkpt lat="47.576181" lon="8.104949">
        <ele>316.826299</ele>
        <time>2021-11-22T07:20:18.997Z</time>
      </trkpt>
      <trkpt lat="47.576601" lon="8.105189">
        <ele>316.979519</ele>
        <time>2021-11-22T07:20:24.869Z</time>
      </trkpt>
      <trkpt lat="47.576841" lon="8.105315">
        <ele>317.062991</ele>
        <time>2021-11-22T07:20:28.245Z</time>
      </trkpt>
      <trkpt lat="47.577500" lon="8.105730">
        <ele>317.297084</ele>
        <time>2021-11-22T07:20:38.724Z</time>
      </trkpt>
      <trkpt lat="47.578068" lon="8.106263">
        <ele>317.516869</ele>
        <time>2021-11-22T07:20:50.237Z</time>
      </trkpt>
      <trkpt lat="47.578187" lon="8.106429">
        <ele>317.570293</ele>
        <time>2021-11-22T07:20:53.441Z</time>
      </trkpt>
      <trkpt lat="47.578335" lon="8.106654">
        <ele>317.923990</ele>
        <time>2021-11-22T07:20:57.598Z</time>
      </trkpt>
      <trkpt lat="47.579759" lon="8.109482">
        <ele>322.177401</ele>
        <time>2021-11-22T07:21:51.056Z</time>
      </trkpt>
      <trkpt lat="47.579823" lon="8.109617">
        <ele>322.388878</ele>
        <time>2021-11-22T07:21:53.870Z</time>
      </trkpt>
      <trkpt lat="47.579991" lon="8.109948">
        <ele>322.919771</ele>
        <time>2021-11-22T07:21:59.845Z</time>
      </trkpt>
      <trkpt lat="47.580212" lon="8.110399">
        <ele>323.634202</ele>
        <time>2021-11-22T07:22:08.026Z</time>
      </trkpt>
      <trkpt lat="47.580364" lon="8.110708">
        <ele>324.130413</ele>
        <time>2021-11-22T07:22:13.838Z</time>
      </trkpt>
      <trkpt lat="47.580670" lon="8.111332">
        <ele>325.419089</ele>
        <time>2021-11-22T07:22:25.724Z</time>
      </trkpt>
      <trkpt lat="47.581045" lon="8.112180">
        <ele>327.112858</ele>
        <time>2021-11-22T07:22:42.024Z</time>
      </trkpt>
      <trkpt lat="47.581182" lon="8.112552">
        <ele>327.820829</ele>
        <time>2021-11-22T07:22:49.465Z</time>
      </trkpt>
      <trkpt lat="47.581277" lon="8.112870">
        <ele>328.401780</ele>
        <time>2021-11-22T07:22:55.896Z</time>
      </trkpt>
      <trkpt lat="47.581391" lon="8.113276">
        <ele>329.320666</ele>
        <time>2021-11-22T07:23:04.829Z</time>
      </trkpt>
      <trkpt lat="47.581427" lon="8.113428">
        <ele>329.675563</ele>
        <time>2021-11-22T07:23:07.940Z</time>
      </trkpt>
      <trkpt lat="47.581503" lon="8.113781">
        <ele>330.491873</ele>
        <time>2021-11-22T07:23:15.396Z</time>
      </trkpt>
      <trkpt lat="47.581610" lon="8.114392">
        <ele>331.882526</ele>
        <time>2021-11-22T07:23:27.718Z</time>
      </trkpt>
      <trkpt lat="47.581698" lon="8.115075">
        <ele>333.414371</ele>
        <time>2021-11-22T07:23:40.758Z</time>
      </trkpt>
      <trkpt lat="47.581747" lon="8.115421">
        <ele>334.193223</ele>
        <time>2021-11-22T07:23:47.229Z</time>
      </trkpt>
      <trkpt lat="47.581851" lon="8.116146">
        <ele>335.417916</ele>
        <time>2021-11-22T07:23:59.891Z</time>
      </trkpt>
      <trkpt lat="47.582058" lon="8.118074">
        <ele>338.458917</ele>
        <time>2021-11-22T07:24:28.883Z</time>
      </trkpt>
      <trkpt lat="47.581997" lon="8.119489">
        <ele>341.991565</ele>
        <time>2021-11-22T07:24:56.098Z</time>
      </trkpt>
      <trkpt lat="47.581925" lon="8.120891">
        <ele>345.449218</ele>
        <time>2021-11-22T07:25:28.449Z</time>
      </trkpt>
      <trkpt lat="47.581872" lon="8.121939">
        <ele>346.383150</ele>
        <time>2021-11-22T07:25:49.057Z</time>
      </trkpt>
      <trkpt lat="47.581853" lon="8.122293">
        <ele>346.698732</ele>
        <time>2021-11-22T07:25:54.800Z</time>
      </trkpt>
      <trkpt lat="47.581616" lon="8.126107">
        <ele>344.418571</ele>
        <time>2021-11-22T07:26:24.409Z</time>
      </trkpt>
      <trkpt lat="47.581682" lon="8.126961">
        <ele>343.173096</ele>
        <time>2021-11-22T07:26:30.004Z</time>
      </trkpt>
      <trkpt lat="47.581995" lon="8.128036">
        <ele>341.471060</ele>
        <time>2021-11-22T07:26:38.341Z</time>
      </trkpt>
      <trkpt lat="47.582054" lon="8.128175">
        <ele>341.232327</ele>
        <time>2021-11-22T07:26:39.530Z</time>
      </trkpt>
      <trkpt lat="47.582271" lon="8.128732">
        <ele>340.650541</ele>
        <time>2021-11-22T07:26:45.536Z</time>
      </trkpt>
      <trkpt lat="47.582333" lon="8.128926">
        <ele>340.842521</ele>
        <time>2021-11-22T07:26:48.182Z</time>
      </trkpt>
      <trkpt lat="47.582383" lon="8.129121">
        <ele>341.029082</ele>
        <time>2021-11-22T07:26:50.135Z</time>
      </trkpt>
      <trkpt lat="47.582452" lon="8.129518">
        <ele>341.395711</ele>
        <time>2021-11-22T07:26:55.672Z</time>
      </trkpt>
      <trkpt lat="47.582476" lon="8.129918">
        <ele>341.754839</ele>
        <time>2021-11-22T07:27:01.176Z</time>
      </trkpt>
      <trkpt lat="47.582502" lon="8.130347">
        <ele>342.140034</ele>
        <time>2021-11-22T07:27:07.644Z</time>
      </trkpt>
      <trkpt lat="47.582401" lon="8.132729">
        <ele>343.046221</ele>
        <time>2021-11-22T07:27:47.161Z</time>
      </trkpt>
      <trkpt lat="47.582405" lon="8.133220">
        <ele>343.092756</ele>
        <time>2021-11-22T07:27:51.048Z</time>
      </trkpt>
      <trkpt lat="47.582445" lon="8.133813">
        <ele>343.149234</ele>
        <time>2021-11-22T07:27:55.277Z</time>
      </trkpt>
      <trkpt lat="47.582702" lon="8.135441">
        <ele>337.179710</ele>
        <time>2021-11-22T07:28:05.916Z</time>
      </trkpt>
      <trkpt lat="47.583161" lon="8.137044">
        <ele>330.272727</ele>
        <time>2021-11-22T07:28:16.468Z</time>
      </trkpt>
      <trkpt lat="47.583437" lon="8.137880">
        <ele>326.171417</ele>
        <time>2021-11-22T07:28:22.184Z</time>
      </trkpt>
      <trkpt lat="47.583514" lon="8.138100">
        <ele>325.079282</ele>
        <time>2021-11-22T07:28:23.750Z</time>
      </trkpt>
      <trkpt lat="47.583879" lon="8.139148">
        <ele>320.178812</ele>
        <time>2021-11-22T07:28:30.906Z</time>
      </trkpt>
      <trkpt lat="47.584040" lon="8.139585">
        <ele>318.358591</ele>
        <time>2021-11-22T07:28:34.031Z</time>
      </trkpt>
      <trkpt lat="47.584156" lon="8.139467">
        <ele>317.596174</ele>
        <time>2021-11-22T07:28:35.289Z</time>
      </trkpt>
      <trkpt lat="47.584278" lon="8.139277">
        <ele>316.637242</ele>
        <time>2021-11-22T07:28:37.041Z</time>
      </trkpt>
      <trkpt lat="47.584308" lon="8.139232">
        <ele>316.405956</ele>
        <time>2021-11-22T07:28:37.419Z</time>
      </trkpt>
      <trkpt lat="47.584365" lon="8.139157">
        <ele>315.992929</ele>
        <time>2021-11-22T07:28:38.095Z</time>
      </trkpt>
      <trkpt lat="47.584557" lon="8.139005">
        <ele>314.813326</ele>
        <time>2021-11-22T07:28:40.277Z</time>
      </trkpt>
      <trkpt lat="47.584806" lon="8.138964">
        <ele>313.455570</ele>
        <time>2021-11-22T07:28:42.609Z</time>
      </trkpt>
      <trkpt lat="47.585340" lon="8.139503">
        <ele>310.902657</ele>
        <time>2021-11-22T07:28:48.731Z</time>
      </trkpt>
      <trkpt lat="47.585467" lon="8.139649">
        <ele>310.461623</ele>
        <time>2021-11-22T07:28:50.335Z</time>
      </trkpt>
      <trkpt lat="47.585520" lon="8.139610">
        <ele>310.299242</ele>
        <time>2021-11-22T07:28:50.926Z</time>
      </trkpt>
      <trkpt lat="47.586064" lon="8.139426">
        <ele>308.767955</ele>
        <time>2021-11-22T07:28:56.695Z</time>
      </trkpt>
      <trkpt lat="47.586400" lon="8.139320">
        <ele>307.825208</ele>
        <time>2021-11-22T07:29:00.525Z</time>
      </trkpt>
      <trkpt lat="47.586494" lon="8.139309">
        <ele>307.566437</ele>
        <time>2021-11-22T07:29:01.496Z</time>
      </trkpt>
      <trkpt lat="47.588355" lon="8.138811">
        <ele>306.489860</ele>
        <time>2021-11-22T07:29:27.360Z</time>
      </trkpt>
      <trkpt lat="47.588762" lon="8.138925">
        <ele>306.732591</ele>
        <time>2021-11-22T07:29:34.924Z</time>
      </trkpt>
      <trkpt lat="47.588849" lon="8.139014">
        <ele>306.838842</ele>
        <time>2021-11-22T07:29:37.034Z</time>
      </trkpt>
      <trkpt lat="47.588921" lon="8.138996">
        <ele>306.912240</ele>
        <time>2021-11-22T07:29:45.318Z</time>
      </trkpt>
      <trkpt lat="47.588961" lon="8.138999">
        <ele>306.952500</ele>
        <time>2021-11-22T07:29:49.858Z</time>
      </trkpt>
      <trkpt lat="47.588988" lon="8.138979">
        <ele>306.982840</ele>
        <time>2021-11-22T07:29:53.374Z</time>
      </trkpt>
      <trkpt lat="47.589010" lon="8.138950">
        <ele>307.012431</ele>
        <time>2021-11-22T07:29:56.945Z</time>
      </trkpt>
      <trkpt lat="47.589034" lon="8.138899">
        <ele>307.054593</ele>
        <time>2021-11-22T07:30:01.646Z</time>
      </trkpt>
      <trkpt lat="47.589035" lon="8.138792">
        <ele>307.127143</ele>
        <time>2021-11-22T07:30:09.993Z</time>
      </trkpt>
      <trkpt lat="47.589075" lon="8.137452">
        <ele>308.036512</ele>
        <time>2021-11-22T07:30:32.270Z</time>
      </trkpt>
      <trkpt lat="47.589079" lon="8.137358">
        <ele>308.100368</ele>
        <time>2021-11-22T07:30:33.551Z</time>
      </trkpt>
      <trkpt lat="47.589083" lon="8.137251">
        <ele>308.173022</ele>
        <time>2021-11-22T07:30:34.683Z</time>
      </trkpt>
      <trkpt lat="47.589120" lon="8.136200">
        <ele>309.253018</ele>
        <time>2021-11-22T07:30:49.670Z</time>
      </trkpt>
      <trkpt lat="47.589138" lon="8.135853">
        <ele>309.627228</ele>
        <time>2021-11-22T07:30:55.437Z</time>
      </trkpt>
      <trkpt lat="47.589491" lon="8.135869">
        <ele>310.190266</ele>
        <time>2021-11-22T07:31:03.450Z</time>
      </trkpt>
      <trkpt lat="47.589730" lon="8.135855">
        <ele>310.571592</ele>
        <time>2021-11-22T07:31:08.629Z</time>
      </trkpt>
      <trkpt lat="47.589749" lon="8.135792">
        <ele>310.645796</ele>
        <time>2021-11-22T07:31:09.378Z</time>
      </trkpt>
      <trkpt lat="47.589862" lon="8.134673">
        <ele>311.684807</ele>
        <time>2021-11-22T07:31:24.519Z</time>
      </trkpt>
      <trkpt lat="47.589882" lon="8.134609">
        <ele>311.742294</ele>
        <time>2021-11-22T07:31:25.590Z</time>
      </trkpt>
      <trkpt lat="47.589915" lon="8.134585">
        <ele>311.786711</ele>
        <time>2021-11-22T07:31:26.006Z</time>
      </trkpt>
      <trkpt lat="47.590548" lon="8.134710">
        <ele>312.558403</ele>
        <time>2021-11-22T07:31:38.694Z</time>
      </trkpt>
      <trkpt lat="47.590681" lon="8.134711">
        <ele>312.719126</ele>
        <time>2021-11-22T07:31:41.152Z</time>
      </trkpt>
      <trkpt lat="47.590729" lon="8.134772">
        <ele>312.795521</ele>
        <time>2021-11-22T07:31:42.590Z</time>
      </trkpt>
      <trkpt lat="47.591316" lon="8.134958">
        <ele>313.661981</ele>
        <time>2021-11-22T07:31:54.523Z</time>
      </trkpt>
      <trkpt lat="47.591403" lon="8.134907">
        <ele>313.847960</ele>
        <time>2021-11-22T07:31:55.948Z</time>
      </trkpt>
      <trkpt lat="47.591423" lon="8.134826">
        <ele>313.963608</ele>
        <time>2021-11-22T07:31:56.961Z</time>
      </trkpt>
      <trkpt lat="47.591492" lon="8.134487">
        <ele>314.438359</ele>
        <time>2021-11-22T07:32:01.563Z</time>
      </trkpt>
      <trkpt lat="47.591534" lon="8.134213">
        <ele>314.815084</ele>
        <time>2021-11-22T07:32:05.535Z</time>
      </trkpt>
      <trkpt lat="47.591641" lon="8.133972">
        <ele>315.201928</ele>
        <time>2021-11-22T07:32:09.583Z</time>
      </trkpt>
      <trkpt lat="47.592031" lon="8.133513">
        <ele>316.191780</ele>
        <time>2021-11-22T07:32:21.906Z</time>
      </trkpt>
      <trkpt lat="47.592062" lon="8.133399">
        <ele>316.356577</ele>
        <time>2021-11-22T07:32:24.442Z</time>
      </trkpt>
      <trkpt lat="47.592571" lon="8.132886">
        <ele>317.969743</ele>
        <time>2021-11-22T07:32:41.172Z</time>
      </trkpt>
      <trkpt lat="47.592658" lon="8.132770">
        <ele>318.331401</ele>
        <time>2021-11-22T07:32:44.830Z</time>
      </trkpt>
      <trkpt lat="47.592719" lon="8.132686">
        <ele>318.588727</ele>
        <time>2021-11-22T07:32:46.978Z</time>
      </trkpt>
      <trkpt lat="47.592814" lon="8.132534">
        <ele>319.020740</ele>
        <time>2021-11-22T07:32:50.396Z</time>
      </trkpt>
      <trkpt lat="47.592836" lon="8.132464">
        <ele>319.181731</ele>
        <time>2021-11-22T07:32:51.814Z</time>
      </trkpt>
      <trkpt lat="47.592867" lon="8.132225">
        <ele>319.689086</ele>
        <time>2021-11-22T07:32:56.578Z</time>
      </trkpt>
      <trkpt lat="47.592852" lon="8.131926">
        <ele>320.314110</ele>
        <time>2021-11-22T07:33:01.866Z</time>
      </trkpt>
      <trkpt lat="47.592756" lon="8.131619">
        <ele>321.019539</ele>
        <time>2021-11-22T07:33:08.416Z</time>
      </trkpt>
      <trkpt lat="47.592645" lon="8.131446">
        <ele>321.517321</ele>
        <time>2021-11-22T07:33:12.866Z</time>
      </trkpt>
      <trkpt lat="47.592405" lon="8.131115">
        <ele>322.536948</ele>
        <time>2021-11-22T07:33:21.399Z</time>
      </trkpt>
      <trkpt lat="47.592252" lon="8.130776">
        <ele>323.446569</ele>
        <time>2021-11-22T07:33:28.978Z</time>
      </trkpt>
      <trkpt lat="47.592238" lon="8.130462">
        <ele>324.148305</ele>
        <time>2021-11-22T07:33:34.502Z</time>
      </trkpt>
      <trkpt lat="47.592250" lon="8.130375">
        <ele>324.346328</ele>
        <time>2021-11-22T07:33:36.282Z</time>
      </trkpt>
      <trkpt lat="47.592262" lon="8.130337">
        <ele>324.439897</ele>
        <time>2021-11-22T07:33:37.145Z</time>
      </trkpt>
      <trkpt lat="47.592418" lon="8.130083">
        <ele>325.205987</ele>
        <time>2021-11-22T07:33:42.682Z</time>
      </trkpt>
      <trkpt lat="47.592466" lon="8.130020">
        <ele>325.417948</ele>
        <time>2021-11-22T07:33:44.751Z</time>
      </trkpt>
      <trkpt lat="47.592515" lon="8.129957">
        <ele>325.632395</ele>
        <time>2021-11-22T07:33:46.825Z</time>
      </trkpt>
      <trkpt lat="47.592584" lon="8.129875">
        <ele>325.924783</ele>
        <time>2021-11-22T07:33:49.164Z</time>
      </trkpt>
      <trkpt lat="47.592610" lon="8.129906">
        <ele>326.035099</ele>
        <time>2021-11-22T07:33:50.021Z</time>
      </trkpt>
      <trkpt lat="47.592642" lon="8.129925">
        <ele>326.149077</ele>
        <time>2021-11-22T07:33:51.062Z</time>
      </trkpt>
      <trkpt lat="47.592708" lon="8.129916">
        <ele>326.368232</ele>
        <time>2021-11-22T07:33:52.873Z</time>
      </trkpt>
      <trkpt lat="47.592737" lon="8.129890">
        <ele>326.480288</ele>
        <time>2021-11-22T07:33:54.076Z</time>
      </trkpt>
      <trkpt lat="47.592762" lon="8.129848">
        <ele>326.605208</ele>
        <time>2021-11-22T07:33:55.307Z</time>
      </trkpt>
      <trkpt lat="47.592775" lon="8.129797">
        <ele>326.726788</ele>
        <time>2021-11-22T07:33:56.460Z</time>
      </trkpt>
      <trkpt lat="47.592776" lon="8.129742">
        <ele>326.849479</ele>
        <time>2021-11-22T07:33:57.706Z</time>
      </trkpt>
      <trkpt lat="47.592769" lon="8.129700">
        <ele>326.945954</ele>
        <time>2021-11-22T07:33:58.369Z</time>
      </trkpt>
      <trkpt lat="47.592734" lon="8.129633">
        <ele>327.134940</ele>
        <time>2021-11-22T07:33:59.787Z</time>
      </trkpt>
      <trkpt lat="47.592710" lon="8.129612">
        <ele>327.227084</ele>
        <time>2021-11-22T07:34:00.438Z</time>
      </trkpt>
      <trkpt lat="47.592730" lon="8.129513">
        <ele>327.457541</ele>
        <time>2021-11-22T07:34:02.282Z</time>
      </trkpt>
      <trkpt lat="47.592790" lon="8.129276">
        <ele>328.022048</ele>
        <time>2021-11-22T07:34:07.972Z</time>
      </trkpt>
      <trkpt lat="47.592842" lon="8.129002">
        <ele>328.759945</ele>
        <time>2021-11-22T07:34:12.883Z</time>
      </trkpt>
      <trkpt lat="47.592890" lon="8.128474">
        <ele>330.398888</ele>
        <time>2021-11-22T07:34:23.861Z</time>
      </trkpt>
      <trkpt lat="47.592904" lon="8.128153">
        <ele>331.388422</ele>
        <time>2021-11-22T07:34:31.115Z</time>
      </trkpt>
      <trkpt lat="47.592940" lon="8.127847">
        <ele>332.343966</ele>
        <time>2021-11-22T07:34:38.206Z</time>
      </trkpt>
      <trkpt lat="47.593010" lon="8.127451">
        <ele>333.603304</ele>
        <time>2021-11-22T07:34:47.996Z</time>
      </trkpt>
      <trkpt lat="47.593149" lon="8.126960">
        <ele>335.241413</ele>
        <time>2021-11-22T07:35:00.921Z</time>
      </trkpt>
      <trkpt lat="47.593221" lon="8.126726">
        <ele>336.032631</ele>
        <time>2021-11-22T07:35:06.246Z</time>
      </trkpt>
      <trkpt lat="47.593285" lon="8.126540">
        <ele>336.699756</ele>
        <time>2021-11-22T07:35:11.769Z</time>
      </trkpt>
      <trkpt lat="47.593382" lon="8.126293">
        <ele>337.833680</ele>
        <time>2021-11-22T07:35:17.799Z</time>
      </trkpt>
      <trkpt lat="47.593457" lon="8.126120">
        <ele>338.649577</ele>
        <time>2021-11-22T07:35:22.898Z</time>
      </trkpt>
      <trkpt lat="47.593536" lon="8.125950">
        <ele>339.468605</ele>
        <time>2021-11-22T07:35:27.474Z</time>
      </trkpt>
      <trkpt lat="47.593606" lon="8.125816">
        <ele>340.141035</ele>
        <time>2021-11-22T07:35:30.305Z</time>
      </trkpt>
      <trkpt lat="47.593621" lon="8.125790">
        <ele>340.276774</ele>
        <time>2021-11-22T07:35:31.527Z</time>
      </trkpt>
      <trkpt lat="47.593722" lon="8.125617">
        <ele>341.184538</ele>
        <time>2021-11-22T07:35:36.796Z</time>
      </trkpt>
      <trkpt lat="47.594022" lon="8.125313">
        <ele>343.322040</ele>
        <time>2021-11-22T07:35:50.818Z</time>
      </trkpt>
      <trkpt lat="47.594324" lon="8.125162">
        <ele>345.196865</ele>
        <time>2021-11-22T07:36:03.912Z</time>
      </trkpt>
      <trkpt lat="47.594630" lon="8.125174">
        <ele>346.997574</ele>
        <time>2021-11-22T07:36:17.286Z</time>
      </trkpt>
      <trkpt lat="47.595021" lon="8.125427">
        <ele>350.368894</ele>
        <time>2021-11-22T07:36:36.467Z</time>
      </trkpt>
      <trkpt lat="47.595068" lon="8.125478">
        <ele>350.837833</ele>
        <time>2021-11-22T07:36:40.423Z</time>
      </trkpt>
      <trkpt lat="47.595440" lon="8.125887">
        <ele>354.566626</ele>
        <time>2021-11-22T07:37:02.122Z</time>
      </trkpt>
      <trkpt lat="47.595832" lon="8.126161">
        <ele>358.056032</ele>
        <time>2021-11-22T07:37:21.800Z</time>
      </trkpt>
      <trkpt lat="47.596245" lon="8.126326">
        <ele>361.500032</ele>
        <time>2021-11-22T07:37:42.754Z</time>
      </trkpt>
      <trkpt lat="47.596396" lon="8.126327">
        <ele>362.553912</ele>
        <time>2021-11-22T07:37:52.411Z</time>
      </trkpt>
      <trkpt lat="47.596572" lon="8.126294">
        <ele>363.764737</ele>
        <time>2021-11-22T07:37:59.896Z</time>
      </trkpt>
      <trkpt lat="47.596737" lon="8.126261">
        <ele>364.901115</ele>
        <time>2021-11-22T07:38:08.870Z</time>
      </trkpt>
      <trkpt lat="47.596990" lon="8.125976">
        <ele>367.069654</ele>
        <time>2021-11-22T07:38:22.010Z</time>
      </trkpt>
      <trkpt lat="47.597203" lon="8.125755">
        <ele>368.843963</ele>
        <time>2021-11-22T07:38:31.852Z</time>
      </trkpt>
      <trkpt lat="47.597372" lon="8.125534">
        <ele>370.381871</ele>
        <time>2021-11-22T07:38:42.280Z</time>
      </trkpt>
      <trkpt lat="47.597805" lon="8.125249">
        <ele>373.615269</ele>
        <time>2021-11-22T07:38:59.686Z</time>
      </trkpt>
      <trkpt lat="47.598391" lon="8.124142">
        <ele>378.776102</ele>
        <time>2021-11-22T07:39:30.831Z</time>
      </trkpt>
      <trkpt lat="47.598500" lon="8.123509">
        <ele>381.140715</ele>
        <time>2021-11-22T07:39:46.101Z</time>
      </trkpt>
      <trkpt lat="47.598619" lon="8.123313">
        <ele>382.095300</ele>
        <time>2021-11-22T07:39:52.760Z</time>
      </trkpt>
      <trkpt lat="47.598969" lon="8.123240">
        <ele>384.172420</ele>
        <time>2021-11-22T07:40:07.351Z</time>
      </trkpt>
      <trkpt lat="47.599133" lon="8.123121">
        <ele>385.583475</ele>
        <time>2021-11-22T07:40:15.390Z</time>
      </trkpt>
      <trkpt lat="47.599554" lon="8.121948">
        <ele>392.508416</ele>
        <time>2021-11-22T07:40:56.189Z</time>
      </trkpt>
      <trkpt lat="47.599666" lon="8.121843">
        <ele>393.532460</ele>
        <time>2021-11-22T07:41:02.872Z</time>
      </trkpt>
      <trkpt lat="47.599782" lon="8.121814">
        <ele>394.441612</ele>
        <time>2021-11-22T07:41:08.803Z</time>
      </trkpt>
      <trkpt lat="47.599965" lon="8.121910">
        <ele>395.941800</ele>
        <time>2021-11-22T07:41:18.988Z</time>
      </trkpt>
      <trkpt lat="47.600113" lon="8.122232">
        <ele>397.822616</ele>
        <time>2021-11-22T07:41:33.204Z</time>
      </trkpt>
      <trkpt lat="47.600352" lon="8.123023">
        <ele>400.953257</ele>
        <time>2021-11-22T07:41:57.548Z</time>
      </trkpt>
      <trkpt lat="47.600526" lon="8.123291">
        <ele>402.296977</ele>
        <time>2021-11-22T07:42:07.591Z</time>
      </trkpt>
      <trkpt lat="47.600861" lon="8.123386">
        <ele>404.123872</ele>
        <time>2021-11-22T07:42:19.223Z</time>
      </trkpt>
      <trkpt lat="47.601156" lon="8.123343">
        <ele>405.711615</ele>
        <time>2021-11-22T07:42:28.240Z</time>
      </trkpt>
      <trkpt lat="47.601429" lon="8.123093">
        <ele>407.064549</ele>
        <time>2021-11-22T07:42:36.659Z</time>
      </trkpt>
      <trkpt lat="47.601547" lon="8.122801">
        <ele>406.853382</ele>
        <time>2021-11-22T07:42:41.774Z</time>
      </trkpt>
      <trkpt lat="47.601654" lon="8.122431">
        <ele>406.603651</ele>
        <time>2021-11-22T07:42:47.248Z</time>
      </trkpt>
      <trkpt lat="47.601696" lon="8.121784">
        <ele>406.200460</ele>
        <time>2021-11-22T07:42:51.977Z</time>
      </trkpt>
      <trkpt lat="47.601617" lon="8.121097">
        <ele>405.768159</ele>
        <time>2021-11-22T07:42:56.737Z</time>
      </trkpt>
      <trkpt lat="47.601430" lon="8.120710">
        <ele>405.472824</ele>
        <time>2021-11-22T07:43:00.025Z</time>
      </trkpt>
      <trkpt lat="47.601109" lon="8.120324">
        <ele>405.268040</ele>
        <time>2021-11-22T07:43:04.848Z</time>
      </trkpt>
      <trkpt lat="47.601014" lon="8.120104">
        <ele>405.182631</ele>
        <time>2021-11-22T07:43:06.655Z</time>
      </trkpt>
      <trkpt lat="47.601015" lon="8.119536">
        <ele>404.996934</ele>
        <time>2021-11-22T07:43:11.158Z</time>
      </trkpt>
      <trkpt lat="47.601146" lon="8.118886">
        <ele>404.775141</ele>
        <time>2021-11-22T07:43:17.034Z</time>
      </trkpt>
      <trkpt lat="47.601754" lon="8.117487">
        <ele>408.377929</ele>
        <time>2021-11-22T07:43:45.902Z</time>
      </trkpt>
      <trkpt lat="47.602008" lon="8.116660">
        <ele>411.499187</ele>
        <time>2021-11-22T07:44:11.436Z</time>
      </trkpt>
      <trkpt lat="47.602040" lon="8.116422">
        <ele>412.332727</ele>
        <time>2021-11-22T07:44:20.465Z</time>
      </trkpt>
      <trkpt lat="47.602070" lon="8.116218">
        <ele>413.049867</ele>
        <time>2021-11-22T07:44:25.492Z</time>
      </trkpt>
      <trkpt lat="47.602160" lon="8.115597">
        <ele>415.506547</ele>
        <time>2021-11-22T07:44:43.615Z</time>
      </trkpt>
      <trkpt lat="47.602190" lon="8.115387">
        <ele>416.381032</ele>
        <time>2021-11-22T07:44:51.731Z</time>
      </trkpt>
      <trkpt lat="47.602299" lon="8.115102">
        <ele>417.715824</ele>
        <time>2021-11-22T07:44:59.460Z</time>
      </trkpt>
      <trkpt lat="47.602486" lon="8.114839">
        <ele>419.272858</ele>
        <time>2021-11-22T07:45:11.176Z</time>
      </trkpt>
      <trkpt lat="47.603292" lon="8.114537">
        <ele>424.295496</ele>
        <time>2021-11-22T07:45:41.256Z</time>
      </trkpt>
      <trkpt lat="47.603491" lon="8.114397">
        <ele>425.274198</ele>
        <time>2021-11-22T07:45:48.960Z</time>
      </trkpt>
      <trkpt lat="47.603875" lon="8.113901">
        <ele>427.274093</ele>
        <time>2021-11-22T07:46:02.114Z</time>
      </trkpt>
      <trkpt lat="47.604126" lon="8.113234">
        <ele>429.296820</ele>
        <time>2021-11-22T07:46:15.680Z</time>
      </trkpt>
      <trkpt lat="47.604115" lon="8.112594">
        <ele>430.992125</ele>
        <time>2021-11-22T07:46:29.179Z</time>
      </trkpt>
      <trkpt lat="47.604174" lon="8.112238">
        <ele>432.144895</ele>
        <time>2021-11-22T07:46:37.491Z</time>
      </trkpt>
      <trkpt lat="47.604293" lon="8.111846">
        <ele>434.027095</ele>
        <time>2021-11-22T07:46:48.666Z</time>
      </trkpt>
      <trkpt lat="47.604385" lon="8.111694">
        <ele>434.921392</ele>
        <time>2021-11-22T07:46:53.500Z</time>
      </trkpt>
      <trkpt lat="47.604629" lon="8.111584">
        <ele>436.577385</ele>
        <time>2021-11-22T07:47:03.774Z</time>
      </trkpt>
      <trkpt lat="47.604886" lon="8.111678">
        <ele>438.296213</ele>
        <time>2021-11-22T07:47:16.419Z</time>
      </trkpt>
      <trkpt lat="47.605059" lon="8.111643">
        <ele>439.429992</ele>
        <time>2021-11-22T07:47:22.982Z</time>
      </trkpt>
      <trkpt lat="47.605201" lon="8.111544">
        <ele>440.448862</ele>
        <time>2021-11-22T07:47:31.228Z</time>
      </trkpt>
      <trkpt lat="47.605337" lon="8.111450">
        <ele>441.423164</ele>
        <time>2021-11-22T07:47:36.724Z</time>
      </trkpt>
      <trkpt lat="47.606083" lon="8.110932">
        <ele>446.610380</ele>
        <time>2021-11-22T07:48:12.597Z</time>
      </trkpt>
      <trkpt lat="47.606243" lon="8.110732">
        <ele>447.904711</ele>
        <time>2021-11-22T07:48:21.985Z</time>
      </trkpt>
      <trkpt lat="47.606569" lon="8.110278">
        <ele>450.670858</ele>
        <time>2021-11-22T07:48:37.281Z</time>
      </trkpt>
      <trkpt lat="47.606704" lon="8.110161">
        <ele>451.638044</ele>
        <time>2021-11-22T07:48:42.037Z</time>
      </trkpt>
      <trkpt lat="47.607088" lon="8.110090">
        <ele>454.031757</ele>
        <time>2021-11-22T07:48:56.963Z</time>
      </trkpt>
      <trkpt lat="47.607173" lon="8.110024">
        <ele>454.672238</ele>
        <time>2021-11-22T07:49:01.017Z</time>
      </trkpt>
      <trkpt lat="47.607583" lon="8.109381">
        <ele>459.644018</ele>
        <time>2021-11-22T07:49:25.864Z</time>
      </trkpt>
      <trkpt lat="47.607629" lon="8.109302">
        <ele>460.230417</ele>
        <time>2021-11-22T07:49:28.519Z</time>
      </trkpt>
      <trkpt lat="47.607769" lon="8.109056">
        <ele>462.038883</ele>
        <time>2021-11-22T07:49:40.411Z</time>
      </trkpt>
      <trkpt lat="47.607835" lon="8.108941">
        <ele>462.887282</ele>
        <time>2021-11-22T07:49:45.393Z</time>
      </trkpt>
      <trkpt lat="47.608075" lon="8.109148">
        <ele>465.200556</ele>
        <time>2021-11-22T07:50:03.139Z</time>
      </trkpt>
      <trkpt lat="47.608812" lon="8.109891">
        <ele>472.000353</ele>
        <time>2021-11-22T07:50:53.737Z</time>
      </trkpt>
      <trkpt lat="47.609002" lon="8.110079">
        <ele>473.525532</ele>
        <time>2021-11-22T07:51:07.247Z</time>
      </trkpt>
      <trkpt lat="47.609208" lon="8.110195">
        <ele>474.996950</ele>
        <time>2021-11-22T07:51:19.753Z</time>
      </trkpt>
      <trkpt lat="47.609846" lon="8.110551">
        <ele>479.548863</ele>
        <time>2021-11-22T07:51:49.041Z</time>
      </trkpt>
      <trkpt lat="47.610137" lon="8.110586">
        <ele>481.490454</ele>
        <time>2021-11-22T07:51:59.365Z</time>
      </trkpt>
      <trkpt lat="47.610420" lon="8.110619">
        <ele>481.991299</ele>
        <time>2021-11-22T07:52:08.491Z</time>
      </trkpt>
      <trkpt lat="47.610839" lon="8.110598">
        <ele>482.730973</ele>
        <time>2021-11-22T07:52:16.989Z</time>
      </trkpt>
      <trkpt lat="47.611124" lon="8.110305">
        <ele>483.342771</ele>
        <time>2021-11-22T07:52:24.355Z</time>
      </trkpt>
      <trkpt lat="47.611166" lon="8.110243">
        <ele>483.447315</ele>
        <time>2021-11-22T07:52:25.167Z</time>
      </trkpt>
      <trkpt lat="47.611132" lon="8.110103">
        <ele>483.624311</ele>
        <time>2021-11-22T07:52:28.261Z</time>
      </trkpt>
      <trkpt lat="47.611123" lon="8.109613">
        <ele>484.207351</ele>
        <time>2021-11-22T07:52:36.781Z</time>
      </trkpt>
      <trkpt lat="47.611256" lon="8.108780">
        <ele>486.464505</ele>
        <time>2021-11-22T07:52:55.115Z</time>
      </trkpt>
      <trkpt lat="47.611310" lon="8.108499">
        <ele>487.574704</ele>
        <time>2021-11-22T07:53:02.326Z</time>
      </trkpt>
      <trkpt lat="47.611380" lon="8.108034">
        <ele>489.384999</ele>
        <time>2021-11-22T07:53:15.001Z</time>
      </trkpt>
      <trkpt lat="47.611462" lon="8.107501">
        <ele>491.462210</ele>
        <time>2021-11-22T07:53:31.928Z</time>
      </trkpt>
      <trkpt lat="47.611989" lon="8.104159">
        <ele>508.639848</ele>
        <time>2021-11-22T07:55:33.460Z</time>
      </trkpt>
      <trkpt lat="47.612033" lon="8.103872">
        <ele>510.139730</ele>
        <time>2021-11-22T07:55:44.616Z</time>
      </trkpt>
      <trkpt lat="47.612046" lon="8.103820">
        <ele>510.411059</ele>
        <time>2021-11-22T07:55:47.244Z</time>
      </trkpt>
      <trkpt lat="47.612753" lon="8.102988">
        <ele>516.960266</ele>
        <time>2021-11-22T07:56:31.245Z</time>
      </trkpt>
      <trkpt lat="47.612858" lon="8.102913">
        <ele>517.805992</ele>
        <time>2021-11-22T07:56:38.272Z</time>
      </trkpt>
      <trkpt lat="47.613164" lon="8.102691">
        <ele>520.278002</ele>
        <time>2021-11-22T07:56:54.765Z</time>
      </trkpt>
      <trkpt lat="47.613534" lon="8.102428">
        <ele>522.949442</ele>
        <time>2021-11-22T07:57:13.124Z</time>
      </trkpt>
      <trkpt lat="47.613926" lon="8.102132">
        <ele>525.109216</ele>
        <time>2021-11-22T07:57:31.192Z</time>
      </trkpt>
      <trkpt lat="47.614039" lon="8.102047">
        <ele>525.731314</ele>
        <time>2021-11-22T07:57:35.735Z</time>
      </trkpt>
      <trkpt lat="47.614082" lon="8.102011">
        <ele>525.973753</ele>
        <time>2021-11-22T07:57:38.058Z</time>
      </trkpt>
      <trkpt lat="47.614152" lon="8.101898">
        <ele>526.481721</ele>
        <time>2021-11-22T07:57:43.347Z</time>
      </trkpt>
      <trkpt lat="47.614426" lon="8.101285">
        <ele>528.916249</ele>
        <time>2021-11-22T07:58:02.114Z</time>
      </trkpt>
      <trkpt lat="47.614608" lon="8.100926">
        <ele>530.403055</ele>
        <time>2021-11-22T07:58:13.348Z</time>
      </trkpt>
      <trkpt lat="47.614823" lon="8.100584">
        <ele>531.679511</ele>
        <time>2021-11-22T07:58:24.604Z</time>
      </trkpt>
      <trkpt lat="47.615215" lon="8.100058">
        <ele>533.405440</ele>
        <time>2021-11-22T07:58:41.434Z</time>
      </trkpt>
      <trkpt lat="47.615144" lon="8.099935">
        <ele>533.761875</ele>
        <time>2021-11-22T07:58:44.849Z</time>
      </trkpt>
      <trkpt lat="47.614941" lon="8.099382">
        <ele>535.147877</ele>
        <time>2021-11-22T07:58:57.386Z</time>
      </trkpt>
      <trkpt lat="47.614745" lon="8.098653">
        <ele>536.875426</ele>
        <time>2021-11-22T07:59:15.634Z</time>
      </trkpt>
      <trkpt lat="47.614741" lon="8.097972">
        <ele>538.868970</ele>
        <time>2021-11-22T07:59:32.499Z</time>
      </trkpt>
      <trkpt lat="47.614825" lon="8.097393">
        <ele>540.646379</ele>
        <time>2021-11-22T07:59:47.078Z</time>
      </trkpt>
      <trkpt lat="47.614925" lon="8.097205">
        <ele>541.365070</ele>
        <time>2021-11-22T07:59:52.323Z</time>
      </trkpt>
      <trkpt lat="47.615138" lon="8.097211">
        <ele>542.313495</ele>
        <time>2021-11-22T08:00:01.437Z</time>
      </trkpt>
      <trkpt lat="47.615959" lon="8.097190">
        <ele>546.142823</ele>
        <time>2021-11-22T08:00:34.643Z</time>
      </trkpt>
      <trkpt lat="47.617165" lon="8.096880">
        <ele>552.590742</ele>
        <time>2021-11-22T08:01:27.192Z</time>
      </trkpt>
      <trkpt lat="47.617195" lon="8.096614">
        <ele>553.548460</ele>
        <time>2021-11-22T08:01:33.924Z</time>
      </trkpt>
      <trkpt lat="47.617226" lon="8.096351">
        <ele>554.496523</ele>
        <time>2021-11-22T08:01:39.178Z</time>
      </trkpt>
      <trkpt lat="47.617257" lon="8.096260">
        <ele>554.737339</ele>
        <time>2021-11-22T08:01:41.509Z</time>
      </trkpt>
      <trkpt lat="47.617288" lon="8.096168">
        <ele>554.980265</ele>
        <time>2021-11-22T08:01:44.400Z</time>
      </trkpt>
      <trkpt lat="47.617480" lon="8.095855">
        <ele>555.979802</ele>
        <time>2021-11-22T08:01:52.753Z</time>
      </trkpt>
      <trkpt lat="47.617920" lon="8.095173">
        <ele>558.209456</ele>
        <time>2021-11-22T08:02:11.513Z</time>
      </trkpt>
      <trkpt lat="47.618698" lon="8.093965">
        <ele>561.251404</ele>
        <time>2021-11-22T08:02:40.754Z</time>
      </trkpt>
      <trkpt lat="47.618954" lon="8.093555">
        <ele>561.691914</ele>
        <time>2021-11-22T08:02:49.763Z</time>
      </trkpt>
      <trkpt lat="47.619102" lon="8.093319">
        <ele>561.945988</ele>
        <time>2021-11-22T08:02:54.564Z</time>
      </trkpt>
      <trkpt lat="47.619464" lon="8.092810">
        <ele>562.529209</ele>
        <time>2021-11-22T08:03:03.212Z</time>
      </trkpt>
      <trkpt lat="47.619712" lon="8.092618">
        <ele>562.856320</ele>
        <time>2021-11-22T08:03:07.074Z</time>
      </trkpt>
      <trkpt lat="47.620014" lon="8.092731">
        <ele>561.599991</ele>
        <time>2021-11-22T08:03:10.814Z</time>
      </trkpt>
      <trkpt lat="47.620191" lon="8.092797">
        <ele>560.728296</ele>
        <time>2021-11-22T08:03:12.733Z</time>
      </trkpt>
      <trkpt lat="47.620663" lon="8.093010">
        <ele>558.371910</ele>
        <time>2021-11-22T08:03:17.626Z</time>
      </trkpt>
      <trkpt lat="47.621156" lon="8.092288">
        <ele>555.063226</ele>
        <time>2021-11-22T08:03:23.883Z</time>
      </trkpt>
      <trkpt lat="47.621541" lon="8.091890">
        <ele>551.809496</ele>
        <time>2021-11-22T08:03:27.970Z</time>
      </trkpt>
      <trkpt lat="47.621919" lon="8.091753">
        <ele>548.687214</ele>
        <time>2021-11-22T08:03:31.342Z</time>
      </trkpt>
      <trkpt lat="47.622311" lon="8.091144">
        <ele>544.132869</ele>
        <time>2021-11-22T08:03:36.296Z</time>
      </trkpt>
      <trkpt lat="47.622672" lon="8.090784">
        <ele>540.642663</ele>
        <time>2021-11-22T08:03:40.155Z</time>
      </trkpt>
      <trkpt lat="47.622984" lon="8.090174">
        <ele>538.501317</ele>
        <time>2021-11-22T08:03:44.918Z</time>
      </trkpt>
      <trkpt lat="47.623102" lon="8.090180">
        <ele>538.114971</ele>
        <time>2021-11-22T08:03:46.073Z</time>
      </trkpt>
      <trkpt lat="47.623875" lon="8.090680">
        <ele>535.355637</ele>
        <time>2021-11-22T08:03:55.593Z</time>
      </trkpt>
      <trkpt lat="47.623901" lon="8.090859">
        <ele>534.951799</ele>
        <time>2021-11-22T08:03:57.379Z</time>
      </trkpt>
      <trkpt lat="47.623761" lon="8.091574">
        <ele>532.806724</ele>
        <time>2021-11-22T08:04:03.257Z</time>
      </trkpt>
      <trkpt lat="47.624013" lon="8.093106">
        <ele>526.768918</ele>
        <time>2021-11-22T08:04:13.104Z</time>
      </trkpt>
      <trkpt lat="47.624093" lon="8.093346">
        <ele>525.743784</ele>
        <time>2021-11-22T08:04:14.723Z</time>
      </trkpt>
      <trkpt lat="47.624296" lon="8.093914">
        <ele>522.836330</ele>
        <time>2021-11-22T08:04:18.506Z</time>
      </trkpt>
      <trkpt lat="47.624392" lon="8.094169">
        <ele>520.707180</ele>
        <time>2021-11-22T08:04:20.275Z</time>
      </trkpt>
      <trkpt lat="47.624502" lon="8.094318">
        <ele>519.096252</ele>
        <time>2021-11-22T08:04:21.537Z</time>
      </trkpt>
      <trkpt lat="47.624585" lon="8.094303">
        <ele>518.191931</ele>
        <time>2021-11-22T08:04:22.257Z</time>
      </trkpt>
      <trkpt lat="47.624675" lon="8.094143">
        <ele>516.672790</ele>
        <time>2021-11-22T08:04:23.527Z</time>
      </trkpt>
      <trkpt lat="47.624666" lon="8.093965">
        <ele>515.371617</ele>
        <time>2021-11-22T08:04:24.540Z</time>
      </trkpt>
      <trkpt lat="47.624527" lon="8.093362">
        <ele>510.726081</ele>
        <time>2021-11-22T08:04:28.137Z</time>
      </trkpt>
      <trkpt lat="47.624489" lon="8.093062">
        <ele>508.500947</ele>
        <time>2021-11-22T08:04:29.877Z</time>
      </trkpt>
      <trkpt lat="47.624479" lon="8.092985">
        <ele>507.929330</ele>
        <time>2021-11-22T08:04:30.318Z</time>
      </trkpt>
      <trkpt lat="47.624472" lon="8.092160">
        <ele>502.033491</ele>
        <time>2021-11-22T08:04:35.018Z</time>
      </trkpt>
      <trkpt lat="47.624542" lon="8.091883">
        <ele>499.983164</ele>
        <time>2021-11-22T08:04:36.874Z</time>
      </trkpt>
      <trkpt lat="47.624603" lon="8.091835">
        <ele>499.273131</ele>
        <time>2021-11-22T08:04:37.467Z</time>
      </trkpt>
      <trkpt lat="47.624688" lon="8.091810">
        <ele>498.382050</ele>
        <time>2021-11-22T08:04:38.180Z</time>
      </trkpt>
      <trkpt lat="47.624819" lon="8.091982">
        <ele>496.583233</ele>
        <time>2021-11-22T08:04:39.716Z</time>
      </trkpt>
      <trkpt lat="47.624886" lon="8.092492">
        <ele>492.982055</ele>
        <time>2021-11-22T08:04:42.700Z</time>
      </trkpt>
      <trkpt lat="47.625091" lon="8.093056">
        <ele>488.540948</ele>
        <time>2021-11-22T08:04:46.387Z</time>
      </trkpt>
      <trkpt lat="47.625218" lon="8.093608">
        <ele>485.522851</ele>
        <time>2021-11-22T08:04:49.785Z</time>
      </trkpt>
      <trkpt lat="47.625279" lon="8.093598">
        <ele>485.378553</ele>
        <time>2021-11-22T08:04:50.313Z</time>
      </trkpt>
      <trkpt lat="47.625322" lon="8.093542">
        <ele>485.244029</ele>
        <time>2021-11-22T08:04:50.778Z</time>
      </trkpt>
      <trkpt lat="47.625338" lon="8.093567">
        <ele>485.189396</ele>
        <time>2021-11-22T08:04:51.006Z</time>
      </trkpt>
      <trkpt lat="47.625520" lon="8.093792">
        <ele>484.632399</ele>
        <time>2021-11-22T08:04:53.310Z</time>
      </trkpt>
      <trkpt lat="47.625589" lon="8.093866">
        <ele>484.432222</ele>
        <time>2021-11-22T08:04:54.089Z</time>
      </trkpt>
      <trkpt lat="47.625673" lon="8.093925">
        <ele>484.213707</ele>
        <time>2021-11-22T08:04:55.075Z</time>
      </trkpt>
      <trkpt lat="47.625760" lon="8.093961">
        <ele>484.001344</ele>
        <time>2021-11-22T08:04:56.021Z</time>
      </trkpt>
      <trkpt lat="47.625860" lon="8.093953">
        <ele>483.765881</ele>
        <time>2021-11-22T08:04:57.123Z</time>
      </trkpt>
      <trkpt lat="47.626082" lon="8.093861">
        <ele>483.223932</ele>
        <time>2021-11-22T08:04:59.804Z</time>
      </trkpt>
      <trkpt lat="47.626139" lon="8.093826">
        <ele>483.078889</ele>
        <time>2021-11-22T08:05:00.387Z</time>
      </trkpt>
      <trkpt lat="47.626200" lon="8.093778">
        <ele>482.916543</ele>
        <time>2021-11-22T08:05:02.349Z</time>
      </trkpt>
      <trkpt lat="47.626530" lon="8.093454">
        <ele>481.986151</ele>
        <time>2021-11-22T08:05:10.041Z</time>
      </trkpt>
      <trkpt lat="47.626873" lon="8.093236">
        <ele>483.088059</ele>
        <time>2021-11-22T08:05:20.632Z</time>
      </trkpt>
      <trkpt lat="47.627429" lon="8.093172">
        <ele>487.087488</ele>
        <time>2021-11-22T08:05:45.148Z</time>
      </trkpt>
      <trkpt lat="47.627959" lon="8.092829">
        <ele>491.234279</ele>
        <time>2021-11-22T08:06:15.137Z</time>
      </trkpt>
      <trkpt lat="47.628423" lon="8.092902">
        <ele>494.585134</ele>
        <time>2021-11-22T08:06:38.810Z</time>
      </trkpt>
      <trkpt lat="47.629495" lon="8.092830">
        <ele>502.698610</ele>
        <time>2021-11-22T08:07:25.944Z</time>
      </trkpt>
      <trkpt lat="47.630211" lon="8.093115">
        <ele>508.286952</ele>
        <time>2021-11-22T08:07:59.150Z</time>
      </trkpt>
      <trkpt lat="47.630329" lon="8.093243">
        <ele>509.303828</ele>
        <time>2021-11-22T08:08:06.197Z</time>
      </trkpt>
      <trkpt lat="47.630499" lon="8.093559">
        <ele>511.199511</ele>
        <time>2021-11-22T08:08:18.157Z</time>
      </trkpt>
      <trkpt lat="47.630646" lon="8.094290">
        <ele>514.776009</ele>
        <time>2021-11-22T08:08:39.442Z</time>
      </trkpt>
      <trkpt lat="47.630677" lon="8.094482">
        <ele>515.701641</ele>
        <time>2021-11-22T08:08:45.511Z</time>
      </trkpt>
      <trkpt lat="47.630731" lon="8.094698">
        <ele>516.781754</ele>
        <time>2021-11-22T08:08:52.392Z</time>
      </trkpt>
      <trkpt lat="47.630873" lon="8.095097">
        <ele>518.897219</ele>
        <time>2021-11-22T08:09:04.684Z</time>
      </trkpt>
      <trkpt lat="47.631056" lon="8.095384">
        <ele>520.715743</ele>
        <time>2021-11-22T08:09:15.822Z</time>
      </trkpt>
      <trkpt lat="47.632010" lon="8.096126">
        <ele>526.405127</ele>
        <time>2021-11-22T08:09:59.366Z</time>
      </trkpt>
      <trkpt lat="47.632068" lon="8.096192">
        <ele>526.791199</ele>
        <time>2021-11-22T08:10:00.253Z</time>
      </trkpt>
      <trkpt lat="47.632086" lon="8.096239">
        <ele>526.983628</ele>
        <time>2021-11-22T08:10:03.317Z</time>
      </trkpt>
      <trkpt lat="47.632095" lon="8.096364">
        <ele>527.431106</ele>
        <time>2021-11-22T08:10:05.522Z</time>
      </trkpt>
      <trkpt lat="47.631934" lon="8.096883">
        <ele>529.464864</ele>
        <time>2021-11-22T08:10:16.319Z</time>
      </trkpt>
      <trkpt lat="47.631899" lon="8.097234">
        <ele>530.656563</ele>
        <time>2021-11-22T08:10:22.629Z</time>
      </trkpt>
      <trkpt lat="47.631937" lon="8.097425">
        <ele>531.283681</ele>
        <time>2021-11-22T08:10:26.531Z</time>
      </trkpt>
      <trkpt lat="47.632171" lon="8.097816">
        <ele>532.930368</ele>
        <time>2021-11-22T08:10:36.861Z</time>
      </trkpt>
      <trkpt lat="47.632359" lon="8.097972">
        <ele>533.936877</ele>
        <time>2021-11-22T08:10:42.236Z</time>
      </trkpt>
      <trkpt lat="47.632615" lon="8.098012">
        <ele>535.139733</ele>
        <time>2021-11-22T08:10:53.594Z</time>
      </trkpt>
      <trkpt lat="47.633360" lon="8.097643">
        <ele>538.742594</ele>
        <time>2021-11-22T08:11:22.106Z</time>
      </trkpt>
      <trkpt lat="47.633436" lon="8.097655">
        <ele>539.018505</ele>
        <time>2021-11-22T08:11:24.804Z</time>
      </trkpt>
      <trkpt lat="47.633500" lon="8.097684">
        <ele>539.260078</ele>
        <time>2021-11-22T08:11:28.753Z</time>
      </trkpt>
      <trkpt lat="47.633605" lon="8.097777">
        <ele>539.701514</ele>
        <time>2021-11-22T08:11:31.922Z</time>
      </trkpt>
      <trkpt lat="47.633714" lon="8.097902">
        <ele>540.198812</ele>
        <time>2021-11-22T08:11:36.090Z</time>
      </trkpt>
      <trkpt lat="47.633806" lon="8.097984">
        <ele>540.586237</ele>
        <time>2021-11-22T08:11:41.628Z</time>
      </trkpt>
      <trkpt lat="47.634034" lon="8.098069">
        <ele>541.434900</ele>
        <time>2021-11-22T08:11:47.346Z</time>
      </trkpt>
      <trkpt lat="47.634397" lon="8.098038">
        <ele>542.747510</ele>
        <time>2021-11-22T08:11:57.976Z</time>
      </trkpt>
      <trkpt lat="47.635203" lon="8.097675">
        <ele>545.159911</ele>
        <time>2021-11-22T08:12:20.173Z</time>
      </trkpt>
      <trkpt lat="47.635509" lon="8.097761">
        <ele>545.379350</ele>
        <time>2021-11-22T08:12:24.167Z</time>
      </trkpt>
      <trkpt lat="47.635629" lon="8.097729">
        <ele>545.465255</ele>
        <time>2021-11-22T08:12:25.643Z</time>
      </trkpt>
      <trkpt lat="47.636089" lon="8.097023">
        <ele>545.931526</ele>
        <time>2021-11-22T08:12:33.767Z</time>
      </trkpt>
      <trkpt lat="47.636257" lon="8.096302">
        <ele>546.442383</ele>
        <time>2021-11-22T08:12:42.793Z</time>
      </trkpt>
      <trkpt lat="47.636636" lon="8.095285">
        <ele>551.338479</ele>
        <time>2021-11-22T08:13:06.721Z</time>
      </trkpt>
      <trkpt lat="47.636730" lon="8.095172">
        <ele>552.094798</ele>
        <time>2021-11-22T08:13:11.823Z</time>
      </trkpt>
      <trkpt lat="47.637637" lon="8.095058">
        <ele>557.851997</ele>
        <time>2021-11-22T08:13:58.492Z</time>
      </trkpt>
      <trkpt lat="47.637980" lon="8.094891">
        <ele>560.671681</ele>
        <time>2021-11-22T08:14:18.547Z</time>
      </trkpt>
      <trkpt lat="47.638349" lon="8.094839">
        <ele>563.566923</ele>
        <time>2021-11-22T08:14:38.982Z</time>
      </trkpt>
      <trkpt lat="47.638733" lon="8.095026">
        <ele>566.723713</ele>
        <time>2021-11-22T08:14:59.199Z</time>
      </trkpt>
      <trkpt lat="47.639129" lon="8.094898">
        <ele>569.889400</ele>
        <time>2021-11-22T08:15:15.586Z</time>
      </trkpt>
      <trkpt lat="47.639645" lon="8.095047">
        <ele>572.442633</ele>
        <time>2021-11-22T08:15:31.781Z</time>
      </trkpt>
      <trkpt lat="47.639814" lon="8.095001">
        <ele>572.925666</ele>
        <time>2021-11-22T08:15:36.556Z</time>
      </trkpt>
      <trkpt lat="47.640078" lon="8.094616">
        <ele>573.966183</ele>
        <time>2021-11-22T08:15:44.978Z</time>
      </trkpt>
      <trkpt lat="47.640521" lon="8.094314">
        <ele>575.336684</ele>
        <time>2021-11-22T08:15:54.464Z</time>
      </trkpt>
      <trkpt lat="47.640767" lon="8.094071">
        <ele>576.167436</ele>
        <time>2021-11-22T08:16:00.467Z</time>
      </trkpt>
      <trkpt lat="47.641482" lon="8.092875">
        <ele>580.059068</ele>
        <time>2021-11-22T08:16:33.138Z</time>
      </trkpt>
      <trkpt lat="47.641655" lon="8.092892">
        <ele>580.710158</ele>
        <time>2021-11-22T08:16:40.313Z</time>
      </trkpt>
      <trkpt lat="47.641781" lon="8.093062">
        <ele>581.349613</ele>
        <time>2021-11-22T08:16:44.295Z</time>
      </trkpt>
      <trkpt lat="47.641936" lon="8.093474">
        <ele>582.543549</ele>
        <time>2021-11-22T08:16:54.530Z</time>
      </trkpt>
      <trkpt lat="47.642081" lon="8.094052">
        <ele>583.744157</ele>
        <time>2021-11-22T08:17:05.850Z</time>
      </trkpt>
      <trkpt lat="47.642125" lon="8.094161">
        <ele>583.905745</ele>
        <time>2021-11-22T08:17:13.407Z</time>
      </trkpt>
      <trkpt lat="47.642185" lon="8.094252">
        <ele>584.067661</ele>
        <time>2021-11-22T08:17:14.167Z</time>
      </trkpt>
      <trkpt lat="47.642403" lon="8.094365">
        <ele>584.503496</ele>
        <time>2021-11-22T08:17:20.830Z</time>
      </trkpt>
      <trkpt lat="47.642480" lon="8.094347">
        <ele>584.650621</ele>
        <time>2021-11-22T08:17:24.562Z</time>
      </trkpt>
      <trkpt lat="47.642529" lon="8.094270">
        <ele>584.785312</ele>
        <time>2021-11-22T08:17:25.165Z</time>
      </trkpt>
      <trkpt lat="47.642864" lon="8.093535">
        <ele>585.913772</ele>
        <time>2021-11-22T08:17:41.705Z</time>
      </trkpt>
      <trkpt lat="47.642984" lon="8.093385">
        <ele>586.209889</ele>
        <time>2021-11-22T08:17:43.184Z</time>
      </trkpt>
      <trkpt lat="47.643123" lon="8.093302">
        <ele>586.492680</ele>
        <time>2021-11-22T08:17:46.804Z</time>
      </trkpt>
      <trkpt lat="47.643606" lon="8.093280">
        <ele>587.409528</ele>
        <time>2021-11-22T08:17:53.193Z</time>
      </trkpt>
      <trkpt lat="47.644283" lon="8.092755">
        <ele>588.862175</ele>
        <time>2021-11-22T08:18:07.123Z</time>
      </trkpt>
      <trkpt lat="47.644437" lon="8.092775">
        <ele>589.156169</ele>
        <time>2021-11-22T08:18:11.542Z</time>
      </trkpt>
      <trkpt lat="47.644786" lon="8.093254">
        <ele>590.060161</ele>
        <time>2021-11-22T08:18:26.540Z</time>
      </trkpt>
      <trkpt lat="47.645038" lon="8.093429">
        <ele>590.881531</ele>
        <time>2021-11-22T08:18:35.632Z</time>
      </trkpt>
      <trkpt lat="47.646016" lon="8.093840">
        <ele>594.250952</ele>
        <time>2021-11-22T08:19:07.243Z</time>
      </trkpt>
      <trkpt lat="47.646555" lon="8.093925">
        <ele>596.047746</ele>
        <time>2021-11-22T08:19:20.462Z</time>
      </trkpt>
      <trkpt lat="47.646962" lon="8.094131">
        <ele>596.147758</ele>
        <time>2021-11-22T08:19:29.228Z</time>
      </trkpt>
      <trkpt lat="47.648222" lon="8.094056">
        <ele>596.114260</ele>
        <time>2021-11-22T08:19:46.031Z</time>
      </trkpt>
      <trkpt lat="47.648575" lon="8.094152">
        <ele>596.009183</ele>
        <time>2021-11-22T08:19:50.127Z</time>
      </trkpt>
      <trkpt lat="47.648950" lon="8.093866">
        <ele>595.813128</ele>
        <time>2021-11-22T08:19:54.980Z</time>
      </trkpt>
      <trkpt lat="47.649111" lon="8.093866">
        <ele>595.738259</ele>
        <time>2021-11-22T08:19:56.863Z</time>
      </trkpt>
      <trkpt lat="47.649842" lon="8.094105">
        <ele>595.390178</ele>
        <time>2021-11-22T08:20:06.902Z</time>
      </trkpt>
      <trkpt lat="47.650704" lon="8.094009">
        <ele>597.103664</ele>
        <time>2021-11-22T08:20:23.931Z</time>
      </trkpt>
      <trkpt lat="47.651378" lon="8.094111">
        <ele>599.119767</ele>
        <time>2021-11-22T08:20:42.656Z</time>
      </trkpt>
      <trkpt lat="47.651470" lon="8.094287">
        <ele>599.566346</ele>
        <time>2021-11-22T08:20:47.592Z</time>
      </trkpt>
      <trkpt lat="47.651373" lon="8.094857">
        <ele>600.825994</ele>
        <time>2021-11-22T08:21:01.475Z</time>
      </trkpt>
      <trkpt lat="47.651574" lon="8.096425">
        <ele>606.218877</ele>
        <time>2021-11-22T08:21:41.174Z</time>
      </trkpt>
      <trkpt lat="47.651772" lon="8.096715">
        <ele>607.613968</ele>
        <time>2021-11-22T08:21:51.035Z</time>
      </trkpt>
      <trkpt lat="47.651883" lon="8.097127">
        <ele>609.113190</ele>
        <time>2021-11-22T08:22:01.122Z</time>
      </trkpt>
      <trkpt lat="47.652208" lon="8.097413">
        <ele>610.206126</ele>
        <time>2021-11-22T08:22:13.048Z</time>
      </trkpt>
      <trkpt lat="47.652553" lon="8.097946">
        <ele>611.231094</ele>
        <time>2021-11-22T08:22:27.082Z</time>
      </trkpt>
      <trkpt lat="47.652631" lon="8.098222">
        <ele>611.646116</ele>
        <time>2021-11-22T08:22:32.275Z</time>
      </trkpt>
      <trkpt lat="47.652811" lon="8.099452">
        <ele>613.304871</ele>
        <time>2021-11-22T08:22:47.037Z</time>
      </trkpt>
      <trkpt lat="47.652825" lon="8.099832">
        <ele>612.723291</ele>
        <time>2021-11-22T08:22:50.301Z</time>
      </trkpt>
      <trkpt lat="47.653164" lon="8.100285">
        <ele>611.688550</ele>
        <time>2021-11-22T08:22:55.457Z</time>
      </trkpt>
      <trkpt lat="47.653669" lon="8.100671">
        <ele>610.399957</ele>
        <time>2021-11-22T08:23:01.357Z</time>
      </trkpt>
      <trkpt lat="47.654384" lon="8.100870">
        <ele>608.867909</ele>
        <time>2021-11-22T08:23:08.471Z</time>
      </trkpt>
      <trkpt lat="47.654772" lon="8.100734">
        <ele>608.169121</ele>
        <time>2021-11-22T08:23:12.421Z</time>
      </trkpt>
      <trkpt lat="47.655073" lon="8.100748">
        <ele>607.641267</ele>
        <time>2021-11-22T08:23:15.580Z</time>
      </trkpt>
      <trkpt lat="47.655550" lon="8.100934">
        <ele>606.776819</ele>
        <time>2021-11-22T08:23:21.346Z</time>
      </trkpt>
      <trkpt lat="47.656294" lon="8.101020">
        <ele>606.809702</ele>
        <time>2021-11-22T08:23:35.111Z</time>
      </trkpt>
      <trkpt lat="47.656765" lon="8.100713">
        <ele>607.772788</ele>
        <time>2021-11-22T08:23:49.391Z</time>
      </trkpt>
      <trkpt lat="47.657055" lon="8.100660">
        <ele>608.319845</ele>
        <time>2021-11-22T08:24:00.965Z</time>
      </trkpt>
      <trkpt lat="47.657883" lon="8.101468">
        <ele>607.835118</ele>
        <time>2021-11-22T08:24:17.722Z</time>
      </trkpt>
      <trkpt lat="47.658104" lon="8.101798">
        <ele>606.432720</ele>
        <time>2021-11-22T08:24:20.911Z</time>
      </trkpt>
      <trkpt lat="47.658322" lon="8.102192">
        <ele>604.896114</ele>
        <time>2021-11-22T08:24:24.166Z</time>
      </trkpt>
      <trkpt lat="47.658430" lon="8.102073">
        <ele>604.294368</ele>
        <time>2021-11-22T08:24:25.305Z</time>
      </trkpt>
      <trkpt lat="47.658585" lon="8.101836">
        <ele>603.298856</ele>
        <time>2021-11-22T08:24:27.612Z</time>
      </trkpt>
      <trkpt lat="47.658663" lon="8.101691">
        <ele>602.739633</ele>
        <time>2021-11-22T08:24:28.660Z</time>
      </trkpt>
      <trkpt lat="47.658663" lon="8.101540">
        <ele>602.284585</ele>
        <time>2021-11-22T08:24:29.658Z</time>
      </trkpt>
      <trkpt lat="47.658509" lon="8.100897">
        <ele>600.280143</ele>
        <time>2021-11-22T08:24:33.805Z</time>
      </trkpt>
      <trkpt lat="47.658557" lon="8.100648">
        <ele>599.533290</ele>
        <time>2021-11-22T08:24:35.283Z</time>
      </trkpt>
      <trkpt lat="47.658905" lon="8.100222">
        <ele>597.602289</ele>
        <time>2021-11-22T08:24:39.215Z</time>
      </trkpt>
      <trkpt lat="47.659039" lon="8.099675">
        <ele>595.923867</ele>
        <time>2021-11-22T08:24:42.926Z</time>
      </trkpt>
      <trkpt lat="47.659033" lon="8.099158">
        <ele>594.432822</ele>
        <time>2021-11-22T08:24:48.420Z</time>
      </trkpt>
      <trkpt lat="47.658949" lon="8.098497">
        <ele>595.972908</ele>
        <time>2021-11-22T08:25:02.306Z</time>
      </trkpt>
      <trkpt lat="47.658968" lon="8.098192">
        <ele>597.561015</ele>
        <time>2021-11-22T08:25:11.168Z</time>
      </trkpt>
      <trkpt lat="47.658999" lon="8.098024">
        <ele>598.464153</ele>
        <time>2021-11-22T08:25:16.157Z</time>
      </trkpt>
      <trkpt lat="47.659050" lon="8.097790">
        <ele>599.739326</ele>
        <time>2021-11-22T08:25:22.757Z</time>
      </trkpt>
      <trkpt lat="47.659121" lon="8.097542">
        <ele>601.136483</ele>
        <time>2021-11-22T08:25:32.935Z</time>
      </trkpt>
      <trkpt lat="47.659234" lon="8.097349">
        <ele>602.462361</ele>
        <time>2021-11-22T08:25:40.728Z</time>
      </trkpt>
      <trkpt lat="47.659467" lon="8.097172">
        <ele>604.477084</ele>
        <time>2021-11-22T08:25:55.529Z</time>
      </trkpt>
      <trkpt lat="47.659520" lon="8.097141">
        <ele>604.915584</ele>
        <time>2021-11-22T08:25:57.238Z</time>
      </trkpt>
      <trkpt lat="47.659622" lon="8.097130">
        <ele>605.702826</ele>
        <time>2021-11-22T08:26:06.012Z</time>
      </trkpt>
      <trkpt lat="47.659742" lon="8.097145">
        <ele>606.629827</ele>
        <time>2021-11-22T08:26:12.802Z</time>
      </trkpt>
      <trkpt lat="47.660392" lon="8.097537">
        <ele>612.798834</ele>
        <time>2021-11-22T08:26:54.121Z</time>
      </trkpt>
      <trkpt lat="47.660550" lon="8.097672">
        <ele>614.444525</ele>
        <time>2021-11-22T08:27:02.811Z</time>
      </trkpt>
      <trkpt lat="47.660988" lon="8.098302">
        <ele>619.949814</ele>
        <time>2021-11-22T08:27:38.157Z</time>
      </trkpt>
      <trkpt lat="47.661138" lon="8.098407">
        <ele>621.446909</ele>
        <time>2021-11-22T08:27:45.337Z</time>
      </trkpt>
      <trkpt lat="47.661273" lon="8.098471">
        <ele>622.726256</ele>
        <time>2021-11-22T08:27:51.035Z</time>
      </trkpt>
      <trkpt lat="47.661579" lon="8.098450">
        <ele>624.416781</ele>
        <time>2021-11-22T08:28:01.520Z</time>
      </trkpt>
      <trkpt lat="47.661848" lon="8.098230">
        <ele>625.406738</ele>
        <time>2021-11-22T08:28:09.794Z</time>
      </trkpt>
      <trkpt lat="47.662202" lon="8.097723">
        <ele>626.992199</ele>
        <time>2021-11-22T08:28:19.996Z</time>
      </trkpt>
      <trkpt lat="47.662360" lon="8.097361">
        <ele>627.928704</ele>
        <time>2021-11-22T08:28:26.855Z</time>
      </trkpt>
      <trkpt lat="47.662551" lon="8.096551">
        <ele>629.930566</ele>
        <time>2021-11-22T08:28:41.838Z</time>
      </trkpt>
      <trkpt lat="47.662855" lon="8.095930">
        <ele>632.924336</ele>
        <time>2021-11-22T08:28:57.433Z</time>
      </trkpt>
      <trkpt lat="47.663029" lon="8.095791">
        <ele>634.068372</ele>
        <time>2021-11-22T08:29:04.047Z</time>
      </trkpt>
      <trkpt lat="47.663099" lon="8.095744">
        <ele>634.513193</ele>
        <time>2021-11-22T08:29:06.317Z</time>
      </trkpt>
      <trkpt lat="47.663265" lon="8.095672">
        <ele>635.514518</ele>
        <time>2021-11-22T08:29:14.234Z</time>
      </trkpt>
      <trkpt lat="47.664171" lon="8.095354">
        <ele>641.352676</ele>
        <time>2021-11-22T08:29:54.421Z</time>
      </trkpt>
      <trkpt lat="47.664319" lon="8.095239">
        <ele>642.815971</ele>
        <time>2021-11-22T08:30:04.709Z</time>
      </trkpt>
      <trkpt lat="47.664818" lon="8.094850">
        <ele>647.753102</ele>
        <time>2021-11-22T08:30:33.867Z</time>
      </trkpt>
      <trkpt lat="47.666070" lon="8.094036">
        <ele>659.825754</ele>
        <time>2021-11-22T08:31:41.333Z</time>
      </trkpt>
      <trkpt lat="47.666475" lon="8.094018">
        <ele>663.465051</ele>
        <time>2021-11-22T08:32:03.341Z</time>
      </trkpt>
      <trkpt lat="47.667104" lon="8.093751">
        <ele>669.340971</ele>
        <time>2021-11-22T08:32:36.908Z</time>
      </trkpt>
      <trkpt lat="47.667197" lon="8.093711">
        <ele>670.210622</ele>
        <time>2021-11-22T08:32:43.132Z</time>
      </trkpt>
      <trkpt lat="47.667544" lon="8.093632">
        <ele>673.004639</ele>
        <time>2021-11-22T08:33:01.223Z</time>
      </trkpt>
      <trkpt lat="47.669377" lon="8.093613">
        <ele>684.595404</ele>
        <time>2021-11-22T08:34:15.667Z</time>
      </trkpt>
      <trkpt lat="47.669572" lon="8.093486">
        <ele>685.238933</ele>
        <time>2021-11-22T08:34:22.379Z</time>
      </trkpt>
      <trkpt lat="47.669647" lon="8.093405">
        <ele>685.519209</ele>
        <time>2021-11-22T08:34:24.795Z</time>
      </trkpt>
      <trkpt lat="47.669690" lon="8.093358">
        <ele>685.680574</ele>
        <time>2021-11-22T08:34:25.471Z</time>
      </trkpt>
      <trkpt lat="47.670066" lon="8.092935">
        <ele>687.106216</ele>
        <time>2021-11-22T08:34:37.396Z</time>
      </trkpt>
      <trkpt lat="47.670404" lon="8.092740">
        <ele>688.202120</ele>
        <time>2021-11-22T08:34:45.665Z</time>
      </trkpt>
      <trkpt lat="47.671273" lon="8.092535">
        <ele>690.373105</ele>
        <time>2021-11-22T08:35:04.336Z</time>
      </trkpt>
      <trkpt lat="47.672408" lon="8.092062">
        <ele>692.703696</ele>
        <time>2021-11-22T08:35:31.187Z</time>
      </trkpt>
      <trkpt lat="47.673054" lon="8.091992">
        <ele>694.615556</ele>
        <time>2021-11-22T08:35:47.542Z</time>
      </trkpt>
      <trkpt lat="47.673471" lon="8.091720">
        <ele>696.096777</ele>
        <time>2021-11-22T08:35:58.899Z</time>
      </trkpt>
      <trkpt lat="47.673670" lon="8.091560">
        <ele>696.832729</ele>
        <time>2021-11-22T08:36:05.730Z</time>
      </trkpt>
      <trkpt lat="47.673755" lon="8.091471">
        <ele>697.170966</ele>
        <time>2021-11-22T08:36:09.013Z</time>
      </trkpt>
      <trkpt lat="47.674104" lon="8.091184">
        <ele>698.468381</ele>
        <time>2021-11-22T08:36:22.955Z</time>
      </trkpt>
      <trkpt lat="47.674570" lon="8.090802">
        <ele>701.471290</ele>
        <time>2021-11-22T08:36:43.971Z</time>
      </trkpt>
      <trkpt lat="47.674889" lon="8.090618">
        <ele>703.637137</ele>
        <time>2021-11-22T08:36:58.793Z</time>
      </trkpt>
      <trkpt lat="47.674968" lon="8.090572">
        <ele>704.174176</ele>
        <time>2021-11-22T08:37:02.946Z</time>
      </trkpt>
      <trkpt lat="47.674975" lon="8.090569">
        <ele>704.220286</ele>
        <time>2021-11-22T08:37:03.787Z</time>
      </trkpt>
      <trkpt lat="47.675160" lon="8.090491">
        <ele>705.437403</ele>
        <time>2021-11-22T08:37:12.179Z</time>
      </trkpt>
      <trkpt lat="47.675373" lon="8.090402">
        <ele>706.837799</ele>
        <time>2021-11-22T08:37:25.337Z</time>
      </trkpt>
      <trkpt lat="47.676496" lon="8.090173">
        <ele>712.432059</ele>
        <time>2021-11-22T08:38:19.662Z</time>
      </trkpt>
      <trkpt lat="47.676811" lon="8.090208">
        <ele>713.594235</ele>
        <time>2021-11-22T08:38:31.237Z</time>
      </trkpt>
      <trkpt lat="47.676905" lon="8.090218">
        <ele>713.940962</ele>
        <time>2021-11-22T08:38:34.287Z</time>
      </trkpt>
      <trkpt lat="47.677101" lon="8.090195">
        <ele>714.664326</ele>
        <time>2021-11-22T08:38:40.959Z</time>
      </trkpt>
      <trkpt lat="47.677318" lon="8.090075">
        <ele>715.516251</ele>
        <time>2021-11-22T08:38:47.001Z</time>
      </trkpt>
      <trkpt lat="47.677854" lon="8.089887">
        <ele>716.347305</ele>
        <time>2021-11-22T08:38:59.716Z</time>
      </trkpt>
      <trkpt lat="47.678223" lon="8.089616">
        <ele>715.224982</ele>
        <time>2021-11-22T08:39:06.417Z</time>
      </trkpt>
      <trkpt lat="47.679057" lon="8.088521">
        <ele>712.190081</ele>
        <time>2021-11-22T08:39:21.863Z</time>
      </trkpt>
      <trkpt lat="47.679188" lon="8.088422">
        <ele>711.845664</ele>
        <time>2021-11-22T08:39:23.951Z</time>
      </trkpt>
      <trkpt lat="47.679296" lon="8.088340">
        <ele>711.629345</ele>
        <time>2021-11-22T08:39:25.706Z</time>
      </trkpt>
      <trkpt lat="47.679572" lon="8.088027">
        <ele>711.010039</ele>
        <time>2021-11-22T08:39:30.761Z</time>
      </trkpt>
      <trkpt lat="47.679702" lon="8.087668">
        <ele>710.520579</ele>
        <time>2021-11-22T08:39:34.820Z</time>
      </trkpt>
      <trkpt lat="47.679724" lon="8.087447">
        <ele>710.252330</ele>
        <time>2021-11-22T08:39:37.080Z</time>
      </trkpt>
      <trkpt lat="47.679684" lon="8.086770">
        <ele>709.436303</ele>
        <time>2021-11-22T08:39:44.599Z</time>
      </trkpt>
      <trkpt lat="47.679413" lon="8.085705">
        <ele>709.637952</ele>
        <time>2021-11-22T08:40:03.083Z</time>
      </trkpt>
      <trkpt lat="47.679348" lon="8.085277">
        <ele>710.335159</ele>
        <time>2021-11-22T08:40:11.711Z</time>
      </trkpt>
      <trkpt lat="47.679372" lon="8.085155">
        <ele>710.537131</ele>
        <time>2021-11-22T08:40:14.086Z</time>
      </trkpt>
      <trkpt lat="47.679406" lon="8.084946">
        <ele>710.878803</ele>
        <time>2021-11-22T08:40:18.900Z</time>
      </trkpt>
      <trkpt lat="47.679426" lon="8.084393">
        <ele>711.758821</ele>
        <time>2021-11-22T08:40:28.869Z</time>
      </trkpt>
      <trkpt lat="47.679333" lon="8.083505">
        <ele>713.164327</ele>
        <time>2021-11-22T08:40:45.680Z</time>
      </trkpt>
      <trkpt lat="47.679155" lon="8.082800">
        <ele>714.224057</ele>
        <time>2021-11-22T08:41:00.794Z</time>
      </trkpt>
      <trkpt lat="47.678919" lon="8.082150">
        <ele>715.263449</ele>
        <time>2021-11-22T08:41:13.208Z</time>
      </trkpt>
      <trkpt lat="47.678866" lon="8.081559">
        <ele>716.102606</ele>
        <time>2021-11-22T08:41:20.680Z</time>
      </trkpt>
      <trkpt lat="47.678829" lon="8.080487">
        <ele>717.149642</ele>
        <time>2021-11-22T08:41:32.074Z</time>
      </trkpt>
      <trkpt lat="47.678722" lon="8.078798">
        <ele>718.255587</ele>
        <time>2021-11-22T08:41:52.239Z</time>
      </trkpt>
      <trkpt lat="47.678689" lon="8.078135">
        <ele>719.210595</ele>
        <time>2021-11-22T08:42:02.239Z</time>
      </trkpt>
      <trkpt lat="47.678679" lon="8.077712">
        <ele>720.213683</ele>
        <time>2021-11-22T08:42:09.464Z</time>
      </trkpt>
      <trkpt lat="47.678687" lon="8.077487">
        <ele>720.747655</ele>
        <time>2021-11-22T08:42:14.403Z</time>
      </trkpt>
      <trkpt lat="47.678764" lon="8.076990">
        <ele>721.956278</ele>
        <time>2021-11-22T08:42:24.565Z</time>
      </trkpt>
      <trkpt lat="47.678877" lon="8.076422">
        <ele>723.359916</ele>
        <time>2021-11-22T08:42:37.360Z</time>
      </trkpt>
      <trkpt lat="47.678912" lon="8.076170">
        <ele>723.969704</ele>
        <time>2021-11-22T08:42:42.457Z</time>
      </trkpt>
      <trkpt lat="47.678911" lon="8.076099">
        <ele>724.138003</ele>
        <time>2021-11-22T08:42:43.973Z</time>
      </trkpt>
      <trkpt lat="47.678988" lon="8.075962">
        <ele>724.560937</ele>
        <time>2021-11-22T08:42:48.691Z</time>
      </trkpt>
      <trkpt lat="47.679066" lon="8.075752">
        <ele>725.208063</ele>
        <time>2021-11-22T08:42:53.521Z</time>
      </trkpt>
      <trkpt lat="47.679171" lon="8.075369">
        <ele>726.439275</ele>
        <time>2021-11-22T08:43:03.038Z</time>
      </trkpt>
      <trkpt lat="47.679410" lon="8.075150">
        <ele>727.681095</ele>
        <time>2021-11-22T08:43:12.067Z</time>
      </trkpt>
      <trkpt lat="47.680124" lon="8.074221">
        <ele>731.878584</ele>
        <time>2021-11-22T08:43:42.838Z</time>
      </trkpt>
      <trkpt lat="47.680417" lon="8.073682">
        <ele>733.957936</ele>
        <time>2021-11-22T08:43:57.672Z</time>
      </trkpt>
      <trkpt lat="47.683111" lon="8.067550">
        <ele>754.868323</ele>
        <time>2021-11-22T08:46:39.637Z</time>
      </trkpt>
      <trkpt lat="47.683883" lon="8.066576">
        <ele>756.569170</ele>
        <time>2021-11-22T08:46:56.548Z</time>
      </trkpt>
      <trkpt lat="47.684176" lon="8.066021">
        <ele>757.122496</ele>
        <time>2021-11-22T08:47:03.309Z</time>
      </trkpt>
      <trkpt lat="47.684523" lon="8.065044">
        <ele>758.762631</ele>
        <time>2021-11-22T08:47:19.438Z</time>
      </trkpt>
      <trkpt lat="47.684947" lon="8.064155">
        <ele>762.085095</ele>
        <time>2021-11-22T08:47:42.649Z</time>
      </trkpt>
      <trkpt lat="47.685107" lon="8.063932">
        <ele>763.078961</ele>
        <time>2021-11-22T08:47:51.159Z</time>
      </trkpt>
      <trkpt lat="47.685307" lon="8.063652">
        <ele>764.323903</ele>
        <time>2021-11-22T08:48:02.694Z</time>
      </trkpt>
      <trkpt lat="47.685767" lon="8.063009">
        <ele>767.177121</ele>
        <time>2021-11-22T08:48:27.670Z</time>
      </trkpt>
      <trkpt lat="47.686277" lon="8.062451">
        <ele>770.028838</ele>
        <time>2021-11-22T08:48:48.065Z</time>
      </trkpt>
      <trkpt lat="47.686390" lon="8.062333">
        <ele>770.650711</ele>
        <time>2021-11-22T08:48:51.847Z</time>
      </trkpt>
      <trkpt lat="47.686444" lon="8.062288">
        <ele>770.929472</ele>
        <time>2021-11-22T08:48:54.855Z</time>
      </trkpt>
      <trkpt lat="47.686560" lon="8.062185">
        <ele>771.537912</ele>
        <time>2021-11-22T08:48:59.468Z</time>
      </trkpt>
      <trkpt lat="47.686865" lon="8.061723">
        <ele>773.499088</ele>
        <time>2021-11-22T08:49:11.299Z</time>
      </trkpt>
      <trkpt lat="47.686948" lon="8.061449">
        <ele>774.518335</ele>
        <time>2021-11-22T08:49:18.269Z</time>
      </trkpt>
      <trkpt lat="47.686974" lon="8.061147">
        <ele>775.667266</ele>
        <time>2021-11-22T08:49:22.331Z</time>
      </trkpt>
      <trkpt lat="47.686964" lon="8.061027">
        <ele>776.123562</ele>
        <time>2021-11-22T08:49:25.300Z</time>
      </trkpt>
      <trkpt lat="47.686854" lon="8.060599">
        <ele>777.852401</ele>
        <time>2021-11-22T08:49:33.177Z</time>
      </trkpt>
      <trkpt lat="47.686790" lon="8.060375">
        <ele>778.770689</ele>
        <time>2021-11-22T08:49:40.492Z</time>
      </trkpt>
      <trkpt lat="47.686762" lon="8.059982">
        <ele>780.262029</ele>
        <time>2021-11-22T08:49:48.184Z</time>
      </trkpt>
      <trkpt lat="47.687250" lon="8.058756">
        <ele>786.528800</ele>
        <time>2021-11-22T08:50:33.471Z</time>
      </trkpt>
      <trkpt lat="47.687454" lon="8.058466">
        <ele>789.001033</ele>
        <time>2021-11-22T08:50:50.333Z</time>
      </trkpt>
      <trkpt lat="47.687638" lon="8.058180">
        <ele>791.332768</ele>
        <time>2021-11-22T08:51:03.568Z</time>
      </trkpt>
      <trkpt lat="47.687782" lon="8.057973">
        <ele>793.087244</ele>
        <time>2021-11-22T08:51:13.129Z</time>
      </trkpt>
      <trkpt lat="47.687946" lon="8.057738">
        <ele>795.082322</ele>
        <time>2021-11-22T08:51:25.490Z</time>
      </trkpt>
      <trkpt lat="47.688830" lon="8.056615">
        <ele>804.513795</ele>
        <time>2021-11-22T08:52:21.521Z</time>
      </trkpt>
      <trkpt lat="47.689381" lon="8.055407">
        <ele>811.930492</ele>
        <time>2021-11-22T08:53:01.576Z</time>
      </trkpt>
      <trkpt lat="47.689958" lon="8.053749">
        <ele>823.712990</ele>
        <time>2021-11-22T08:54:03.799Z</time>
      </trkpt>
      <trkpt lat="47.690297" lon="8.053090">
        <ele>829.132469</ele>
        <time>2021-11-22T08:54:36.994Z</time>
      </trkpt>
      <trkpt lat="47.690674" lon="8.052675">
        <ele>833.789000</ele>
        <time>2021-11-22T08:55:07.401Z</time>
      </trkpt>
      <trkpt lat="47.690973" lon="8.052534">
        <ele>836.942922</ele>
        <time>2021-11-22T08:55:26.243Z</time>
      </trkpt>
      <trkpt lat="47.691134" lon="8.052552">
        <ele>838.566172</ele>
        <time>2021-11-22T08:55:37.889Z</time>
      </trkpt>
      <trkpt lat="47.691299" lon="8.052756">
        <ele>840.724387</ele>
        <time>2021-11-22T08:55:47.436Z</time>
      </trkpt>
      <trkpt lat="47.691511" lon="8.052885">
        <ele>843.027665</ele>
        <time>2021-11-22T08:56:01.440Z</time>
      </trkpt>
      <trkpt lat="47.691706" lon="8.052910">
        <ele>844.995456</ele>
        <time>2021-11-22T08:56:09.018Z</time>
      </trkpt>
      <trkpt lat="47.691779" lon="8.052899">
        <ele>845.733154</ele>
        <time>2021-11-22T08:56:16.476Z</time>
      </trkpt>
      <trkpt lat="47.691878" lon="8.052747">
        <ele>847.164520</ele>
        <time>2021-11-22T08:56:21.694Z</time>
      </trkpt>
      <trkpt lat="47.691938" lon="8.052547">
        <ele>848.646347</ele>
        <time>2021-11-22T08:56:26.548Z</time>
      </trkpt>
      <trkpt lat="47.691964" lon="8.052422">
        <ele>849.236897</ele>
        <time>2021-11-22T08:56:33.546Z</time>
      </trkpt>
      <trkpt lat="47.692189" lon="8.052053">
        <ele>850.979000</ele>
        <time>2021-11-22T08:56:47.788Z</time>
      </trkpt>
      <trkpt lat="47.692459" lon="8.051796">
        <ele>852.645866</ele>
        <time>2021-11-22T08:56:57.978Z</time>
      </trkpt>
      <trkpt lat="47.692881" lon="8.051703">
        <ele>854.863498</ele>
        <time>2021-11-22T08:57:13.966Z</time>
      </trkpt>
      <trkpt lat="47.693307" lon="8.051500">
        <ele>857.189041</ele>
        <time>2021-11-22T08:57:23.785Z</time>
      </trkpt>
      <trkpt lat="47.693934" lon="8.051404">
        <ele>860.160684</ele>
        <time>2021-11-22T08:57:44.832Z</time>
      </trkpt>
      <trkpt lat="47.694436" lon="8.051039">
        <ele>862.662322</ele>
        <time>2021-11-22T08:58:03.311Z</time>
      </trkpt>
      <trkpt lat="47.694523" lon="8.050928">
        <ele>863.175625</ele>
        <time>2021-11-22T08:58:06.935Z</time>
      </trkpt>
      <trkpt lat="47.694626" lon="8.050798">
        <ele>863.780562</ele>
        <time>2021-11-22T08:58:12.018Z</time>
      </trkpt>
      <trkpt lat="47.694931" lon="8.050181">
        <ele>866.086889</ele>
        <time>2021-11-22T08:58:29.682Z</time>
      </trkpt>
      <trkpt lat="47.695066" lon="8.049908">
        <ele>867.009772</ele>
        <time>2021-11-22T08:58:37.089Z</time>
      </trkpt>
      <trkpt lat="47.695254" lon="8.049526">
        <ele>868.258177</ele>
        <time>2021-11-22T08:58:47.395Z</time>
      </trkpt>
      <trkpt lat="47.695382" lon="8.049448">
        <ele>868.800427</ele>
        <time>2021-11-22T08:58:51.776Z</time>
      </trkpt>
      <trkpt lat="47.695453" lon="8.049436">
        <ele>869.080503</ele>
        <time>2021-11-22T08:58:54.007Z</time>
      </trkpt>
      <trkpt lat="47.695677" lon="8.049371">
        <ele>869.975049</ele>
        <time>2021-11-22T08:59:01.146Z</time>
      </trkpt>
      <trkpt lat="47.695764" lon="8.049347">
        <ele>870.321869</ele>
        <time>2021-11-22T08:59:04.144Z</time>
      </trkpt>
      <trkpt lat="47.696680" lon="8.049165">
        <ele>873.908887</ele>
        <time>2021-11-22T08:59:29.096Z</time>
      </trkpt>
      <trkpt lat="47.696997" lon="8.048927">
        <ele>875.215494</ele>
        <time>2021-11-22T08:59:39.984Z</time>
      </trkpt>
      <trkpt lat="47.697520" lon="8.048347">
        <ele>877.616346</ele>
        <time>2021-11-22T09:00:00.632Z</time>
      </trkpt>
      <trkpt lat="47.697868" lon="8.048287">
        <ele>878.905151</ele>
        <time>2021-11-22T09:00:11.065Z</time>
      </trkpt>
      <trkpt lat="47.698090" lon="8.048312">
        <ele>879.724182</ele>
        <time>2021-11-22T09:00:17.526Z</time>
      </trkpt>
      <trkpt lat="47.698596" lon="8.048466">
        <ele>880.769163</ele>
        <time>2021-11-22T09:00:31.679Z</time>
      </trkpt>
      <trkpt lat="47.698841" lon="8.048466">
        <ele>881.199371</ele>
        <time>2021-11-22T09:00:38.029Z</time>
      </trkpt>
      <trkpt lat="47.699126" lon="8.048331">
        <ele>881.724632</ele>
        <time>2021-11-22T09:00:45.378Z</time>
      </trkpt>
      <trkpt lat="47.700446" lon="8.047283">
        <ele>882.750949</ele>
        <time>2021-11-22T09:01:09.363Z</time>
      </trkpt>
      <trkpt lat="47.701500" lon="8.046338">
        <ele>882.025393</ele>
        <time>2021-11-22T09:01:24.085Z</time>
      </trkpt>
      <trkpt lat="47.701528" lon="8.046314">
        <ele>882.002305</ele>
        <time>2021-11-22T09:01:24.449Z</time>
      </trkpt>
      <trkpt lat="47.701626" lon="8.046197">
        <ele>881.912513</ele>
        <time>2021-11-22T09:01:25.964Z</time>
      </trkpt>
      <trkpt lat="47.701692" lon="8.046101">
        <ele>881.846546</ele>
        <time>2021-11-22T09:01:27.102Z</time>
      </trkpt>
      <trkpt lat="47.702005" lon="8.045643">
        <ele>881.532782</ele>
        <time>2021-11-22T09:01:32.527Z</time>
      </trkpt>
      <trkpt lat="47.702530" lon="8.044585">
        <ele>880.900921</ele>
        <time>2021-11-22T09:01:43.681Z</time>
      </trkpt>
      <trkpt lat="47.702793" lon="8.044280">
        <ele>881.062419</ele>
        <time>2021-11-22T09:01:48.952Z</time>
      </trkpt>
      <trkpt lat="47.703082" lon="8.044095">
        <ele>881.388204</ele>
        <time>2021-11-22T09:01:54.290Z</time>
      </trkpt>
      <trkpt lat="47.703656" lon="8.043909">
        <ele>881.996433</ele>
        <time>2021-11-22T09:02:04.996Z</time>
      </trkpt>
      <trkpt lat="47.705058" lon="8.043541">
        <ele>884.795230</ele>
        <time>2021-11-22T09:02:37.688Z</time>
      </trkpt>
      <trkpt lat="47.705286" lon="8.043425">
        <ele>885.467202</ele>
        <time>2021-11-22T09:02:44.675Z</time>
      </trkpt>
      <trkpt lat="47.705496" lon="8.043189">
        <ele>886.201348</ele>
        <time>2021-11-22T09:02:52.236Z</time>
      </trkpt>
      <trkpt lat="47.706276" lon="8.042223">
        <ele>889.405082</ele>
        <time>2021-11-22T09:03:20.342Z</time>
      </trkpt>
      <trkpt lat="47.706490" lon="8.041996">
        <ele>890.343666</ele>
        <time>2021-11-22T09:03:27.778Z</time>
      </trkpt>
      <trkpt lat="47.707586" lon="8.041590">
        <ele>894.370840</ele>
        <time>2021-11-22T09:04:01.518Z</time>
      </trkpt>
      <trkpt lat="47.708159" lon="8.041175">
        <ele>896.601028</ele>
        <time>2021-11-22T09:04:20.754Z</time>
      </trkpt>
      <trkpt lat="47.708504" lon="8.040822">
        <ele>898.066525</ele>
        <time>2021-11-22T09:04:33.263Z</time>
      </trkpt>
      <trkpt lat="47.709873" lon="8.039953">
        <ele>902.201132</ele>
        <time>2021-11-22T09:05:13.318Z</time>
      </trkpt>
      <trkpt lat="47.710079" lon="8.039827">
        <ele>902.687697</ele>
        <time>2021-11-22T09:05:18.251Z</time>
      </trkpt>
      <trkpt lat="47.710310" lon="8.039700">
        <ele>903.225668</ele>
        <time>2021-11-22T09:05:23.603Z</time>
      </trkpt>
      <trkpt lat="47.710967" lon="8.039566">
        <ele>904.450160</ele>
        <time>2021-11-22T09:05:37.318Z</time>
      </trkpt>
      <trkpt lat="47.711207" lon="8.039450">
        <ele>904.625665</ele>
        <time>2021-11-22T09:05:42.035Z</time>
      </trkpt>
      <trkpt lat="47.711406" lon="8.039203">
        <ele>904.805968</ele>
        <time>2021-11-22T09:05:46.504Z</time>
      </trkpt>
      <trkpt lat="47.711721" lon="8.038654">
        <ele>905.143574</ele>
        <time>2021-11-22T09:05:54.226Z</time>
      </trkpt>
      <trkpt lat="47.711785" lon="8.038522">
        <ele>905.219705</ele>
        <time>2021-11-22T09:05:55.857Z</time>
      </trkpt>
      <trkpt lat="47.711849" lon="8.038395">
        <ele>905.293949</ele>
        <time>2021-11-22T09:05:57.717Z</time>
      </trkpt>
      <trkpt lat="47.712026" lon="8.038132">
        <ele>905.468005</ele>
        <time>2021-11-22T09:06:01.809Z</time>
      </trkpt>
      <trkpt lat="47.712159" lon="8.037987">
        <ele>905.582712</ele>
        <time>2021-11-22T09:06:04.803Z</time>
      </trkpt>
      <trkpt lat="47.712392" lon="8.037862">
        <ele>905.845332</ele>
        <time>2021-11-22T09:06:09.145Z</time>
      </trkpt>
      <trkpt lat="47.712804" lon="8.037830">
        <ele>906.295649</ele>
        <time>2021-11-22T09:06:16.800Z</time>
      </trkpt>
      <trkpt lat="47.713037" lon="8.037859">
        <ele>906.550861</ele>
        <time>2021-11-22T09:06:20.857Z</time>
      </trkpt>
      <trkpt lat="47.713360" lon="8.037850">
        <ele>906.903482</ele>
        <time>2021-11-22T09:06:26.699Z</time>
      </trkpt>
      <trkpt lat="47.713634" lon="8.037842">
        <ele>907.202614</ele>
        <time>2021-11-22T09:06:32.110Z</time>
      </trkpt>
      <trkpt lat="47.715888" lon="8.037178">
        <ele>911.637641</ele>
        <time>2021-11-22T09:07:24.946Z</time>
      </trkpt>
      <trkpt lat="47.717581" lon="8.036768">
        <ele>915.876864</ele>
        <time>2021-11-22T09:08:07.621Z</time>
      </trkpt>
      <trkpt lat="47.718119" lon="8.036433">
        <ele>917.536502</ele>
        <time>2021-11-22T09:08:22.632Z</time>
      </trkpt>
      <trkpt lat="47.718879" lon="8.035813">
        <ele>920.003167</ele>
        <time>2021-11-22T09:08:45.742Z</time>
      </trkpt>
      <trkpt lat="47.719238" lon="8.035660">
        <ele>921.097629</ele>
        <time>2021-11-22T09:08:55.716Z</time>
      </trkpt>
      <trkpt lat="47.719558" lon="8.035421">
        <ele>922.216755</ele>
        <time>2021-11-22T09:09:05.264Z</time>
      </trkpt>
      <trkpt lat="47.719822" lon="8.035113">
        <ele>923.265511</ele>
        <time>2021-11-22T09:09:14.220Z</time>
      </trkpt>
      <trkpt lat="47.720095" lon="8.034826">
        <ele>924.310431</ele>
        <time>2021-11-22T09:09:23.112Z</time>
      </trkpt>
      <trkpt lat="47.720244" lon="8.034691">
        <ele>924.855730</ele>
        <time>2021-11-22T09:09:27.710Z</time>
      </trkpt>
      <trkpt lat="47.720393" lon="8.034655">
        <ele>925.327459</ele>
        <time>2021-11-22T09:09:31.676Z</time>
      </trkpt>
      <trkpt lat="47.720905" lon="8.034671">
        <ele>927.194233</ele>
        <time>2021-11-22T09:09:46.404Z</time>
      </trkpt>
      <trkpt lat="47.721145" lon="8.034604">
        <ele>928.316920</ele>
        <time>2021-11-22T09:09:54.195Z</time>
      </trkpt>
      <trkpt lat="47.721377" lon="8.034450">
        <ele>929.485054</ele>
        <time>2021-11-22T09:10:02.655Z</time>
      </trkpt>
      <trkpt lat="47.721781" lon="8.034038">
        <ele>931.737526</ele>
        <time>2021-11-22T09:10:18.407Z</time>
      </trkpt>
      <trkpt lat="47.722140" lon="8.033425">
        <ele>934.251221</ele>
        <time>2021-11-22T09:10:37.779Z</time>
      </trkpt>
      <trkpt lat="47.721855" lon="8.033064">
        <ele>936.452292</ele>
        <time>2021-11-22T09:10:52.266Z</time>
      </trkpt>
      <trkpt lat="47.721762" lon="8.032750">
        <ele>937.892879</ele>
        <time>2021-11-22T09:11:00.702Z</time>
      </trkpt>
      <trkpt lat="47.721872" lon="8.031737">
        <ele>942.201448</ele>
        <time>2021-11-22T09:11:28.060Z</time>
      </trkpt>
      <trkpt lat="47.721889" lon="8.031577">
        <ele>942.881603</ele>
        <time>2021-11-22T09:11:32.938Z</time>
      </trkpt>
      <trkpt lat="47.721913" lon="8.031348">
        <ele>943.854754</ele>
        <time>2021-11-22T09:11:39.599Z</time>
      </trkpt>
      <trkpt lat="47.721879" lon="8.030941">
        <ele>945.576841</ele>
        <time>2021-11-22T09:11:51.254Z</time>
      </trkpt>
      <trkpt lat="47.721537" lon="8.030157">
        <ele>950.080005</ele>
        <time>2021-11-22T09:12:18.011Z</time>
      </trkpt>
      <trkpt lat="47.721383" lon="8.029634">
        <ele>952.858730</ele>
        <time>2021-11-22T09:12:35.442Z</time>
      </trkpt>
      <trkpt lat="47.721356" lon="8.029436">
        <ele>953.842043</ele>
        <time>2021-11-22T09:12:41.823Z</time>
      </trkpt>
      <trkpt lat="47.720756" lon="8.029552">
        <ele>958.219601</ele>
        <time>2021-11-22T09:13:07.821Z</time>
      </trkpt>
      <trkpt lat="47.719991" lon="8.029780">
        <ele>963.412500</ele>
        <time>2021-11-22T09:13:42.211Z</time>
      </trkpt>
      <trkpt lat="47.719378" lon="8.029654">
        <ele>967.484443</ele>
        <time>2021-11-22T09:14:07.097Z</time>
      </trkpt>
      <trkpt lat="47.718858" lon="8.029631">
        <ele>970.862324</ele>
        <time>2021-11-22T09:14:27.940Z</time>
      </trkpt>
      <trkpt lat="47.718230" lon="8.029460">
        <ele>974.118753</ele>
        <time>2021-11-22T09:14:51.354Z</time>
      </trkpt>
      <trkpt lat="47.718222" lon="8.029458">
        <ele>974.160130</ele>
        <time>2021-11-22T09:14:52.220Z</time>
      </trkpt>
      <trkpt lat="47.717955" lon="8.029275">
        <ele>975.659780</ele>
        <time>2021-11-22T09:15:01.831Z</time>
      </trkpt>
      <trkpt lat="47.717779" lon="8.029155">
        <ele>976.647412</ele>
        <time>2021-11-22T09:15:08.506Z</time>
      </trkpt>
      <trkpt lat="47.717670" lon="8.029034">
        <ele>977.341308</ele>
        <time>2021-11-22T09:15:12.845Z</time>
      </trkpt>
      <trkpt lat="47.717567" lon="8.028909">
        <ele>978.019534</ele>
        <time>2021-11-22T09:15:17.902Z</time>
      </trkpt>
      <trkpt lat="47.717384" lon="8.028538">
        <ele>979.598151</ele>
        <time>2021-11-22T09:15:27.257Z</time>
      </trkpt>
      <trkpt lat="47.717229" lon="8.027656">
        <ele>982.271837</ele>
        <time>2021-11-22T09:15:47.713Z</time>
      </trkpt>
      <trkpt lat="47.716995" lon="8.027155">
        <ele>984.030497</ele>
        <time>2021-11-22T09:16:01.094Z</time>
      </trkpt>
      <trkpt lat="47.716042" lon="8.025973">
        <ele>989.485138</ele>
        <time>2021-11-22T09:16:39.626Z</time>
      </trkpt>
      <trkpt lat="47.715889" lon="8.025740">
        <ele>990.495860</ele>
        <time>2021-11-22T09:16:46.755Z</time>
      </trkpt>
      <trkpt lat="47.715818" lon="8.025523">
        <ele>991.244944</ele>
        <time>2021-11-22T09:16:52.132Z</time>
      </trkpt>
      <trkpt lat="47.715795" lon="8.025043">
        <ele>992.738823</ele>
        <time>2021-11-22T09:17:04.276Z</time>
      </trkpt>
      <trkpt lat="47.715869" lon="8.023897">
        <ele>996.126061</ele>
        <time>2021-11-22T09:17:31.157Z</time>
      </trkpt>
      <trkpt lat="47.715786" lon="8.023341">
        <ele>997.116306</ele>
        <time>2021-11-22T09:17:42.281Z</time>
      </trkpt>
      <trkpt lat="47.715690" lon="8.023139">
        <ele>997.546316</ele>
        <time>2021-11-22T09:17:47.157Z</time>
      </trkpt>
      <trkpt lat="47.715613" lon="8.023025">
        <ele>997.827184</ele>
        <time>2021-11-22T09:17:49.902Z</time>
      </trkpt>
      <trkpt lat="47.715554" lon="8.022946">
        <ele>998.032406</ele>
        <time>2021-11-22T09:17:51.624Z</time>
      </trkpt>
      <trkpt lat="47.715434" lon="8.022859">
        <ele>998.377448</ele>
        <time>2021-11-22T09:17:55.060Z</time>
      </trkpt>
      <trkpt lat="47.715183" lon="8.022704">
        <ele>999.079866</ele>
        <time>2021-11-22T09:18:01.180Z</time>
      </trkpt>
      <trkpt lat="47.715029" lon="8.022580">
        <ele>999.532497</ele>
        <time>2021-11-22T09:18:04.935Z</time>
      </trkpt>
      <trkpt lat="47.714915" lon="8.022488">
        <ele>999.867733</ele>
        <time>2021-11-22T09:18:07.184Z</time>
      </trkpt>
      <trkpt lat="47.714877" lon="8.022431">
        <ele>1000.007256</ele>
        <time>2021-11-22T09:18:08.411Z</time>
      </trkpt>
      <trkpt lat="47.714877" lon="8.022431">
        <ele>1000.007256</ele>
        <time>2021-11-22T09:18:08.413Z</time>
      </trkpt>
      <trkpt lat="47.714866" lon="8.022416">
        <ele>1000.045835</ele>
        <time>2021-11-22T09:18:08.538Z</time>
      </trkpt>
      <trkpt lat="47.714686" lon="8.021928">
        <ele>1000.754312</ele>
        <time>2021-11-22T09:18:16.378Z</time>
      </trkpt>
      <trkpt lat="47.714643" lon="8.021084">
        <ele>1001.426291</ele>
        <time>2021-11-22T09:18:27.309Z</time>
      </trkpt>
      <trkpt lat="47.714337" lon="8.020321">
        <ele>1002.131494</ele>
        <time>2021-11-22T09:18:36.834Z</time>
      </trkpt>
      <trkpt lat="47.714333" lon="8.020290">
        <ele>1002.156554</ele>
        <time>2021-11-22T09:18:37.028Z</time>
      </trkpt>
      <trkpt lat="47.714311" lon="8.020139">
        <ele>1002.279213</ele>
        <time>2021-11-22T09:18:40.444Z</time>
      </trkpt>
      <trkpt lat="47.714327" lon="8.019674">
        <ele>1002.648867</ele>
        <time>2021-11-22T09:18:46.803Z</time>
      </trkpt>
      <trkpt lat="47.714590" lon="8.018719">
        <ele>1003.889049</ele>
        <time>2021-11-22T09:19:03.829Z</time>
      </trkpt>
      <trkpt lat="47.714539" lon="8.018424">
        <ele>1004.256646</ele>
        <time>2021-11-22T09:19:09.863Z</time>
      </trkpt>
      <trkpt lat="47.714465" lon="8.018270">
        <ele>1004.485040</ele>
        <time>2021-11-22T09:19:12.449Z</time>
      </trkpt>
      <trkpt lat="47.713564" lon="8.017307">
        <ele>1005.459287</ele>
        <time>2021-11-22T09:19:35.073Z</time>
      </trkpt>
      <trkpt lat="47.713315" lon="8.016820">
        <ele>1004.926826</ele>
        <time>2021-11-22T09:19:40.425Z</time>
      </trkpt>
      <trkpt lat="47.713294" lon="8.016641">
        <ele>1004.768651</ele>
        <time>2021-11-22T09:19:42.093Z</time>
      </trkpt>
      <trkpt lat="47.713141" lon="8.016563">
        <ele>1004.559377</ele>
        <time>2021-11-22T09:19:43.794Z</time>
      </trkpt>
      <trkpt lat="47.711952" lon="8.015917">
        <ele>1002.343664</ele>
        <time>2021-11-22T09:19:56.837Z</time>
      </trkpt>
      <trkpt lat="47.710518" lon="8.014884">
        <ele>999.160667</ele>
        <time>2021-11-22T09:20:13.743Z</time>
      </trkpt>
      <trkpt lat="47.710321" lon="8.014805">
        <ele>999.190290</ele>
        <time>2021-11-22T09:20:16.165Z</time>
      </trkpt>
      <trkpt lat="47.710077" lon="8.014759">
        <ele>999.225997</ele>
        <time>2021-11-22T09:20:20.325Z</time>
      </trkpt>
      <trkpt lat="47.709776" lon="8.014812">
        <ele>999.270001</ele>
        <time>2021-11-22T09:20:25.243Z</time>
      </trkpt>
      <trkpt lat="47.709441" lon="8.015030">
        <ele>999.323094</ele>
        <time>2021-11-22T09:20:32.004Z</time>
      </trkpt>
      <trkpt lat="47.708700" lon="8.015770">
        <ele>1000.364666</ele>
        <time>2021-11-22T09:20:52.134Z</time>
      </trkpt>
      <trkpt lat="47.706433" lon="8.017586">
        <ele>1005.779940</ele>
        <time>2021-11-22T09:21:51.306Z</time>
      </trkpt>
      <trkpt lat="47.706381" lon="8.017611">
        <ele>1005.902276</ele>
        <time>2021-11-22T09:21:53.025Z</time>
      </trkpt>
      <trkpt lat="47.706035" lon="8.017777">
        <ele>1006.716123</ele>
        <time>2021-11-22T09:22:02.429Z</time>
      </trkpt>
      <trkpt lat="47.705630" lon="8.017923">
        <ele>1007.542667</ele>
        <time>2021-11-22T09:22:12.923Z</time>
      </trkpt>
      <trkpt lat="47.705017" lon="8.018121">
        <ele>1008.733815</ele>
        <time>2021-11-22T09:22:28.098Z</time>
      </trkpt>
      <trkpt lat="47.704675" lon="8.018220">
        <ele>1009.395414</ele>
        <time>2021-11-22T09:22:36.007Z</time>
      </trkpt>
      <trkpt lat="47.704324" lon="8.018243">
        <ele>1010.062544</ele>
        <time>2021-11-22T09:22:43.067Z</time>
      </trkpt>
      <trkpt lat="47.704166" lon="8.018223">
        <ele>1010.363574</ele>
        <time>2021-11-22T09:22:46.118Z</time>
      </trkpt>
      <trkpt lat="47.702819" lon="8.017801">
        <ele>1010.513466</ele>
        <time>2021-11-22T09:23:08.243Z</time>
      </trkpt>
      <trkpt lat="47.702616" lon="8.017754">
        <ele>1010.535836</ele>
        <time>2021-11-22T09:23:11.020Z</time>
      </trkpt>
      <trkpt lat="47.702332" lon="8.017689">
        <ele>1010.425402</ele>
        <time>2021-11-22T09:23:14.950Z</time>
      </trkpt>
      <trkpt lat="47.701256" lon="8.017444">
        <ele>1008.365082</ele>
        <time>2021-11-22T09:23:26.982Z</time>
      </trkpt>
      <trkpt lat="47.700871" lon="8.017325">
        <ele>1007.620793</ele>
        <time>2021-11-22T09:23:31.023Z</time>
      </trkpt>
      <trkpt lat="47.700473" lon="8.017248">
        <ele>1006.880880</ele>
        <time>2021-11-22T09:23:35.322Z</time>
      </trkpt>
      <trkpt lat="47.700386" lon="8.017229">
        <ele>1006.725622</ele>
        <time>2021-11-22T09:23:36.359Z</time>
      </trkpt>
      <trkpt lat="47.700159" lon="8.017210">
        <ele>1006.324194</ele>
        <time>2021-11-22T09:23:38.672Z</time>
      </trkpt>
      <trkpt lat="47.699910" lon="8.017190">
        <ele>1005.883916</ele>
        <time>2021-11-22T09:23:42.568Z</time>
      </trkpt>
      <trkpt lat="47.699813" lon="8.017213">
        <ele>1005.710485</ele>
        <time>2021-11-22T09:23:43.436Z</time>
      </trkpt>
      <trkpt lat="47.699597" lon="8.017288">
        <ele>1005.318839</ele>
        <time>2021-11-22T09:23:47.199Z</time>
      </trkpt>
      <trkpt lat="47.698902" lon="8.017665">
        <ele>1004.012524</ele>
        <time>2021-11-22T09:23:55.397Z</time>
      </trkpt>
      <trkpt lat="47.698528" lon="8.017844">
        <ele>1003.158084</ele>
        <time>2021-11-22T09:23:59.899Z</time>
      </trkpt>
      <trkpt lat="47.698267" lon="8.017921">
        <ele>1002.573990</ele>
        <time>2021-11-22T09:24:03.035Z</time>
      </trkpt>
      <trkpt lat="47.698194" lon="8.017933">
        <ele>1002.412773</ele>
        <time>2021-11-22T09:24:04.435Z</time>
      </trkpt>
      <trkpt lat="47.697983" lon="8.017968">
        <ele>1001.946738</ele>
        <time>2021-11-22T09:24:07.623Z</time>
      </trkpt>
      <trkpt lat="47.697781" lon="8.017936">
        <ele>1001.500824</ele>
        <time>2021-11-22T09:24:09.918Z</time>
      </trkpt>
      <trkpt lat="47.697010" lon="8.017759">
        <ele>999.473074</ele>
        <time>2021-11-22T09:24:17.751Z</time>
      </trkpt>
      <trkpt lat="47.696473" lon="8.017726">
        <ele>996.762319</ele>
        <time>2021-11-22T09:24:22.767Z</time>
      </trkpt>
      <trkpt lat="47.696352" lon="8.017751">
        <ele>996.146165</ele>
        <time>2021-11-22T09:24:23.873Z</time>
      </trkpt>
      <trkpt lat="47.696152" lon="8.017833">
        <ele>995.099732</ele>
        <time>2021-11-22T09:24:25.811Z</time>
      </trkpt>
      <trkpt lat="47.695840" lon="8.018011">
        <ele>993.414086</ele>
        <time>2021-11-22T09:24:28.910Z</time>
      </trkpt>
      <trkpt lat="47.695674" lon="8.018175">
        <ele>992.408635</ele>
        <time>2021-11-22T09:24:30.747Z</time>
      </trkpt>
      <trkpt lat="47.695579" lon="8.018269">
        <ele>991.832954</ele>
        <time>2021-11-22T09:24:31.790Z</time>
      </trkpt>
      <trkpt lat="47.695350" lon="8.018583">
        <ele>990.463399</ele>
        <time>2021-11-22T09:24:34.714Z</time>
      </trkpt>
      <trkpt lat="47.694743" lon="8.019647">
        <ele>987.099141</ele>
        <time>2021-11-22T09:24:44.028Z</time>
      </trkpt>
      <trkpt lat="47.694578" lon="8.019835">
        <ele>986.353980</ele>
        <time>2021-11-22T09:24:46.227Z</time>
      </trkpt>
      <trkpt lat="47.694391" lon="8.019962">
        <ele>985.617147</ele>
        <time>2021-11-22T09:24:48.565Z</time>
      </trkpt>
      <trkpt lat="47.694216" lon="8.020019">
        <ele>984.975121</ele>
        <time>2021-11-22T09:24:50.474Z</time>
      </trkpt>
      <trkpt lat="47.694060" lon="8.020049">
        <ele>984.340828</ele>
        <time>2021-11-22T09:24:52.129Z</time>
      </trkpt>
      <trkpt lat="47.693895" lon="8.020047">
        <ele>983.342371</ele>
        <time>2021-11-22T09:24:53.748Z</time>
      </trkpt>
      <trkpt lat="47.693543" lon="8.019913">
        <ele>981.143588</ele>
        <time>2021-11-22T09:24:57.305Z</time>
      </trkpt>
      <trkpt lat="47.693342" lon="8.019760">
        <ele>979.776977</ele>
        <time>2021-11-22T09:24:59.468Z</time>
      </trkpt>
      <trkpt lat="47.693162" lon="8.019540">
        <ele>978.366572</ele>
        <time>2021-11-22T09:25:01.694Z</time>
      </trkpt>
      <trkpt lat="47.693037" lon="8.019317">
        <ele>977.184593</ele>
        <time>2021-11-22T09:25:03.440Z</time>
      </trkpt>
      <trkpt lat="47.692707" lon="8.018208">
        <ele>971.627725</ele>
        <time>2021-11-22T09:25:10.559Z</time>
      </trkpt>
      <trkpt lat="47.692537" lon="8.017846">
        <ele>969.027015</ele>
        <time>2021-11-22T09:25:13.090Z</time>
      </trkpt>
      <trkpt lat="47.692350" lon="8.017552">
        <ele>966.643712</ele>
        <time>2021-11-22T09:25:15.402Z</time>
      </trkpt>
      <trkpt lat="47.691974" lon="8.017174">
        <ele>962.669667</ele>
        <time>2021-11-22T09:25:19.355Z</time>
      </trkpt>
      <trkpt lat="47.691820" lon="8.017076">
        <ele>961.203173</ele>
        <time>2021-11-22T09:25:20.785Z</time>
      </trkpt>
      <trkpt lat="47.691689" lon="8.017007">
        <ele>959.986534</ele>
        <time>2021-11-22T09:25:22.069Z</time>
      </trkpt>
      <trkpt lat="47.691665" lon="8.016994">
        <ele>959.762923</ele>
        <time>2021-11-22T09:25:22.310Z</time>
      </trkpt>
      <trkpt lat="47.691435" lon="8.016911">
        <ele>957.798724</ele>
        <time>2021-11-22T09:25:24.442Z</time>
      </trkpt>
      <trkpt lat="47.690220" lon="8.016934">
        <ele>953.038642</ele>
        <time>2021-11-22T09:25:36.172Z</time>
      </trkpt>
      <trkpt lat="47.690082" lon="8.016904">
        <ele>952.492278</ele>
        <time>2021-11-22T09:25:38.670Z</time>
      </trkpt>
      <trkpt lat="47.690058" lon="8.016898">
        <ele>952.396937</ele>
        <time>2021-11-22T09:25:39.018Z</time>
      </trkpt>
      <trkpt lat="47.689914" lon="8.016822">
        <ele>951.798282</ele>
        <time>2021-11-22T09:25:40.788Z</time>
      </trkpt>
      <trkpt lat="47.689713" lon="8.016686">
        <ele>950.933051</ele>
        <time>2021-11-22T09:25:43.852Z</time>
      </trkpt>
      <trkpt lat="47.688439" lon="8.015818">
        <ele>944.182607</ele>
        <time>2021-11-22T09:25:57.469Z</time>
      </trkpt>
      <trkpt lat="47.688100" lon="8.015587">
        <ele>942.380535</ele>
        <time>2021-11-22T09:26:00.765Z</time>
      </trkpt>
      <trkpt lat="47.687490" lon="8.015190">
        <ele>937.449947</ele>
        <time>2021-11-22T09:26:06.612Z</time>
      </trkpt>
      <trkpt lat="47.686930" lon="8.015043">
        <ele>933.126429</ele>
        <time>2021-11-22T09:26:11.650Z</time>
      </trkpt>
      <trkpt lat="47.686756" lon="8.015038">
        <ele>931.803298</ele>
        <time>2021-11-22T09:26:13.166Z</time>
      </trkpt>
      <trkpt lat="47.686668" lon="8.015036">
        <ele>931.134175</ele>
        <time>2021-11-22T09:26:13.959Z</time>
      </trkpt>
      <trkpt lat="47.686492" lon="8.015040">
        <ele>929.795929</ele>
        <time>2021-11-22T09:26:15.554Z</time>
      </trkpt>
      <trkpt lat="47.686307" lon="8.015044">
        <ele>928.400625</ele>
        <time>2021-11-22T09:26:17.225Z</time>
      </trkpt>
      <trkpt lat="47.685997" lon="8.015101">
        <ele>926.342200</ele>
        <time>2021-11-22T09:26:20.033Z</time>
      </trkpt>
      <trkpt lat="47.685071" lon="8.015391">
        <ele>920.105912</ele>
        <time>2021-11-22T09:26:28.759Z</time>
      </trkpt>
      <trkpt lat="47.685007" lon="8.015414">
        <ele>919.671998</ele>
        <time>2021-11-22T09:26:29.356Z</time>
      </trkpt>
      <trkpt lat="47.684861" lon="8.015422">
        <ele>918.709235</ele>
        <time>2021-11-22T09:26:30.688Z</time>
      </trkpt>
      <trkpt lat="47.684700" lon="8.015415">
        <ele>917.647824</ele>
        <time>2021-11-22T09:26:32.138Z</time>
      </trkpt>
      <trkpt lat="47.684460" lon="8.015371">
        <ele>915.920795</ele>
        <time>2021-11-22T09:26:34.293Z</time>
      </trkpt>
      <trkpt lat="47.684156" lon="8.015153">
        <ele>913.173106</ele>
        <time>2021-11-22T09:26:37.267Z</time>
      </trkpt>
      <trkpt lat="47.683722" lon="8.014841">
        <ele>909.248561</ele>
        <time>2021-11-22T09:26:41.492Z</time>
      </trkpt>
      <trkpt lat="47.683483" lon="8.014699">
        <ele>907.153354</ele>
        <time>2021-11-22T09:26:43.756Z</time>
      </trkpt>
      <trkpt lat="47.683314" lon="8.014630">
        <ele>905.726748</ele>
        <time>2021-11-22T09:26:45.278Z</time>
      </trkpt>
      <trkpt lat="47.683196" lon="8.014596">
        <ele>904.748375</ele>
        <time>2021-11-22T09:26:46.331Z</time>
      </trkpt>
      <trkpt lat="47.682999" lon="8.014538">
        <ele>903.113685</ele>
        <time>2021-11-22T09:26:48.108Z</time>
      </trkpt>
      <trkpt lat="47.682288" lon="8.014598">
        <ele>898.533083</ele>
        <time>2021-11-22T09:26:54.372Z</time>
      </trkpt>
      <trkpt lat="47.681245" lon="8.014833">
        <ele>892.184797</ele>
        <time>2021-11-22T09:27:04.150Z</time>
      </trkpt>
      <trkpt lat="47.681149" lon="8.014842">
        <ele>891.605945</ele>
        <time>2021-11-22T09:27:05.042Z</time>
      </trkpt>
      <trkpt lat="47.680939" lon="8.014861">
        <ele>890.839094</ele>
        <time>2021-11-22T09:27:07.383Z</time>
      </trkpt>
      <trkpt lat="47.680849" lon="8.014865">
        <ele>890.627917</ele>
        <time>2021-11-22T09:27:08.299Z</time>
      </trkpt>
      <trkpt lat="47.680531" lon="8.014879">
        <ele>889.881764</ele>
        <time>2021-11-22T09:27:11.769Z</time>
      </trkpt>
      <trkpt lat="47.680389" lon="8.014880">
        <ele>889.548718</ele>
        <time>2021-11-22T09:27:13.200Z</time>
      </trkpt>
      <trkpt lat="47.679251" lon="8.014884">
        <ele>886.867549</ele>
        <time>2021-11-22T09:27:26.198Z</time>
      </trkpt>
      <trkpt lat="47.678183" lon="8.014903">
        <ele>883.853657</ele>
        <time>2021-11-22T09:27:37.504Z</time>
      </trkpt>
      <trkpt lat="47.677987" lon="8.014917">
        <ele>883.299946</ele>
        <time>2021-11-22T09:27:39.453Z</time>
      </trkpt>
      <trkpt lat="47.677635" lon="8.014962">
        <ele>882.303002</ele>
        <time>2021-11-22T09:27:42.957Z</time>
      </trkpt>
      <trkpt lat="47.677319" lon="8.015044">
        <ele>881.330052</ele>
        <time>2021-11-22T09:27:46.137Z</time>
      </trkpt>
      <trkpt lat="47.676974" lon="8.015161">
        <ele>880.186361</ele>
        <time>2021-11-22T09:27:49.635Z</time>
      </trkpt>
      <trkpt lat="47.676582" lon="8.015361">
        <ele>878.846802</ele>
        <time>2021-11-22T09:27:53.743Z</time>
      </trkpt>
      <trkpt lat="47.675283" lon="8.016067">
        <ele>874.847210</ele>
        <time>2021-11-22T09:28:08.078Z</time>
      </trkpt>
      <trkpt lat="47.674668" lon="8.016245">
        <ele>873.391574</ele>
        <time>2021-11-22T09:28:14.928Z</time>
      </trkpt>
      <trkpt lat="47.674252" lon="8.016346">
        <ele>872.412301</ele>
        <time>2021-11-22T09:28:19.524Z</time>
      </trkpt>
      <trkpt lat="47.674034" lon="8.016422">
        <ele>871.892080</ele>
        <time>2021-11-22T09:28:21.939Z</time>
      </trkpt>
      <trkpt lat="47.673845" lon="8.016514">
        <ele>871.419224</ele>
        <time>2021-11-22T09:28:24.150Z</time>
      </trkpt>
      <trkpt lat="47.673479" lon="8.016863">
        <ele>870.384115</ele>
        <time>2021-11-22T09:28:28.816Z</time>
      </trkpt>
      <trkpt lat="47.673131" lon="8.017223">
        <ele>869.374811</ele>
        <time>2021-11-22T09:28:33.254Z</time>
      </trkpt>
      <trkpt lat="47.672948" lon="8.017448">
        <ele>868.809415</ele>
        <time>2021-11-22T09:28:35.771Z</time>
      </trkpt>
      <trkpt lat="47.672709" lon="8.017825">
        <ele>867.979657</ele>
        <time>2021-11-22T09:28:39.487Z</time>
      </trkpt>
      <trkpt lat="47.672622" lon="8.018013">
        <ele>867.614101</ele>
        <time>2021-11-22T09:28:41.139Z</time>
      </trkpt>
      <trkpt lat="47.672591" lon="8.018116">
        <ele>867.421018</ele>
        <time>2021-11-22T09:28:41.971Z</time>
      </trkpt>
      <trkpt lat="47.672477" lon="8.018726">
        <ele>866.327995</ele>
        <time>2021-11-22T09:28:46.456Z</time>
      </trkpt>
      <trkpt lat="47.672367" lon="8.019162">
        <ele>865.524102</ele>
        <time>2021-11-22T09:28:49.762Z</time>
      </trkpt>
      <trkpt lat="47.672135" lon="8.019649">
        <ele>864.494104</ele>
        <time>2021-11-22T09:28:53.925Z</time>
      </trkpt>
      <trkpt lat="47.671881" lon="8.019930">
        <ele>863.681972</ele>
        <time>2021-11-22T09:28:57.301Z</time>
      </trkpt>
      <trkpt lat="47.671531" lon="8.020078">
        <ele>862.834227</ele>
        <time>2021-11-22T09:29:01.101Z</time>
      </trkpt>
      <trkpt lat="47.671464" lon="8.020084">
        <ele>862.725646</ele>
        <time>2021-11-22T09:29:01.750Z</time>
      </trkpt>
      <trkpt lat="47.671324" lon="8.020076">
        <ele>862.499004</ele>
        <time>2021-11-22T09:29:03.355Z</time>
      </trkpt>
      <trkpt lat="47.671103" lon="8.020053">
        <ele>862.140621</ele>
        <time>2021-11-22T09:29:05.651Z</time>
      </trkpt>
      <trkpt lat="47.670708" lon="8.020027">
        <ele>861.501013</ele>
        <time>2021-11-22T09:29:09.976Z</time>
      </trkpt>
      <trkpt lat="47.670237" lon="8.020130">
        <ele>860.730871</ele>
        <time>2021-11-22T09:29:15.314Z</time>
      </trkpt>
      <trkpt lat="47.670070" lon="8.020211">
        <ele>860.446675</ele>
        <time>2021-11-22T09:29:17.205Z</time>
      </trkpt>
      <trkpt lat="47.669793" lon="8.020390">
        <ele>860.230219</ele>
        <time>2021-11-22T09:29:21.713Z</time>
      </trkpt>
      <trkpt lat="47.669175" lon="8.020833">
        <ele>861.805866</ele>
        <time>2021-11-22T09:29:35.225Z</time>
      </trkpt>
      <trkpt lat="47.668759" lon="8.021101">
        <ele>862.847048</ele>
        <time>2021-11-22T09:29:46.121Z</time>
      </trkpt>
      <trkpt lat="47.668571" lon="8.021169">
        <ele>863.291331</ele>
        <time>2021-11-22T09:29:52.349Z</time>
      </trkpt>
      <trkpt lat="47.668218" lon="8.021199">
        <ele>864.103172</ele>
        <time>2021-11-22T09:30:03.549Z</time>
      </trkpt>
      <trkpt lat="47.668040" lon="8.021148">
        <ele>864.890733</ele>
        <time>2021-11-22T09:30:09.056Z</time>
      </trkpt>
      <trkpt lat="47.667481" lon="8.020788">
        <ele>867.917826</ele>
        <time>2021-11-22T09:30:31.674Z</time>
      </trkpt>
      <trkpt lat="47.667031" lon="8.020337">
        <ele>870.615025</ele>
        <time>2021-11-22T09:30:52.546Z</time>
      </trkpt>
      <trkpt lat="47.666314" lon="8.019410">
        <ele>873.534864</ele>
        <time>2021-11-22T09:31:23.917Z</time>
      </trkpt>
      <trkpt lat="47.666170" lon="8.019159">
        <ele>873.734618</ele>
        <time>2021-11-22T09:31:28.450Z</time>
      </trkpt>
      <trkpt lat="47.665880" lon="8.018657">
        <ele>874.135294</ele>
        <time>2021-11-22T09:31:35.515Z</time>
      </trkpt>
      <trkpt lat="47.665645" lon="8.018248">
        <ele>874.460997</ele>
        <time>2021-11-22T09:31:40.154Z</time>
      </trkpt>
      <trkpt lat="47.665410" lon="8.017749">
        <ele>874.525407</ele>
        <time>2021-11-22T09:31:44.822Z</time>
      </trkpt>
      <trkpt lat="47.665207" lon="8.017298">
        <ele>873.532901</ele>
        <time>2021-11-22T09:31:48.687Z</time>
      </trkpt>
      <trkpt lat="47.664888" lon="8.016817">
        <ele>872.297748</ele>
        <time>2021-11-22T09:31:53.332Z</time>
      </trkpt>
      <trkpt lat="47.664595" lon="8.016715">
        <ele>871.480145</ele>
        <time>2021-11-22T09:31:56.398Z</time>
      </trkpt>
      <trkpt lat="47.664322" lon="8.016849">
        <ele>870.698989</ele>
        <time>2021-11-22T09:31:59.270Z</time>
      </trkpt>
      <trkpt lat="47.663915" lon="8.017320">
        <ele>869.249918</ele>
        <time>2021-11-22T09:32:04.514Z</time>
      </trkpt>
      <trkpt lat="47.663563" lon="8.017377">
        <ele>868.208398</ele>
        <time>2021-11-22T09:32:08.403Z</time>
      </trkpt>
      <trkpt lat="47.663321" lon="8.017319">
        <ele>867.487360</ele>
        <time>2021-11-22T09:32:11.061Z</time>
      </trkpt>
      <trkpt lat="47.662589" lon="8.016828">
        <ele>865.124725</ele>
        <time>2021-11-22T09:32:19.444Z</time>
      </trkpt>
      <trkpt lat="47.661787" lon="8.015942">
        <ele>861.117376</ele>
        <time>2021-11-22T09:32:29.072Z</time>
      </trkpt>
      <trkpt lat="47.661261" lon="8.015457">
        <ele>858.483957</ele>
        <time>2021-11-22T09:32:34.939Z</time>
      </trkpt>
      <trkpt lat="47.661033" lon="8.015298">
        <ele>857.412612</ele>
        <time>2021-11-22T09:32:37.302Z</time>
      </trkpt>
      <trkpt lat="47.660694" lon="8.015110">
        <ele>856.821469</ele>
        <time>2021-11-22T09:32:40.759Z</time>
      </trkpt>
      <trkpt lat="47.660207" lon="8.014767">
        <ele>856.591403</ele>
        <time>2021-11-22T09:32:47.046Z</time>
      </trkpt>
      <trkpt lat="47.659909" lon="8.014292">
        <ele>856.404790</ele>
        <time>2021-11-22T09:32:55.093Z</time>
      </trkpt>
      <trkpt lat="47.659663" lon="8.013759">
        <ele>856.219039</ele>
        <time>2021-11-22T09:33:05.426Z</time>
      </trkpt>
      <trkpt lat="47.659585" lon="8.013645">
        <ele>856.172323</ele>
        <time>2021-11-22T09:33:07.135Z</time>
      </trkpt>
      <trkpt lat="47.659461" lon="8.013520">
        <ele>856.245611</ele>
        <time>2021-11-22T09:33:12.064Z</time>
      </trkpt>
      <trkpt lat="47.659203" lon="8.013313">
        <ele>856.456280</ele>
        <time>2021-11-22T09:33:17.857Z</time>
      </trkpt>
      <trkpt lat="47.658947" lon="8.013116">
        <ele>856.663415</ele>
        <time>2021-11-22T09:33:23.432Z</time>
      </trkpt>
      <trkpt lat="47.658746" lon="8.012848">
        <ele>856.857487</ele>
        <time>2021-11-22T09:33:29.336Z</time>
      </trkpt>
      <trkpt lat="47.658620" lon="8.012560">
        <ele>857.023652</ele>
        <time>2021-11-22T09:33:34.815Z</time>
      </trkpt>
      <trkpt lat="47.658460" lon="8.012239">
        <ele>857.216872</ele>
        <time>2021-11-22T09:33:38.369Z</time>
      </trkpt>
      <trkpt lat="47.658202" lon="8.011892">
        <ele>857.392473</ele>
        <time>2021-11-22T09:33:43.281Z</time>
      </trkpt>
      <trkpt lat="47.657873" lon="8.011642">
        <ele>856.370771</ele>
        <time>2021-11-22T09:33:47.152Z</time>
      </trkpt>
      <trkpt lat="47.657300" lon="8.011543">
        <ele>854.776063</ele>
        <time>2021-11-22T09:33:52.811Z</time>
      </trkpt>
      <trkpt lat="47.657021" lon="8.011540">
        <ele>854.004766</ele>
        <time>2021-11-22T09:33:55.507Z</time>
      </trkpt>
      <trkpt lat="47.656912" lon="8.011553">
        <ele>853.702473</ele>
        <time>2021-11-22T09:33:56.694Z</time>
      </trkpt>
      <trkpt lat="47.656296" lon="8.011585">
        <ele>852.068295</ele>
        <time>2021-11-22T09:34:03.216Z</time>
      </trkpt>
      <trkpt lat="47.656095" lon="8.011596">
        <ele>851.592931</ele>
        <time>2021-11-22T09:34:05.453Z</time>
      </trkpt>
      <trkpt lat="47.655654" lon="8.011463">
        <ele>850.529386</ele>
        <time>2021-11-22T09:34:10.282Z</time>
      </trkpt>
      <trkpt lat="47.655421" lon="8.011331">
        <ele>849.939983</ele>
        <time>2021-11-22T09:34:13.104Z</time>
      </trkpt>
      <trkpt lat="47.655159" lon="8.011068">
        <ele>849.192510</ele>
        <time>2021-11-22T09:34:16.680Z</time>
      </trkpt>
      <trkpt lat="47.654909" lon="8.010618">
        <ele>848.263904</ele>
        <time>2021-11-22T09:34:20.908Z</time>
      </trkpt>
      <trkpt lat="47.654667" lon="8.009807">
        <ele>844.624680</ele>
        <time>2021-11-22T09:34:26.841Z</time>
      </trkpt>
      <trkpt lat="47.654406" lon="8.009271">
        <ele>841.868399</ele>
        <time>2021-11-22T09:34:30.920Z</time>
      </trkpt>
      <trkpt lat="47.653890" lon="8.008724">
        <ele>837.945641</ele>
        <time>2021-11-22T09:34:36.497Z</time>
      </trkpt>
      <trkpt lat="47.653433" lon="8.008511">
        <ele>834.026783</ele>
        <time>2021-11-22T09:34:40.644Z</time>
      </trkpt>
      <trkpt lat="47.653079" lon="8.008399">
        <ele>830.777512</ele>
        <time>2021-11-22T09:34:43.786Z</time>
      </trkpt>
      <trkpt lat="47.652961" lon="8.008365">
        <ele>829.698443</ele>
        <time>2021-11-22T09:34:44.846Z</time>
      </trkpt>
      <trkpt lat="47.652247" lon="8.008164">
        <ele>823.174547</ele>
        <time>2021-11-22T09:34:51.161Z</time>
      </trkpt>
      <trkpt lat="47.652087" lon="8.008133">
        <ele>821.726026</ele>
        <time>2021-11-22T09:34:52.566Z</time>
      </trkpt>
      <trkpt lat="47.651879" lon="8.008189">
        <ele>820.159460</ele>
        <time>2021-11-22T09:34:54.405Z</time>
      </trkpt>
      <trkpt lat="47.651438" lon="8.008748">
        <ele>816.485113</ele>
        <time>2021-11-22T09:34:59.522Z</time>
      </trkpt>
      <trkpt lat="47.651228" lon="8.008918">
        <ele>814.969519</ele>
        <time>2021-11-22T09:35:01.783Z</time>
      </trkpt>
      <trkpt lat="47.651195" lon="8.008934">
        <ele>814.749554</ele>
        <time>2021-11-22T09:35:02.088Z</time>
      </trkpt>
      <trkpt lat="47.651119" lon="8.008974">
        <ele>814.238631</ele>
        <time>2021-11-22T09:35:02.784Z</time>
      </trkpt>
      <trkpt lat="47.650513" lon="8.009097">
        <ele>810.363164</ele>
        <time>2021-11-22T09:35:08.710Z</time>
      </trkpt>
      <trkpt lat="47.650285" lon="8.009248">
        <ele>809.081275</ele>
        <time>2021-11-22T09:35:11.050Z</time>
      </trkpt>
      <trkpt lat="47.648808" lon="8.011136">
        <ele>801.782075</ele>
        <time>2021-11-22T09:35:30.289Z</time>
      </trkpt>
      <trkpt lat="47.648498" lon="8.011376">
        <ele>800.777591</ele>
        <time>2021-11-22T09:35:33.819Z</time>
      </trkpt>
      <trkpt lat="47.648139" lon="8.011511">
        <ele>799.713605</ele>
        <time>2021-11-22T09:35:37.597Z</time>
      </trkpt>
      <trkpt lat="47.647931" lon="8.011553">
        <ele>799.110519</ele>
        <time>2021-11-22T09:35:39.746Z</time>
      </trkpt>
      <trkpt lat="47.647700" lon="8.011578">
        <ele>798.445097</ele>
        <time>2021-11-22T09:35:42.202Z</time>
      </trkpt>
      <trkpt lat="47.647461" lon="8.011563">
        <ele>797.757838</ele>
        <time>2021-11-22T09:35:44.808Z</time>
      </trkpt>
      <trkpt lat="47.647254" lon="8.011528">
        <ele>797.325883</ele>
        <time>2021-11-22T09:35:47.075Z</time>
      </trkpt>
      <trkpt lat="47.647129" lon="8.011490">
        <ele>797.214166</ele>
        <time>2021-11-22T09:35:48.533Z</time>
      </trkpt>
      <trkpt lat="47.646783" lon="8.011351">
        <ele>796.900323</ele>
        <time>2021-11-22T09:35:52.637Z</time>
      </trkpt>
      <trkpt lat="47.646418" lon="8.011132">
        <ele>796.555623</ele>
        <time>2021-11-22T09:35:57.313Z</time>
      </trkpt>
      <trkpt lat="47.646246" lon="8.010992">
        <ele>796.383870</ele>
        <time>2021-11-22T09:35:59.850Z</time>
      </trkpt>
      <trkpt lat="47.646056" lon="8.010808">
        <ele>796.185239</ele>
        <time>2021-11-22T09:36:03.067Z</time>
      </trkpt>
      <trkpt lat="47.645893" lon="8.010578">
        <ele>795.988326</ele>
        <time>2021-11-22T09:36:06.225Z</time>
      </trkpt>
      <trkpt lat="47.645752" lon="8.010251">
        <ele>795.861391</ele>
        <time>2021-11-22T09:36:10.425Z</time>
      </trkpt>
      <trkpt lat="47.645630" lon="8.009847">
        <ele>796.011765</ele>
        <time>2021-11-22T09:36:15.626Z</time>
      </trkpt>
      <trkpt lat="47.645380" lon="8.008349">
        <ele>796.535944</ele>
        <time>2021-11-22T09:36:33.991Z</time>
      </trkpt>
      <trkpt lat="47.645208" lon="8.007812">
        <ele>796.738615</ele>
        <time>2021-11-22T09:36:40.457Z</time>
      </trkpt>
      <trkpt lat="47.645005" lon="8.007361">
        <ele>796.941558</ele>
        <time>2021-11-22T09:36:46.282Z</time>
      </trkpt>
      <trkpt lat="47.644813" lon="8.006998">
        <ele>797.114236</ele>
        <time>2021-11-22T09:36:51.348Z</time>
      </trkpt>
      <trkpt lat="47.644652" lon="8.006827">
        <ele>797.224184</ele>
        <time>2021-11-22T09:36:54.466Z</time>
      </trkpt>
      <trkpt lat="47.644119" lon="8.006394">
        <ele>797.561632</ele>
        <time>2021-11-22T09:37:04.572Z</time>
      </trkpt>
      <trkpt lat="47.643978" lon="8.006145">
        <ele>797.683337</ele>
        <time>2021-11-22T09:37:08.178Z</time>
      </trkpt>
      <trkpt lat="47.643811" lon="8.005674">
        <ele>798.233605</ele>
        <time>2021-11-22T09:37:14.850Z</time>
      </trkpt>
      <trkpt lat="47.643684" lon="8.005510">
        <ele>798.542059</ele>
        <time>2021-11-22T09:37:19.462Z</time>
      </trkpt>
      <trkpt lat="47.642796" lon="8.004845">
        <ele>800.364565</ele>
        <time>2021-11-22T09:37:43.207Z</time>
      </trkpt>
      <trkpt lat="47.642796" lon="8.004845">
        <ele>800.364565</ele>
        <time>2021-11-22T09:37:43.321Z</time>
      </trkpt>
      <trkpt lat="47.642427" lon="8.004770">
        <ele>801.024386</ele>
        <time>2021-11-22T09:37:51.349Z</time>
      </trkpt>
      <trkpt lat="47.642337" lon="8.004796">
        <ele>801.015466</ele>
        <time>2021-11-22T09:37:54.220Z</time>
      </trkpt>
      <trkpt lat="47.642209" lon="8.004861">
        <ele>801.002304</ele>
        <time>2021-11-22T09:37:55.963Z</time>
      </trkpt>
      <trkpt lat="47.641961" lon="8.005163">
        <ele>800.971095</ele>
        <time>2021-11-22T09:38:01.961Z</time>
      </trkpt>
      <trkpt lat="47.641834" lon="8.005484">
        <ele>800.946695</ele>
        <time>2021-11-22T09:38:07.526Z</time>
      </trkpt>
      <trkpt lat="47.641804" lon="8.005576">
        <ele>800.939995</ele>
        <time>2021-11-22T09:38:08.216Z</time>
      </trkpt>
      <trkpt lat="47.641616" lon="8.005980">
        <ele>800.907811</ele>
        <time>2021-11-22T09:38:14.045Z</time>
      </trkpt>
      <trkpt lat="47.641404" lon="8.006152">
        <ele>800.884305</ele>
        <time>2021-11-22T09:38:17.038Z</time>
      </trkpt>
      <trkpt lat="47.640890" lon="8.006404">
        <ele>800.046982</ele>
        <time>2021-11-22T09:38:22.917Z</time>
      </trkpt>
      <trkpt lat="47.640257" lon="8.007048">
        <ele>796.872393</ele>
        <time>2021-11-22T09:38:30.265Z</time>
      </trkpt>
      <trkpt lat="47.640044" lon="8.007144">
        <ele>795.951571</ele>
        <time>2021-11-22T09:38:32.375Z</time>
      </trkpt>
      <trkpt lat="47.639834" lon="8.007071">
        <ele>795.059381</ele>
        <time>2021-11-22T09:38:34.500Z</time>
      </trkpt>
      <trkpt lat="47.639742" lon="8.006994">
        <ele>794.622473</ele>
        <time>2021-11-22T09:38:35.454Z</time>
      </trkpt>
      <trkpt lat="47.639631" lon="8.006838">
        <ele>793.990113</ele>
        <time>2021-11-22T09:38:36.878Z</time>
      </trkpt>
      <trkpt lat="47.639493" lon="8.006606">
        <ele>793.094758</ele>
        <time>2021-11-22T09:38:38.872Z</time>
      </trkpt>
      <trkpt lat="47.639324" lon="8.006323">
        <ele>791.918498</ele>
        <time>2021-11-22T09:38:41.361Z</time>
      </trkpt>
      <trkpt lat="47.639248" lon="8.006245">
        <ele>791.491927</ele>
        <time>2021-11-22T09:38:42.185Z</time>
      </trkpt>
      <trkpt lat="47.639158" lon="8.006154">
        <ele>790.989185</ele>
        <time>2021-11-22T09:38:43.212Z</time>
      </trkpt>
      <trkpt lat="47.638830" lon="8.006018">
        <ele>789.417000</ele>
        <time>2021-11-22T09:38:46.464Z</time>
      </trkpt>
      <trkpt lat="47.638494" lon="8.006004">
        <ele>787.865256</ele>
        <time>2021-11-22T09:38:49.642Z</time>
      </trkpt>
      <trkpt lat="47.638358" lon="8.005969">
        <ele>787.228046</ele>
        <time>2021-11-22T09:38:50.963Z</time>
      </trkpt>
      <trkpt lat="47.638215" lon="8.005891">
        <ele>786.524717</ele>
        <time>2021-11-22T09:38:52.355Z</time>
      </trkpt>
      <trkpt lat="47.638107" lon="8.005814">
        <ele>785.971590</ele>
        <time>2021-11-22T09:38:53.583Z</time>
      </trkpt>
      <trkpt lat="47.637957" lon="8.005580">
        <ele>784.998424</ele>
        <time>2021-11-22T09:38:55.669Z</time>
      </trkpt>
      <trkpt lat="47.637787" lon="8.004794">
        <ele>783.008168</ele>
        <time>2021-11-22T09:39:01.292Z</time>
      </trkpt>
      <trkpt lat="47.637523" lon="8.004214">
        <ele>781.320642</ele>
        <time>2021-11-22T09:39:05.994Z</time>
      </trkpt>
      <trkpt lat="47.637184" lon="8.003698">
        <ele>779.583106</ele>
        <time>2021-11-22T09:39:10.802Z</time>
      </trkpt>
      <trkpt lat="47.636315" lon="8.003463">
        <ele>777.521591</ele>
        <time>2021-11-22T09:39:19.716Z</time>
      </trkpt>
      <trkpt lat="47.636070" lon="8.003329">
        <ele>777.043947</ele>
        <time>2021-11-22T09:39:22.568Z</time>
      </trkpt>
      <trkpt lat="47.635796" lon="8.002999">
        <ele>776.398432</ele>
        <time>2021-11-22T09:39:26.822Z</time>
      </trkpt>
      <trkpt lat="47.635608" lon="8.002439">
        <ele>775.627223</ele>
        <time>2021-11-22T09:39:33.169Z</time>
      </trkpt>
      <trkpt lat="47.635108" lon="8.000327">
        <ele>773.678551</ele>
        <time>2021-11-22T09:39:51.819Z</time>
      </trkpt>
      <trkpt lat="47.634953" lon="7.999648">
        <ele>773.023711</ele>
        <time>2021-11-22T09:39:57.071Z</time>
      </trkpt>
      <trkpt lat="47.634762" lon="7.999174">
        <ele>772.203591</ele>
        <time>2021-11-22T09:40:00.964Z</time>
      </trkpt>
      <trkpt lat="47.634587" lon="7.998962">
        <ele>771.705766</ele>
        <time>2021-11-22T09:40:03.330Z</time>
      </trkpt>
      <trkpt lat="47.634410" lon="7.998818">
        <ele>771.260944</ele>
        <time>2021-11-22T09:40:05.329Z</time>
      </trkpt>
      <trkpt lat="47.633905" lon="7.998683">
        <ele>770.130169</ele>
        <time>2021-11-22T09:40:10.510Z</time>
      </trkpt>
      <trkpt lat="47.633717" lon="7.998578">
        <ele>769.687505</ele>
        <time>2021-11-22T09:40:12.716Z</time>
      </trkpt>
      <trkpt lat="47.633574" lon="7.998408">
        <ele>769.283728</ele>
        <time>2021-11-22T09:40:14.948Z</time>
      </trkpt>
      <trkpt lat="47.633477" lon="7.998164">
        <ele>769.238319</ele>
        <time>2021-11-22T09:40:17.524Z</time>
      </trkpt>
      <trkpt lat="47.633385" lon="7.997544">
        <ele>769.382683</ele>
        <time>2021-11-22T09:40:26.011Z</time>
      </trkpt>
      <trkpt lat="47.633251" lon="7.995948">
        <ele>769.748417</ele>
        <time>2021-11-22T09:40:45.234Z</time>
      </trkpt>
      <trkpt lat="47.633236" lon="7.995517">
        <ele>769.743912</ele>
        <time>2021-11-22T09:40:50.221Z</time>
      </trkpt>
      <trkpt lat="47.633225" lon="7.995204">
        <ele>769.672080</ele>
        <time>2021-11-22T09:40:52.872Z</time>
      </trkpt>
      <trkpt lat="47.633165" lon="7.994756">
        <ele>769.567396</ele>
        <time>2021-11-22T09:40:57.687Z</time>
      </trkpt>
      <trkpt lat="47.633096" lon="7.994417">
        <ele>769.486236</ele>
        <time>2021-11-22T09:41:01.255Z</time>
      </trkpt>
      <trkpt lat="47.633034" lon="7.994185">
        <ele>769.429036</ele>
        <time>2021-11-22T09:41:03.202Z</time>
      </trkpt>
      <trkpt lat="47.632976" lon="7.993592">
        <ele>769.291704</ele>
        <time>2021-11-22T09:41:08.319Z</time>
      </trkpt>
      <trkpt lat="47.633263" lon="7.990675">
        <ele>768.374028</ele>
        <time>2021-11-22T09:41:33.753Z</time>
      </trkpt>
      <trkpt lat="47.633206" lon="7.989849">
        <ele>768.392382</ele>
        <time>2021-11-22T09:41:43.488Z</time>
      </trkpt>
      <trkpt lat="47.633172" lon="7.989666">
        <ele>768.416556</ele>
        <time>2021-11-22T09:41:45.886Z</time>
      </trkpt>
      <trkpt lat="47.633147" lon="7.989515">
        <ele>768.436357</ele>
        <time>2021-11-22T09:41:47.589Z</time>
      </trkpt>
      <trkpt lat="47.632909" lon="7.988820">
        <ele>768.535636</ele>
        <time>2021-11-22T09:41:56.172Z</time>
      </trkpt>
      <trkpt lat="47.632690" lon="7.988422">
        <ele>768.601071</ele>
        <time>2021-11-22T09:42:01.529Z</time>
      </trkpt>
      <trkpt lat="47.632504" lon="7.988217">
        <ele>768.644856</ele>
        <time>2021-11-22T09:42:04.912Z</time>
      </trkpt>
      <trkpt lat="47.632324" lon="7.988059">
        <ele>768.414701</ele>
        <time>2021-11-22T09:42:07.937Z</time>
      </trkpt>
      <trkpt lat="47.632243" lon="7.988006">
        <ele>768.296085</ele>
        <time>2021-11-22T09:42:09.112Z</time>
      </trkpt>
      <trkpt lat="47.632056" lon="7.987880">
        <ele>768.020901</ele>
        <time>2021-11-22T09:42:11.722Z</time>
      </trkpt>
      <trkpt lat="47.631642" lon="7.987687">
        <ele>767.439447</ele>
        <time>2021-11-22T09:42:17.081Z</time>
      </trkpt>
      <trkpt lat="47.631277" lon="7.987638">
        <ele>766.948381</ele>
        <time>2021-11-22T09:42:21.321Z</time>
      </trkpt>
      <trkpt lat="47.630656" lon="7.987791">
        <ele>765.936959</ele>
        <time>2021-11-22T09:42:28.123Z</time>
      </trkpt>
      <trkpt lat="47.628500" lon="7.989076">
        <ele>758.726520</ele>
        <time>2021-11-22T09:42:51.735Z</time>
      </trkpt>
      <trkpt lat="47.627783" lon="7.989478">
        <ele>756.118981</ele>
        <time>2021-11-22T09:42:59.331Z</time>
      </trkpt>
      <trkpt lat="47.627745" lon="7.989499">
        <ele>755.981030</ele>
        <time>2021-11-22T09:42:59.734Z</time>
      </trkpt>
      <trkpt lat="47.627368" lon="7.989707">
        <ele>754.647885</ele>
        <time>2021-11-22T09:43:03.739Z</time>
      </trkpt>
      <trkpt lat="47.627037" lon="7.989869">
        <ele>753.793999</ele>
        <time>2021-11-22T09:43:07.252Z</time>
      </trkpt>
      <trkpt lat="47.626890" lon="7.989948">
        <ele>753.410973</ele>
        <time>2021-11-22T09:43:08.849Z</time>
      </trkpt>
      <trkpt lat="47.626641" lon="7.990055">
        <ele>752.775885</ele>
        <time>2021-11-22T09:43:11.477Z</time>
      </trkpt>
      <trkpt lat="47.626285" lon="7.990191">
        <ele>751.875284</ele>
        <time>2021-11-22T09:43:15.350Z</time>
      </trkpt>
      <trkpt lat="47.626059" lon="7.990262">
        <ele>751.309336</ele>
        <time>2021-11-22T09:43:17.924Z</time>
      </trkpt>
      <trkpt lat="47.626001" lon="7.990279">
        <ele>751.164497</ele>
        <time>2021-11-22T09:43:18.542Z</time>
      </trkpt>
      <trkpt lat="47.625865" lon="7.990306">
        <ele>750.828344</ele>
        <time>2021-11-22T09:43:20.099Z</time>
      </trkpt>
      <trkpt lat="47.625484" lon="7.990308">
        <ele>750.422184</ele>
        <time>2021-11-22T09:43:24.610Z</time>
      </trkpt>
      <trkpt lat="47.625165" lon="7.990242">
        <ele>750.585049</ele>
        <time>2021-11-22T09:43:28.878Z</time>
      </trkpt>
      <trkpt lat="47.625082" lon="7.990226">
        <ele>750.627371</ele>
        <time>2021-11-22T09:43:30.333Z</time>
      </trkpt>
      <trkpt lat="47.624491" lon="7.989945">
        <ele>750.941183</ele>
        <time>2021-11-22T09:43:41.289Z</time>
      </trkpt>
      <trkpt lat="47.624001" lon="7.989485">
        <ele>751.234386</ele>
        <time>2021-11-22T09:43:53.508Z</time>
      </trkpt>
      <trkpt lat="47.623838" lon="7.989292">
        <ele>751.551536</ele>
        <time>2021-11-22T09:43:58.288Z</time>
      </trkpt>
      <trkpt lat="47.623561" lon="7.988865">
        <ele>752.188222</ele>
        <time>2021-11-22T09:44:07.452Z</time>
      </trkpt>
      <trkpt lat="47.623561" lon="7.988865">
        <ele>752.188222</ele>
        <time>2021-11-22T09:44:07.481Z</time>
      </trkpt>
      <trkpt lat="47.623508" lon="7.988782">
        <ele>752.311053</ele>
        <time>2021-11-22T09:44:09.096Z</time>
      </trkpt>
      <trkpt lat="47.623303" lon="7.988291">
        <ele>752.931544</ele>
        <time>2021-11-22T09:44:17.904Z</time>
      </trkpt>
      <trkpt lat="47.623087" lon="7.987725">
        <ele>753.630309</ele>
        <time>2021-11-22T09:44:27.860Z</time>
      </trkpt>
      <trkpt lat="47.622073" lon="7.985033">
        <ele>754.832582</ele>
        <time>2021-11-22T09:45:03.361Z</time>
      </trkpt>
      <trkpt lat="47.622067" lon="7.985017">
        <ele>754.837607</ele>
        <time>2021-11-22T09:45:03.585Z</time>
      </trkpt>
      <trkpt lat="47.621842" lon="7.984392">
        <ele>753.784022</ele>
        <time>2021-11-22T09:45:09.417Z</time>
      </trkpt>
      <trkpt lat="47.621773" lon="7.984199">
        <ele>753.452881</ele>
        <time>2021-11-22T09:45:11.053Z</time>
      </trkpt>
      <trkpt lat="47.621453" lon="7.983289">
        <ele>751.897127</ele>
        <time>2021-11-22T09:45:18.460Z</time>
      </trkpt>
      <trkpt lat="47.621414" lon="7.983181">
        <ele>751.711413</ele>
        <time>2021-11-22T09:45:19.273Z</time>
      </trkpt>
      <trkpt lat="47.621434" lon="7.983161">
        <ele>751.657175</ele>
        <time>2021-11-22T09:45:19.966Z</time>
      </trkpt>
      <trkpt lat="47.621434" lon="7.983161">
        <ele>751.657175</ele>
        <time>2021-11-22T09:45:20.028Z</time>
      </trkpt>
      <trkpt lat="47.621434" lon="7.983161">
        <ele>751.657175</ele>
        <time>2021-11-22T09:45:20.390Z</time>
      </trkpt>
      <trkpt lat="47.621414" lon="7.983181">
        <ele>751.602936</ele>
        <time>2021-11-22T09:45:21.179Z</time>
      </trkpt>
      <trkpt lat="47.621287" lon="7.982952">
        <ele>751.153439</ele>
        <time>2021-11-22T09:45:23.187Z</time>
      </trkpt>
      <trkpt lat="47.621148" lon="7.982684">
        <ele>750.455656</ele>
        <time>2021-11-22T09:45:25.399Z</time>
      </trkpt>
      <trkpt lat="47.620712" lon="7.982017">
        <ele>747.365338</ele>
        <time>2021-11-22T09:45:31.322Z</time>
      </trkpt>
      <trkpt lat="47.620533" lon="7.981699">
        <ele>745.987359</ele>
        <time>2021-11-22T09:45:33.881Z</time>
      </trkpt>
      <trkpt lat="47.620263" lon="7.981105">
        <ele>743.604452</ele>
        <time>2021-11-22T09:45:38.391Z</time>
      </trkpt>
      <trkpt lat="47.619965" lon="7.980295">
        <ele>740.825719</ele>
        <time>2021-11-22T09:45:44.273Z</time>
      </trkpt>
      <trkpt lat="47.619797" lon="7.980012">
        <ele>739.834466</ele>
        <time>2021-11-22T09:45:46.804Z</time>
      </trkpt>
      <trkpt lat="47.619731" lon="7.979949">
        <ele>739.528415</ele>
        <time>2021-11-22T09:45:47.502Z</time>
      </trkpt>
      <trkpt lat="47.619309" lon="7.979839">
        <ele>737.857540</ele>
        <time>2021-11-22T09:45:51.695Z</time>
      </trkpt>
      <trkpt lat="47.619073" lon="7.979702">
        <ele>736.869267</ele>
        <time>2021-11-22T09:45:54.264Z</time>
      </trkpt>
      <trkpt lat="47.618976" lon="7.979589">
        <ele>736.388313</ele>
        <time>2021-11-22T09:45:55.543Z</time>
      </trkpt>
      <trkpt lat="47.618419" lon="7.978768">
        <ele>733.466596</ele>
        <time>2021-11-22T09:46:03.553Z</time>
      </trkpt>
      <trkpt lat="47.617897" lon="7.977926">
        <ele>730.726370</ele>
        <time>2021-11-22T09:46:11.304Z</time>
      </trkpt>
      <trkpt lat="47.617863" lon="7.977860">
        <ele>730.527392</ele>
        <time>2021-11-22T09:46:11.768Z</time>
      </trkpt>
      <trkpt lat="47.617183" lon="7.976739">
        <ele>728.006460</ele>
        <time>2021-11-22T09:46:22.033Z</time>
      </trkpt>
      <trkpt lat="47.617143" lon="7.976643">
        <ele>727.920556</ele>
        <time>2021-11-22T09:46:22.687Z</time>
      </trkpt>
      <trkpt lat="47.617122" lon="7.976576">
        <ele>727.864314</ele>
        <time>2021-11-22T09:46:23.375Z</time>
      </trkpt>
      <trkpt lat="47.617087" lon="7.976456">
        <ele>727.764791</ele>
        <time>2021-11-22T09:46:24.454Z</time>
      </trkpt>
      <trkpt lat="47.617050" lon="7.976280">
        <ele>727.624463</ele>
        <time>2021-11-22T09:46:27.167Z</time>
      </trkpt>
      <trkpt lat="47.617035" lon="7.976194">
        <ele>727.556847</ele>
        <time>2021-11-22T09:46:27.699Z</time>
      </trkpt>
      <trkpt lat="47.616932" lon="7.975644">
        <ele>727.122351</ele>
        <time>2021-11-22T09:46:32.696Z</time>
      </trkpt>
      <trkpt lat="47.616823" lon="7.975315">
        <ele>726.843316</ele>
        <time>2021-11-22T09:46:37.811Z</time>
      </trkpt>
      <trkpt lat="47.616605" lon="7.975163">
        <ele>726.571320</ele>
        <time>2021-11-22T09:46:41.246Z</time>
      </trkpt>
      <trkpt lat="47.616374" lon="7.975153">
        <ele>726.986874</ele>
        <time>2021-11-22T09:46:45.766Z</time>
      </trkpt>
      <trkpt lat="47.615835" lon="7.975151">
        <ele>728.751813</ele>
        <time>2021-11-22T09:47:00.754Z</time>
      </trkpt>
      <trkpt lat="47.615388" lon="7.975207">
        <ele>730.220706</ele>
        <time>2021-11-22T09:47:15.043Z</time>
      </trkpt>
      <trkpt lat="47.615223" lon="7.975285">
        <ele>730.787761</ele>
        <time>2021-11-22T09:47:20.426Z</time>
      </trkpt>
      <trkpt lat="47.614735" lon="7.975625">
        <ele>732.603782</ele>
        <time>2021-11-22T09:47:37.031Z</time>
      </trkpt>
      <trkpt lat="47.614050" lon="7.976273">
        <ele>736.013244</ele>
        <time>2021-11-22T09:48:00.651Z</time>
      </trkpt>
      <trkpt lat="47.613802" lon="7.976286">
        <ele>737.054656</ele>
        <time>2021-11-22T09:48:07.869Z</time>
      </trkpt>
      <trkpt lat="47.613439" lon="7.976020">
        <ele>738.753762</ele>
        <time>2021-11-22T09:48:22.020Z</time>
      </trkpt>
      <trkpt lat="47.613266" lon="7.975808">
        <ele>739.695470</ele>
        <time>2021-11-22T09:48:29.899Z</time>
      </trkpt>
      <trkpt lat="47.613184" lon="7.975689">
        <ele>740.178801</ele>
        <time>2021-11-22T09:48:34.075Z</time>
      </trkpt>
      <trkpt lat="47.612962" lon="7.975399">
        <ele>741.429522</ele>
        <time>2021-11-22T09:48:44.015Z</time>
      </trkpt>
      <trkpt lat="47.612866" lon="7.975328">
        <ele>741.883074</ele>
        <time>2021-11-22T09:48:47.844Z</time>
      </trkpt>
      <trkpt lat="47.612866" lon="7.975328">
        <ele>741.883074</ele>
        <time>2021-11-22T09:48:48.075Z</time>
      </trkpt>
      <trkpt lat="47.612717" lon="7.975295">
        <ele>742.520046</ele>
        <time>2021-11-22T09:48:52.504Z</time>
      </trkpt>
      <trkpt lat="47.612535" lon="7.975326">
        <ele>743.294620</ele>
        <time>2021-11-22T09:48:58.251Z</time>
      </trkpt>
      <trkpt lat="47.612357" lon="7.975517">
        <ele>744.223493</ele>
        <time>2021-11-22T09:49:05.460Z</time>
      </trkpt>
      <trkpt lat="47.612223" lon="7.975718">
        <ele>745.029246</ele>
        <time>2021-11-22T09:49:12.879Z</time>
      </trkpt>
      <trkpt lat="47.612133" lon="7.975906">
        <ele>745.686482</ele>
        <time>2021-11-22T09:49:16.966Z</time>
      </trkpt>
      <trkpt lat="47.611876" lon="7.976376">
        <ele>747.411443</ele>
        <time>2021-11-22T09:49:29.164Z</time>
      </trkpt>
      <trkpt lat="47.611711" lon="7.976600">
        <ele>747.092921</ele>
        <time>2021-11-22T09:49:36.159Z</time>
      </trkpt>
      <trkpt lat="47.611588" lon="7.976702">
        <ele>746.781906</ele>
        <time>2021-11-22T09:49:39.464Z</time>
      </trkpt>
      <trkpt lat="47.611343" lon="7.976840">
        <ele>746.203496</ele>
        <time>2021-11-22T09:49:44.031Z</time>
      </trkpt>
      <trkpt lat="47.610048" lon="7.976910">
        <ele>742.741291</ele>
        <time>2021-11-22T09:49:56.557Z</time>
      </trkpt>
      <trkpt lat="47.609956" lon="7.976908">
        <ele>741.965041</ele>
        <time>2021-11-22T09:49:57.390Z</time>
      </trkpt>
      <trkpt lat="47.609734" lon="7.976902">
        <ele>740.091804</ele>
        <time>2021-11-22T09:49:59.367Z</time>
      </trkpt>
      <trkpt lat="47.609554" lon="7.976848">
        <ele>738.542467</ele>
        <time>2021-11-22T09:50:00.969Z</time>
      </trkpt>
      <trkpt lat="47.609405" lon="7.976774">
        <ele>737.216821</ele>
        <time>2021-11-22T09:50:02.374Z</time>
      </trkpt>
      <trkpt lat="47.609225" lon="7.976647">
        <ele>735.535184</ele>
        <time>2021-11-22T09:50:04.092Z</time>
      </trkpt>
      <trkpt lat="47.609083" lon="7.976509">
        <ele>734.102949</ele>
        <time>2021-11-22T09:50:05.566Z</time>
      </trkpt>
      <trkpt lat="47.609057" lon="7.976492">
        <ele>733.863231</ele>
        <time>2021-11-22T09:50:05.801Z</time>
      </trkpt>
      <trkpt lat="47.608829" lon="7.976172">
        <ele>731.215056</ele>
        <time>2021-11-22T09:50:08.545Z</time>
      </trkpt>
      <trkpt lat="47.608764" lon="7.976082">
        <ele>730.464877</ele>
        <time>2021-11-22T09:50:09.283Z</time>
      </trkpt>
      <trkpt lat="47.608361" lon="7.975503">
        <ele>726.513350</ele>
        <time>2021-11-22T09:50:14.170Z</time>
      </trkpt>
      <trkpt lat="47.608085" lon="7.975248">
        <ele>724.579227</ele>
        <time>2021-11-22T09:50:17.005Z</time>
      </trkpt>
      <trkpt lat="47.607949" lon="7.975198">
        <ele>723.745803</ele>
        <time>2021-11-22T09:50:18.232Z</time>
      </trkpt>
      <trkpt lat="47.607811" lon="7.975152">
        <ele>722.904489</ele>
        <time>2021-11-22T09:50:19.514Z</time>
      </trkpt>
      <trkpt lat="47.607703" lon="7.975163">
        <ele>722.260580</ele>
        <time>2021-11-22T09:50:20.551Z</time>
      </trkpt>
      <trkpt lat="47.607293" lon="7.975219">
        <ele>719.811532</ele>
        <time>2021-11-22T09:50:24.571Z</time>
      </trkpt>
      <trkpt lat="47.607002" lon="7.975117">
        <ele>718.032952</ele>
        <time>2021-11-22T09:50:27.919Z</time>
      </trkpt>
      <trkpt lat="47.606836" lon="7.974966">
        <ele>717.532873</ele>
        <time>2021-11-22T09:50:30.038Z</time>
      </trkpt>
      <trkpt lat="47.606683" lon="7.974772">
        <ele>717.309584</ele>
        <time>2021-11-22T09:50:32.339Z</time>
      </trkpt>
      <trkpt lat="47.606512" lon="7.974504">
        <ele>717.033616</ele>
        <time>2021-11-22T09:50:35.228Z</time>
      </trkpt>
      <trkpt lat="47.606402" lon="7.974261">
        <ele>716.814710</ele>
        <time>2021-11-22T09:50:37.554Z</time>
      </trkpt>
      <trkpt lat="47.606300" lon="7.973918">
        <ele>716.534331</ele>
        <time>2021-11-22T09:50:41.234Z</time>
      </trkpt>
      <trkpt lat="47.606116" lon="7.973296">
        <ele>716.026320</ele>
        <time>2021-11-22T09:50:46.956Z</time>
      </trkpt>
      <trkpt lat="47.606058" lon="7.973155">
        <ele>715.902786</ele>
        <time>2021-11-22T09:50:48.587Z</time>
      </trkpt>
      <trkpt lat="47.605981" lon="7.973005">
        <ele>715.761783</ele>
        <time>2021-11-22T09:50:50.433Z</time>
      </trkpt>
      <trkpt lat="47.605871" lon="7.972904">
        <ele>715.681494</ele>
        <time>2021-11-22T09:50:51.873Z</time>
      </trkpt>
      <trkpt lat="47.605644" lon="7.972831">
        <ele>715.655679</ele>
        <time>2021-11-22T09:50:55.409Z</time>
      </trkpt>
      <trkpt lat="47.605516" lon="7.972819">
        <ele>715.641425</ele>
        <time>2021-11-22T09:50:56.794Z</time>
      </trkpt>
      <trkpt lat="47.605454" lon="7.972717">
        <ele>715.631135</ele>
        <time>2021-11-22T09:50:58.270Z</time>
      </trkpt>
      <trkpt lat="47.605365" lon="7.972611">
        <ele>715.618449</ele>
        <time>2021-11-22T09:51:00.019Z</time>
      </trkpt>
      <trkpt lat="47.605224" lon="7.972488">
        <ele>715.600269</ele>
        <time>2021-11-22T09:51:02.008Z</time>
      </trkpt>
      <trkpt lat="47.605056" lon="7.972376">
        <ele>715.579799</ele>
        <time>2021-11-22T09:51:04.930Z</time>
      </trkpt>
      <trkpt lat="47.604922" lon="7.972287">
        <ele>715.563481</ele>
        <time>2021-11-22T09:51:06.692Z</time>
      </trkpt>
      <trkpt lat="47.604528" lon="7.971728">
        <ele>715.502884</ele>
        <time>2021-11-22T09:51:15.173Z</time>
      </trkpt>
      <trkpt lat="47.604419" lon="7.971600">
        <ele>715.523932</ele>
        <time>2021-11-22T09:51:17.205Z</time>
      </trkpt>
      <trkpt lat="47.604366" lon="7.971555">
        <ele>715.722940</ele>
        <time>2021-11-22T09:51:18.389Z</time>
      </trkpt>
      <trkpt lat="47.604294" lon="7.971507">
        <ele>715.980177</ele>
        <time>2021-11-22T09:51:20.034Z</time>
      </trkpt>
      <trkpt lat="47.604261" lon="7.971490">
        <ele>716.094015</ele>
        <time>2021-11-22T09:51:20.743Z</time>
      </trkpt>
      <trkpt lat="47.604163" lon="7.971460">
        <ele>716.420096</ele>
        <time>2021-11-22T09:51:22.552Z</time>
      </trkpt>
      <trkpt lat="47.604023" lon="7.971466">
        <ele>716.876499</ele>
        <time>2021-11-22T09:51:25.616Z</time>
      </trkpt>
      <trkpt lat="47.603588" lon="7.971607">
        <ele>718.327478</ele>
        <time>2021-11-22T09:51:35.719Z</time>
      </trkpt>
      <trkpt lat="47.603305" lon="7.971596">
        <ele>719.249997</ele>
        <time>2021-11-22T09:51:43.213Z</time>
      </trkpt>
      <trkpt lat="47.603054" lon="7.971469">
        <ele>720.114212</ele>
        <time>2021-11-22T09:51:51.265Z</time>
      </trkpt>
      <trkpt lat="47.602252" lon="7.970803">
        <ele>725.821428</ele>
        <time>2021-11-22T09:52:29.912Z</time>
      </trkpt>
      <trkpt lat="47.601859" lon="7.970629">
        <ele>729.217761</ele>
        <time>2021-11-22T09:52:50.433Z</time>
      </trkpt>
      <trkpt lat="47.601648" lon="7.970592">
        <ele>730.977210</ele>
        <time>2021-11-22T09:53:02.159Z</time>
      </trkpt>
      <trkpt lat="47.601402" lon="7.970556">
        <ele>733.024213</ele>
        <time>2021-11-22T09:53:15.162Z</time>
      </trkpt>
      <trkpt lat="47.601180" lon="7.970508">
        <ele>734.882016</ele>
        <time>2021-11-22T09:53:25.822Z</time>
      </trkpt>
      <trkpt lat="47.600971" lon="7.970428">
        <ele>736.599441</ele>
        <time>2021-11-22T09:53:37.978Z</time>
      </trkpt>
      <trkpt lat="47.600336" lon="7.970065">
        <ele>741.307069</ele>
        <time>2021-11-22T09:54:12.728Z</time>
      </trkpt>
      <trkpt lat="47.599718" lon="7.969767">
        <ele>745.802372</ele>
        <time>2021-11-22T09:54:40.527Z</time>
      </trkpt>
      <trkpt lat="47.599352" lon="7.969493">
        <ele>748.638473</ele>
        <time>2021-11-22T09:54:54.323Z</time>
      </trkpt>
      <trkpt lat="47.598765" lon="7.968887">
        <ele>749.201824</ele>
        <time>2021-11-22T09:55:10.266Z</time>
      </trkpt>
      <trkpt lat="47.598343" lon="7.968578">
        <ele>749.544345</ele>
        <time>2021-11-22T09:55:17.651Z</time>
      </trkpt>
      <trkpt lat="47.597978" lon="7.968440">
        <ele>749.818483</ele>
        <time>2021-11-22T09:55:22.512Z</time>
      </trkpt>
      <trkpt lat="47.597103" lon="7.968192">
        <ele>748.322289</ele>
        <time>2021-11-22T09:55:32.300Z</time>
      </trkpt>
      <trkpt lat="47.596111" lon="7.968029">
        <ele>745.744667</ele>
        <time>2021-11-22T09:55:42.449Z</time>
      </trkpt>
      <trkpt lat="47.595897" lon="7.967970">
        <ele>745.200319</ele>
        <time>2021-11-22T09:55:44.686Z</time>
      </trkpt>
      <trkpt lat="47.595731" lon="7.967840">
        <ele>744.766975</ele>
        <time>2021-11-22T09:55:46.639Z</time>
      </trkpt>
      <trkpt lat="47.595487" lon="7.967606">
        <ele>744.096206</ele>
        <time>2021-11-22T09:55:49.583Z</time>
      </trkpt>
      <trkpt lat="47.595222" lon="7.967319">
        <ele>743.338708</ele>
        <time>2021-11-22T09:55:52.938Z</time>
      </trkpt>
      <trkpt lat="47.594433" lon="7.966488">
        <ele>741.236558</ele>
        <time>2021-11-22T09:56:03.425Z</time>
      </trkpt>
      <trkpt lat="47.594369" lon="7.966419">
        <ele>741.311477</ele>
        <time>2021-11-22T09:56:04.319Z</time>
      </trkpt>
      <trkpt lat="47.593845" lon="7.965844">
        <ele>741.928677</ele>
        <time>2021-11-22T09:56:16.042Z</time>
      </trkpt>
      <trkpt lat="47.593572" lon="7.965514">
        <ele>742.262158</ele>
        <time>2021-11-22T09:56:23.227Z</time>
      </trkpt>
      <trkpt lat="47.593274" lon="7.965197">
        <ele>742.609401</ele>
        <time>2021-11-22T09:56:31.173Z</time>
      </trkpt>
      <trkpt lat="47.592819" lon="7.964868">
        <ele>743.211020</ele>
        <time>2021-11-22T09:56:43.542Z</time>
      </trkpt>
      <trkpt lat="47.592518" lon="7.964704">
        <ele>743.712728</ele>
        <time>2021-11-22T09:56:52.115Z</time>
      </trkpt>
      <trkpt lat="47.591169" lon="7.964077">
        <ele>745.244130</ele>
        <time>2021-11-22T09:57:22.451Z</time>
      </trkpt>
      <trkpt lat="47.590665" lon="7.963794">
        <ele>743.346485</ele>
        <time>2021-11-22T09:57:28.295Z</time>
      </trkpt>
      <trkpt lat="47.590624" lon="7.963772">
        <ele>743.192956</ele>
        <time>2021-11-22T09:57:28.752Z</time>
      </trkpt>
      <trkpt lat="47.590227" lon="7.963517">
        <ele>741.669534</ele>
        <time>2021-11-22T09:57:32.944Z</time>
      </trkpt>
      <trkpt lat="47.589112" lon="7.962950">
        <ele>735.920790</ele>
        <time>2021-11-22T09:57:43.716Z</time>
      </trkpt>
      <trkpt lat="47.588758" lon="7.962844">
        <ele>733.558227</ele>
        <time>2021-11-22T09:57:46.919Z</time>
      </trkpt>
      <trkpt lat="47.588243" lon="7.962855">
        <ele>730.188832</ele>
        <time>2021-11-22T09:57:51.599Z</time>
      </trkpt>
      <trkpt lat="47.587999" lon="7.962882">
        <ele>728.588184</ele>
        <time>2021-11-22T09:57:53.818Z</time>
      </trkpt>
      <trkpt lat="47.587762" lon="7.962890">
        <ele>727.047274</ele>
        <time>2021-11-22T09:57:55.964Z</time>
      </trkpt>
      <trkpt lat="47.587593" lon="7.962854">
        <ele>725.949492</ele>
        <time>2021-11-22T09:57:57.529Z</time>
      </trkpt>
      <trkpt lat="47.587527" lon="7.962835">
        <ele>725.517205</ele>
        <time>2021-11-22T09:57:58.148Z</time>
      </trkpt>
      <trkpt lat="47.587299" lon="7.962810">
        <ele>724.047223</ele>
        <time>2021-11-22T09:58:00.255Z</time>
      </trkpt>
      <trkpt lat="47.587114" lon="7.962708">
        <ele>722.778139</ele>
        <time>2021-11-22T09:58:02.083Z</time>
      </trkpt>
      <trkpt lat="47.586786" lon="7.962503">
        <ele>720.489465</ele>
        <time>2021-11-22T09:58:05.318Z</time>
      </trkpt>
      <trkpt lat="47.586624" lon="7.962373">
        <ele>719.305066</ele>
        <time>2021-11-22T09:58:06.974Z</time>
      </trkpt>
      <trkpt lat="47.586491" lon="7.962168">
        <ele>718.071514</ele>
        <time>2021-11-22T09:58:08.724Z</time>
      </trkpt>
      <trkpt lat="47.586296" lon="7.961772">
        <ele>715.949511</ele>
        <time>2021-11-22T09:58:11.710Z</time>
      </trkpt>
      <trkpt lat="47.586005" lon="7.961489">
        <ele>713.803491</ele>
        <time>2021-11-22T09:58:14.843Z</time>
      </trkpt>
      <trkpt lat="47.585805" lon="7.961386">
        <ele>712.497919</ele>
        <time>2021-11-22T09:58:16.732Z</time>
      </trkpt>
      <trkpt lat="47.585514" lon="7.961317">
        <ele>710.680683</ele>
        <time>2021-11-22T09:58:19.402Z</time>
      </trkpt>
      <trkpt lat="47.585281" lon="7.961295">
        <ele>709.240993</ele>
        <time>2021-11-22T09:58:21.580Z</time>
      </trkpt>
      <trkpt lat="47.585149" lon="7.961311">
        <ele>708.424308</ele>
        <time>2021-11-22T09:58:22.755Z</time>
      </trkpt>
      <trkpt lat="47.585078" lon="7.961320">
        <ele>707.984894</ele>
        <time>2021-11-22T09:58:23.426Z</time>
      </trkpt>
      <trkpt lat="47.584845" lon="7.961410">
        <ele>706.500152</ele>
        <time>2021-11-22T09:58:25.691Z</time>
      </trkpt>
      <trkpt lat="47.584506" lon="7.961629">
        <ele>704.444139</ele>
        <time>2021-11-22T09:58:29.086Z</time>
      </trkpt>
      <trkpt lat="47.583450" lon="7.962220">
        <ele>699.594162</ele>
        <time>2021-11-22T09:58:39.809Z</time>
      </trkpt>
      <trkpt lat="47.583243" lon="7.962307">
        <ele>698.669669</ele>
        <time>2021-11-22T09:58:41.945Z</time>
      </trkpt>
      <trkpt lat="47.583134" lon="7.962356">
        <ele>698.180258</ele>
        <time>2021-11-22T09:58:43.122Z</time>
      </trkpt>
      <trkpt lat="47.582968" lon="7.962415">
        <ele>697.446774</ele>
        <time>2021-11-22T09:58:44.897Z</time>
      </trkpt>
      <trkpt lat="47.582545" lon="7.962501">
        <ele>696.714269</ele>
        <time>2021-11-22T09:58:49.424Z</time>
      </trkpt>
      <trkpt lat="47.582180" lon="7.962548">
        <ele>696.211724</ele>
        <time>2021-11-22T09:58:53.444Z</time>
      </trkpt>
      <trkpt lat="47.581514" lon="7.962514">
        <ele>695.297650</ele>
        <time>2021-11-22T09:59:01.325Z</time>
      </trkpt>
      <trkpt lat="47.580893" lon="7.962449">
        <ele>694.960594</ele>
        <time>2021-11-22T09:59:10.743Z</time>
      </trkpt>
      <trkpt lat="47.580131" lon="7.962271">
        <ele>695.610592</ele>
        <time>2021-11-22T09:59:25.219Z</time>
      </trkpt>
      <trkpt lat="47.579759" lon="7.962106">
        <ele>695.937776</ele>
        <time>2021-11-22T09:59:33.097Z</time>
      </trkpt>
      <trkpt lat="47.579647" lon="7.962017">
        <ele>696.044853</ele>
        <time>2021-11-22T09:59:35.576Z</time>
      </trkpt>
      <trkpt lat="47.579169" lon="7.961638">
        <ele>696.502219</ele>
        <time>2021-11-22T09:59:46.025Z</time>
      </trkpt>
      <trkpt lat="47.578838" lon="7.961180">
        <ele>696.884777</ele>
        <time>2021-11-22T09:59:54.835Z</time>
      </trkpt>
      <trkpt lat="47.578655" lon="7.960775">
        <ele>697.162606</ele>
        <time>2021-11-22T10:00:01.041Z</time>
      </trkpt>
      <trkpt lat="47.578614" lon="7.960661">
        <ele>697.236239</ele>
        <time>2021-11-22T10:00:02.597Z</time>
      </trkpt>
      <trkpt lat="47.578556" lon="7.960464">
        <ele>697.358747</ele>
        <time>2021-11-22T10:00:05.097Z</time>
      </trkpt>
      <trkpt lat="47.578451" lon="7.959921">
        <ele>697.680696</ele>
        <time>2021-11-22T10:00:11.515Z</time>
      </trkpt>
      <trkpt lat="47.578445" lon="7.959790">
        <ele>697.755532</ele>
        <time>2021-11-22T10:00:13.113Z</time>
      </trkpt>
      <trkpt lat="47.578428" lon="7.959421">
        <ele>697.716632</ele>
        <time>2021-11-22T10:00:16.993Z</time>
      </trkpt>
      <trkpt lat="47.578453" lon="7.959023">
        <ele>697.604176</ele>
        <time>2021-11-22T10:00:21.191Z</time>
      </trkpt>
      <trkpt lat="47.578554" lon="7.958491">
        <ele>697.448692</ele>
        <time>2021-11-22T10:00:26.653Z</time>
      </trkpt>
      <trkpt lat="47.578723" lon="7.958003">
        <ele>697.294366</ele>
        <time>2021-11-22T10:00:31.927Z</time>
      </trkpt>
      <trkpt lat="47.579019" lon="7.957379">
        <ele>697.079756</ele>
        <time>2021-11-22T10:00:38.202Z</time>
      </trkpt>
      <trkpt lat="47.579581" lon="7.956485">
        <ele>695.092399</ele>
        <time>2021-11-22T10:00:47.322Z</time>
      </trkpt>
      <trkpt lat="47.579879" lon="7.956035">
        <ele>693.983618</ele>
        <time>2021-11-22T10:00:51.742Z</time>
      </trkpt>
      <trkpt lat="47.580034" lon="7.955780">
        <ele>693.380080</ele>
        <time>2021-11-22T10:00:54.094Z</time>
      </trkpt>
      <trkpt lat="47.580265" lon="7.955293">
        <ele>692.316761</ele>
        <time>2021-11-22T10:00:58.183Z</time>
      </trkpt>
      <trkpt lat="47.580339" lon="7.955104">
        <ele>691.701183</ele>
        <time>2021-11-22T10:00:59.656Z</time>
      </trkpt>
      <trkpt lat="47.580388" lon="7.954967">
        <ele>691.264377</ele>
        <time>2021-11-22T10:01:00.613Z</time>
      </trkpt>
      <trkpt lat="47.580536" lon="7.954398">
        <ele>689.546536</ele>
        <time>2021-11-22T10:01:04.544Z</time>
      </trkpt>
      <trkpt lat="47.580783" lon="7.953015">
        <ele>685.516556</ele>
        <time>2021-11-22T10:01:14.069Z</time>
      </trkpt>
      <trkpt lat="47.580801" lon="7.952840">
        <ele>685.017905</ele>
        <time>2021-11-22T10:01:15.159Z</time>
      </trkpt>
      <trkpt lat="47.580789" lon="7.952623">
        <ele>684.075980</ele>
        <time>2021-11-22T10:01:16.750Z</time>
      </trkpt>
      <trkpt lat="47.580514" lon="7.951308">
        <ele>677.335003</ele>
        <time>2021-11-22T10:01:25.175Z</time>
      </trkpt>
      <trkpt lat="47.580578" lon="7.950534">
        <ele>673.516880</ele>
        <time>2021-11-22T10:01:29.810Z</time>
      </trkpt>
      <trkpt lat="47.580705" lon="7.949917">
        <ele>669.587173</ele>
        <time>2021-11-22T10:01:33.582Z</time>
      </trkpt>
      <trkpt lat="47.580743" lon="7.949656">
        <ele>667.577598</ele>
        <time>2021-11-22T10:01:35.106Z</time>
      </trkpt>
      <trkpt lat="47.580939" lon="7.948093">
        <ele>655.612617</ele>
        <time>2021-11-22T10:01:44.157Z</time>
      </trkpt>
      <trkpt lat="47.580865" lon="7.947817">
        <ele>653.377318</ele>
        <time>2021-11-22T10:01:45.864Z</time>
      </trkpt>
      <trkpt lat="47.580562" lon="7.947489">
        <ele>649.974380</ele>
        <time>2021-11-22T10:01:49.049Z</time>
      </trkpt>
      <trkpt lat="47.580077" lon="7.947070">
        <ele>645.646274</ele>
        <time>2021-11-22T10:01:53.979Z</time>
      </trkpt>
      <trkpt lat="47.579781" lon="7.947052">
        <ele>643.362129</ele>
        <time>2021-11-22T10:01:56.656Z</time>
      </trkpt>
      <trkpt lat="47.579396" lon="7.946888">
        <ele>640.273575</ele>
        <time>2021-11-22T10:02:00.347Z</time>
      </trkpt>
      <trkpt lat="47.578644" lon="7.947268">
        <ele>634.077146</ele>
        <time>2021-11-22T10:02:07.707Z</time>
      </trkpt>
      <trkpt lat="47.578396" lon="7.947244">
        <ele>632.124404</ele>
        <time>2021-11-22T10:02:09.920Z</time>
      </trkpt>
      <trkpt lat="47.578328" lon="7.947192">
        <ele>631.523211</ele>
        <time>2021-11-22T10:02:11.679Z</time>
      </trkpt>
      <trkpt lat="47.578220" lon="7.946989">
        <ele>630.152881</ele>
        <time>2021-11-22T10:02:13.182Z</time>
      </trkpt>
      <trkpt lat="47.578055" lon="7.946424">
        <ele>626.889596</ele>
        <time>2021-11-22T10:02:16.909Z</time>
      </trkpt>
      <trkpt lat="47.577848" lon="7.945352">
        <ele>618.223284</ele>
        <time>2021-11-22T10:02:23.319Z</time>
      </trkpt>
      <trkpt lat="47.577504" lon="7.944765">
        <ele>609.965704</ele>
        <time>2021-11-22T10:02:27.684Z</time>
      </trkpt>
      <trkpt lat="47.576917" lon="7.944153">
        <ele>598.668089</ele>
        <time>2021-11-22T10:02:33.584Z</time>
      </trkpt>
      <trkpt lat="47.576848" lon="7.944056">
        <ele>597.171060</ele>
        <time>2021-11-22T10:02:34.366Z</time>
      </trkpt>
      <trkpt lat="47.576803" lon="7.944012">
        <ele>596.322412</ele>
        <time>2021-11-22T10:02:34.819Z</time>
      </trkpt>
      <trkpt lat="47.576670" lon="7.943775">
        <ele>592.328083</ele>
        <time>2021-11-22T10:02:36.541Z</time>
      </trkpt>
      <trkpt lat="47.576415" lon="7.943598">
        <ele>586.543475</ele>
        <time>2021-11-22T10:02:38.838Z</time>
      </trkpt>
      <trkpt lat="47.575978" lon="7.943401">
        <ele>577.159769</ele>
        <time>2021-11-22T10:02:42.569Z</time>
      </trkpt>
      <trkpt lat="47.575613" lon="7.943320">
        <ele>569.577641</ele>
        <time>2021-11-22T10:02:45.578Z</time>
      </trkpt>
      <trkpt lat="47.574655" lon="7.943625">
        <ele>550.952108</ele>
        <time>2021-11-22T10:02:53.591Z</time>
      </trkpt>
      <trkpt lat="47.574394" lon="7.943856">
        <ele>545.749657</ele>
        <time>2021-11-22T10:02:56.079Z</time>
      </trkpt>
      <trkpt lat="47.574153" lon="7.944610">
        <ele>536.116495</ele>
        <time>2021-11-22T10:03:00.722Z</time>
      </trkpt>
      <trkpt lat="47.573532" lon="7.946081">
        <ele>521.344705</ele>
        <time>2021-11-22T10:03:10.534Z</time>
      </trkpt>
      <trkpt lat="47.573421" lon="7.946607">
        <ele>517.869798</ele>
        <time>2021-11-22T10:03:13.764Z</time>
      </trkpt>
      <trkpt lat="47.573457" lon="7.946845">
        <ele>516.331944</ele>
        <time>2021-11-22T10:03:15.231Z</time>
      </trkpt>
      <trkpt lat="47.573702" lon="7.947589">
        <ele>511.112019</ele>
        <time>2021-11-22T10:03:20.365Z</time>
      </trkpt>
      <trkpt lat="47.573779" lon="7.948382">
        <ele>508.733879</ele>
        <time>2021-11-22T10:03:25.614Z</time>
      </trkpt>
      <trkpt lat="47.573841" lon="7.949945">
        <ele>504.352537</ele>
        <time>2021-11-22T10:03:36.168Z</time>
      </trkpt>
      <trkpt lat="47.573833" lon="7.950164">
        <ele>503.738806</ele>
        <time>2021-11-22T10:03:37.678Z</time>
      </trkpt>
      <trkpt lat="47.573830" lon="7.950662">
        <ele>501.877681</ele>
        <time>2021-11-22T10:03:40.847Z</time>
      </trkpt>
      <trkpt lat="47.573809" lon="7.950963">
        <ele>500.657914</ele>
        <time>2021-11-22T10:03:42.833Z</time>
      </trkpt>
      <trkpt lat="47.573771" lon="7.951175">
        <ele>499.773718</ele>
        <time>2021-11-22T10:03:44.166Z</time>
      </trkpt>
      <trkpt lat="47.573543" lon="7.952446">
        <ele>494.472426</ele>
        <time>2021-11-22T10:03:52.291Z</time>
      </trkpt>
      <trkpt lat="47.573526" lon="7.952563">
        <ele>493.989996</ele>
        <time>2021-11-22T10:03:52.988Z</time>
      </trkpt>
      <trkpt lat="47.573508" lon="7.952785">
        <ele>493.088694</ele>
        <time>2021-11-22T10:03:54.326Z</time>
      </trkpt>
      <trkpt lat="47.573460" lon="7.953097">
        <ele>491.560067</ele>
        <time>2021-11-22T10:03:56.296Z</time>
      </trkpt>
      <trkpt lat="47.573085" lon="7.954089">
        <ele>485.705927</ele>
        <time>2021-11-22T10:04:03.049Z</time>
      </trkpt>
      <trkpt lat="47.572895" lon="7.955000">
        <ele>480.796856</ele>
        <time>2021-11-22T10:04:08.720Z</time>
      </trkpt>
      <trkpt lat="47.572816" lon="7.955144">
        <ele>479.841329</ele>
        <time>2021-11-22T10:04:09.931Z</time>
      </trkpt>
      <trkpt lat="47.572732" lon="7.955226">
        <ele>479.073796</ele>
        <time>2021-11-22T10:04:10.803Z</time>
      </trkpt>
      <trkpt lat="47.572685" lon="7.955235">
        <ele>478.740746</ele>
        <time>2021-11-22T10:04:11.211Z</time>
      </trkpt>
      <trkpt lat="47.572561" lon="7.955012">
        <ele>477.444330</ele>
        <time>2021-11-22T10:04:13.127Z</time>
      </trkpt>
      <trkpt lat="47.572549" lon="7.954757">
        <ele>476.297581</ele>
        <time>2021-11-22T10:04:14.636Z</time>
      </trkpt>
      <trkpt lat="47.572493" lon="7.953580">
        <ele>471.004258</ele>
        <time>2021-11-22T10:04:21.819Z</time>
      </trkpt>
      <trkpt lat="47.572431" lon="7.953273">
        <ele>469.566625</ele>
        <time>2021-11-22T10:04:23.773Z</time>
      </trkpt>
      <trkpt lat="47.572136" lon="7.952448">
        <ele>465.437249</ele>
        <time>2021-11-22T10:04:29.545Z</time>
      </trkpt>
      <trkpt lat="47.572063" lon="7.952158">
        <ele>464.100334</ele>
        <time>2021-11-22T10:04:31.530Z</time>
      </trkpt>
      <trkpt lat="47.572029" lon="7.952049">
        <ele>463.581656</ele>
        <time>2021-11-22T10:04:32.249Z</time>
      </trkpt>
      <trkpt lat="47.571881" lon="7.951642">
        <ele>461.584649</ele>
        <time>2021-11-22T10:04:35.137Z</time>
      </trkpt>
      <trkpt lat="47.571580" lon="7.951400">
        <ele>459.392407</ele>
        <time>2021-11-22T10:04:38.268Z</time>
      </trkpt>
      <trkpt lat="47.571432" lon="7.951352">
        <ele>458.422490</ele>
        <time>2021-11-22T10:04:39.605Z</time>
      </trkpt>
      <trkpt lat="47.571372" lon="7.951351">
        <ele>458.038344</ele>
        <time>2021-11-22T10:04:40.151Z</time>
      </trkpt>
      <trkpt lat="47.571274" lon="7.951357">
        <ele>457.410411</ele>
        <time>2021-11-22T10:04:41.067Z</time>
      </trkpt>
      <trkpt lat="47.571169" lon="7.951380">
        <ele>456.730897</ele>
        <time>2021-11-22T10:04:42.006Z</time>
      </trkpt>
      <trkpt lat="47.571014" lon="7.951483">
        <ele>455.643418</ele>
        <time>2021-11-22T10:04:43.510Z</time>
      </trkpt>
      <trkpt lat="47.570777" lon="7.951728">
        <ele>453.522258</ele>
        <time>2021-11-22T10:04:46.079Z</time>
      </trkpt>
      <trkpt lat="47.570624" lon="7.952436">
        <ele>449.788152</ele>
        <time>2021-11-22T10:04:50.656Z</time>
      </trkpt>
      <trkpt lat="47.570406" lon="7.952888">
        <ele>446.997405</ele>
        <time>2021-11-22T10:04:53.998Z</time>
      </trkpt>
      <trkpt lat="47.570334" lon="7.952944">
        <ele>446.392067</ele>
        <time>2021-11-22T10:04:54.738Z</time>
      </trkpt>
      <trkpt lat="47.570258" lon="7.953004">
        <ele>445.751012</ele>
        <time>2021-11-22T10:04:55.505Z</time>
      </trkpt>
      <trkpt lat="47.570064" lon="7.953030">
        <ele>444.300846</ele>
        <time>2021-11-22T10:04:57.210Z</time>
      </trkpt>
      <trkpt lat="47.569469" lon="7.953110">
        <ele>439.200564</ele>
        <time>2021-11-22T10:05:02.475Z</time>
      </trkpt>
      <trkpt lat="47.568801" lon="7.953205">
        <ele>432.733558</ele>
        <time>2021-11-22T10:05:08.291Z</time>
      </trkpt>
      <trkpt lat="47.568529" lon="7.953233">
        <ele>430.106010</ele>
        <time>2021-11-22T10:05:10.641Z</time>
      </trkpt>
      <trkpt lat="47.568322" lon="7.953261">
        <ele>428.102885</ele>
        <time>2021-11-22T10:05:12.431Z</time>
      </trkpt>
      <trkpt lat="47.568036" lon="7.953298">
        <ele>425.336256</ele>
        <time>2021-11-22T10:05:14.877Z</time>
      </trkpt>
      <trkpt lat="47.567660" lon="7.953207">
        <ele>421.349620</ele>
        <time>2021-11-22T10:05:18.125Z</time>
      </trkpt>
      <trkpt lat="47.567503" lon="7.953060">
        <ele>419.376322</ele>
        <time>2021-11-22T10:05:19.728Z</time>
      </trkpt>
      <trkpt lat="47.567451" lon="7.952996">
        <ele>418.658090</ele>
        <time>2021-11-22T10:05:20.286Z</time>
      </trkpt>
      <trkpt lat="47.567312" lon="7.952728">
        <ele>416.234556</ele>
        <time>2021-11-22T10:05:22.252Z</time>
      </trkpt>
      <trkpt lat="47.567222" lon="7.952062">
        <ele>411.364778</ele>
        <time>2021-11-22T10:05:26.152Z</time>
      </trkpt>
      <trkpt lat="47.567206" lon="7.950456">
        <ele>401.230622</ele>
        <time>2021-11-22T10:05:35.484Z</time>
      </trkpt>
      <trkpt lat="47.567150" lon="7.950174">
        <ele>399.627287</ele>
        <time>2021-11-22T10:05:37.229Z</time>
      </trkpt>
      <trkpt lat="47.566740" lon="7.949245">
        <ele>393.572582</ele>
        <time>2021-11-22T10:05:43.924Z</time>
      </trkpt>
      <trkpt lat="47.566807" lon="7.948128">
        <ele>387.876233</ele>
        <time>2021-11-22T10:05:50.814Z</time>
      </trkpt>
      <trkpt lat="47.566739" lon="7.947778">
        <ele>386.119743</ele>
        <time>2021-11-22T10:05:53.019Z</time>
      </trkpt>
      <trkpt lat="47.566559" lon="7.947459">
        <ele>384.114276</ele>
        <time>2021-11-22T10:05:55.490Z</time>
      </trkpt>
      <trkpt lat="47.566361" lon="7.947197">
        <ele>382.217100</ele>
        <time>2021-11-22T10:05:57.843Z</time>
      </trkpt>
      <trkpt lat="47.566181" lon="7.947137">
        <ele>380.898421</ele>
        <time>2021-11-22T10:05:59.531Z</time>
      </trkpt>
      <trkpt lat="47.566104" lon="7.947141">
        <ele>380.347730</ele>
        <time>2021-11-22T10:06:00.225Z</time>
      </trkpt>
      <trkpt lat="47.566041" lon="7.947154">
        <ele>379.893098</ele>
        <time>2021-11-22T10:06:00.776Z</time>
      </trkpt>
      <trkpt lat="47.566020" lon="7.947169">
        <ele>379.726479</ele>
        <time>2021-11-22T10:06:00.981Z</time>
      </trkpt>
      <trkpt lat="47.565946" lon="7.947239">
        <ele>379.099014</ele>
        <time>2021-11-22T10:06:01.786Z</time>
      </trkpt>
      <trkpt lat="47.565560" lon="7.947737">
        <ele>374.986506</ele>
        <time>2021-11-22T10:06:06.400Z</time>
      </trkpt>
      <trkpt lat="47.565487" lon="7.947832">
        <ele>374.178850</ele>
        <time>2021-11-22T10:06:07.241Z</time>
      </trkpt>
      <trkpt lat="47.565349" lon="7.947927">
        <ele>372.913849</ele>
        <time>2021-11-22T10:06:08.612Z</time>
      </trkpt>
      <trkpt lat="47.565219" lon="7.948009">
        <ele>371.739269</ele>
        <time>2021-11-22T10:06:09.857Z</time>
      </trkpt>
      <trkpt lat="47.565100" lon="7.948048">
        <ele>370.726052</ele>
        <time>2021-11-22T10:06:10.929Z</time>
      </trkpt>
      <trkpt lat="47.565021" lon="7.948043">
        <ele>370.068681</ele>
        <time>2021-11-22T10:06:11.622Z</time>
      </trkpt>
      <trkpt lat="47.564900" lon="7.948021">
        <ele>369.055197</ele>
        <time>2021-11-22T10:06:12.689Z</time>
      </trkpt>
      <trkpt lat="47.564785" lon="7.947966">
        <ele>368.050586</ele>
        <time>2021-11-22T10:06:13.720Z</time>
      </trkpt>
      <trkpt lat="47.564750" lon="7.947944">
        <ele>367.734521</ele>
        <time>2021-11-22T10:06:14.058Z</time>
      </trkpt>
      <trkpt lat="47.564704" lon="7.947878">
        <ele>367.202239</ele>
        <time>2021-11-22T10:06:14.620Z</time>
      </trkpt>
      <trkpt lat="47.564636" lon="7.947804">
        <ele>366.500876</ele>
        <time>2021-11-22T10:06:15.356Z</time>
      </trkpt>
      <trkpt lat="47.564602" lon="7.947749">
        <ele>366.082440</ele>
        <time>2021-11-22T10:06:15.791Z</time>
      </trkpt>
      <trkpt lat="47.564466" lon="7.947344">
        <ele>363.544734</ele>
        <time>2021-11-22T10:06:18.439Z</time>
      </trkpt>
      <trkpt lat="47.564404" lon="7.946994">
        <ele>361.362245</ele>
        <time>2021-11-22T10:06:20.557Z</time>
      </trkpt>
      <trkpt lat="47.564365" lon="7.946824">
        <ele>360.267670</ele>
        <time>2021-11-22T10:06:21.616Z</time>
      </trkpt>
      <trkpt lat="47.564271" lon="7.946559">
        <ele>358.442618</ele>
        <time>2021-11-22T10:06:23.382Z</time>
      </trkpt>
      <trkpt lat="47.564141" lon="7.946291">
        <ele>356.430551</ele>
        <time>2021-11-22T10:06:25.335Z</time>
      </trkpt>
      <trkpt lat="47.564119" lon="7.946229">
        <ele>356.003525</ele>
        <time>2021-11-22T10:06:25.738Z</time>
      </trkpt>
      <trkpt lat="47.564025" lon="7.945964">
        <ele>354.178466</ele>
        <time>2021-11-22T10:06:27.548Z</time>
      </trkpt>
      <trkpt lat="47.563874" lon="7.945541">
        <ele>351.261230</ele>
        <time>2021-11-22T10:06:30.328Z</time>
      </trkpt>
      <trkpt lat="47.563855" lon="7.945417">
        <ele>350.486076</ele>
        <time>2021-11-22T10:06:31.069Z</time>
      </trkpt>
      <trkpt lat="47.563798" lon="7.945261">
        <ele>349.404621</ele>
        <time>2021-11-22T10:06:32.081Z</time>
      </trkpt>
      <trkpt lat="47.563725" lon="7.945071">
        <ele>348.071772</ele>
        <time>2021-11-22T10:06:33.393Z</time>
      </trkpt>
      <trkpt lat="47.563643" lon="7.944887">
        <ele>346.786128</ele>
        <time>2021-11-22T10:06:34.683Z</time>
      </trkpt>
      <trkpt lat="47.563617" lon="7.944825">
        <ele>346.428672</ele>
        <time>2021-11-22T10:06:35.097Z</time>
      </trkpt>
      <trkpt lat="47.563376" lon="7.944323">
        <ele>343.411799</ele>
        <time>2021-11-22T10:06:38.743Z</time>
      </trkpt>
      <trkpt lat="47.563250" lon="7.944210">
        <ele>342.343025</ele>
        <time>2021-11-22T10:06:40.101Z</time>
      </trkpt>
      <trkpt lat="47.563121" lon="7.944175">
        <ele>341.391315</ele>
        <time>2021-11-22T10:06:41.246Z</time>
      </trkpt>
      <trkpt lat="47.562993" lon="7.944148">
        <ele>340.453059</ele>
        <time>2021-11-22T10:06:42.409Z</time>
      </trkpt>
      <trkpt lat="47.562431" lon="7.944285">
        <ele>336.319825</ele>
        <time>2021-11-22T10:06:47.619Z</time>
      </trkpt>
      <trkpt lat="47.562104" lon="7.944442">
        <ele>333.829165</ele>
        <time>2021-11-22T10:06:50.775Z</time>
      </trkpt>
      <trkpt lat="47.561884" lon="7.944575">
        <ele>332.149476</ele>
        <time>2021-11-22T10:06:52.972Z</time>
      </trkpt>
      <trkpt lat="47.561590" lon="7.944808">
        <ele>329.792547</ele>
        <time>2021-11-22T10:06:55.965Z</time>
      </trkpt>
      <trkpt lat="47.561549" lon="7.944844">
        <ele>329.455647</ele>
        <time>2021-11-22T10:06:56.437Z</time>
      </trkpt>
      <trkpt lat="47.561253" lon="7.945105">
        <ele>327.020719</ele>
        <time>2021-11-22T10:06:59.555Z</time>
      </trkpt>
      <trkpt lat="47.561051" lon="7.945242">
        <ele>325.450264</ele>
        <time>2021-11-22T10:07:01.531Z</time>
      </trkpt>
      <trkpt lat="47.560884" lon="7.945275">
        <ele>324.259234</ele>
        <time>2021-11-22T10:07:03.039Z</time>
      </trkpt>
      <trkpt lat="47.560748" lon="7.945268">
        <ele>323.297223</ele>
        <time>2021-11-22T10:07:04.261Z</time>
      </trkpt>
      <trkpt lat="47.560632" lon="7.945223">
        <ele>322.449546</ele>
        <time>2021-11-22T10:07:05.305Z</time>
      </trkpt>
      <trkpt lat="47.560464" lon="7.945085">
        <ele>321.069723</ele>
        <time>2021-11-22T10:07:07.011Z</time>
      </trkpt>
      <trkpt lat="47.560288" lon="7.944850">
        <ele>319.173492</ele>
        <time>2021-11-22T10:07:09.080Z</time>
      </trkpt>
      <trkpt lat="47.560144" lon="7.944665">
        <ele>317.648043</ele>
        <time>2021-11-22T10:07:10.730Z</time>
      </trkpt>
      <trkpt lat="47.560106" lon="7.944624">
        <ele>317.271805</ele>
        <time>2021-11-22T10:07:11.127Z</time>
      </trkpt>
      <trkpt lat="47.559855" lon="7.944533">
        <ele>315.203501</ele>
        <time>2021-11-22T10:07:13.388Z</time>
      </trkpt>
      <trkpt lat="47.559774" lon="7.944500">
        <ele>314.531106</ele>
        <time>2021-11-22T10:07:14.118Z</time>
      </trkpt>
      <trkpt lat="47.559609" lon="7.944534">
        <ele>313.197707</ele>
        <time>2021-11-22T10:07:15.594Z</time>
      </trkpt>
      <trkpt lat="47.559263" lon="7.944710">
        <ele>310.269639</ele>
        <time>2021-11-22T10:07:18.802Z</time>
      </trkpt>
      <trkpt lat="47.559249" lon="7.944727">
        <ele>310.124764</ele>
        <time>2021-11-22T10:07:18.952Z</time>
      </trkpt>
      <trkpt lat="47.558967" lon="7.945068">
        <ele>307.211441</ele>
        <time>2021-11-22T10:07:22.224Z</time>
      </trkpt>
      <trkpt lat="47.558781" lon="7.945419">
        <ele>305.851974</ele>
        <time>2021-11-22T10:07:25.022Z</time>
      </trkpt>
      <trkpt lat="47.558676" lon="7.945591">
        <ele>305.238469</ele>
        <time>2021-11-22T10:07:26.458Z</time>
      </trkpt>
      <trkpt lat="47.558644" lon="7.945668">
        <ele>304.999266</ele>
        <time>2021-11-22T10:07:27.048Z</time>
      </trkpt>
      <trkpt lat="47.558608" lon="7.945765">
        <ele>304.706441</ele>
        <time>2021-11-22T10:07:27.758Z</time>
      </trkpt>
      <trkpt lat="47.558540" lon="7.945722">
        <ele>304.416645</ele>
        <time>2021-11-22T10:07:28.461Z</time>
      </trkpt>
      <trkpt lat="47.558415" lon="7.945666">
        <ele>303.904775</ele>
        <time>2021-11-22T10:07:29.664Z</time>
      </trkpt>
      <trkpt lat="47.558161" lon="7.945614">
        <ele>302.899706</ele>
        <time>2021-11-22T10:07:32.290Z</time>
      </trkpt>
      <trkpt lat="47.558102" lon="7.945615">
        <ele>302.668426</ele>
        <time>2021-11-22T10:07:32.811Z</time>
      </trkpt>
      <trkpt lat="47.558009" lon="7.945617">
        <ele>302.303853</ele>
        <time>2021-11-22T10:07:33.761Z</time>
      </trkpt>
      <trkpt lat="47.557910" lon="7.945625">
        <ele>301.915222</ele>
        <time>2021-11-22T10:07:34.798Z</time>
      </trkpt>
      <trkpt lat="47.557744" lon="7.945674">
        <ele>301.251762</ele>
        <time>2021-11-22T10:07:36.579Z</time>
      </trkpt>
      <trkpt lat="47.557613" lon="7.945697">
        <ele>300.734685</ele>
        <time>2021-11-22T10:07:38.065Z</time>
      </trkpt>
      <trkpt lat="47.557529" lon="7.945747">
        <ele>300.379856</ele>
        <time>2021-11-22T10:07:39.107Z</time>
      </trkpt>
      <trkpt lat="47.557394" lon="7.945716">
        <ele>299.844376</ele>
        <time>2021-11-22T10:07:40.701Z</time>
      </trkpt>
      <trkpt lat="47.557268" lon="7.945688">
        <ele>299.730478</ele>
        <time>2021-11-22T10:07:42.328Z</time>
      </trkpt>
      <trkpt lat="47.557196" lon="7.945663">
        <ele>299.680646</ele>
        <time>2021-11-22T10:07:43.311Z</time>
      </trkpt>
      <trkpt lat="47.557110" lon="7.945492">
        <ele>299.583665</ele>
        <time>2021-11-22T10:07:45.155Z</time>
      </trkpt>
      <trkpt lat="47.556999" lon="7.945268">
        <ele>299.457288</ele>
        <time>2021-11-22T10:07:47.572Z</time>
      </trkpt>
      <trkpt lat="47.556919" lon="7.945110">
        <ele>299.367462</ele>
        <time>2021-11-22T10:07:49.344Z</time>
      </trkpt>
      <trkpt lat="47.556919" lon="7.945110">
        <ele>299.367462</ele>
        <time>2021-11-22T10:07:49.378Z</time>
      </trkpt>
      <trkpt lat="47.556919" lon="7.945110">
        <ele>299.367462</ele>
        <time>2021-11-22T10:07:49.412Z</time>
      </trkpt>
      <trkpt lat="47.556830" lon="7.944931">
        <ele>299.266354</ele>
        <time>2021-11-22T10:07:51.240Z</time>
      </trkpt>
      <trkpt lat="47.556650" lon="7.944566">
        <ele>299.060773</ele>
        <time>2021-11-22T10:07:55.173Z</time>
      </trkpt>
      <trkpt lat="47.556439" lon="7.944137">
        <ele>298.819368</ele>
        <time>2021-11-22T10:07:59.983Z</time>
      </trkpt>
      <trkpt lat="47.556345" lon="7.943946">
        <ele>298.711866</ele>
        <time>2021-11-22T10:08:02.151Z</time>
      </trkpt>
      <trkpt lat="47.556302" lon="7.943858">
        <ele>298.662458</ele>
        <time>2021-11-22T10:08:03.198Z</time>
      </trkpt>
      <trkpt lat="47.556288" lon="7.943830">
        <ele>298.646611</ele>
        <time>2021-11-22T10:08:03.552Z</time>
      </trkpt>
      <trkpt lat="47.556069" lon="7.943386">
        <ele>298.543439</ele>
        <time>2021-11-22T10:08:09.115Z</time>
      </trkpt>
      <trkpt lat="47.555911" lon="7.943042">
        <ele>298.491861</ele>
        <time>2021-11-22T10:08:13.517Z</time>
      </trkpt>
      <trkpt lat="47.555828" lon="7.942869">
        <ele>298.465550</ele>
        <time>2021-11-22T10:08:15.842Z</time>
      </trkpt>
      <trkpt lat="47.555765" lon="7.942732">
        <ele>298.445001</ele>
        <time>2021-11-22T10:08:17.554Z</time>
      </trkpt>
      <trkpt lat="47.555711" lon="7.942617">
        <ele>298.427635</ele>
        <time>2021-11-22T10:08:18.943Z</time>
      </trkpt>
      <trkpt lat="47.555633" lon="7.942436">
        <ele>298.401015</ele>
        <time>2021-11-22T10:08:21.065Z</time>
      </trkpt>
      <trkpt lat="47.555530" lon="7.942195">
        <ele>298.365656</ele>
        <time>2021-11-22T10:08:23.629Z</time>
      </trkpt>
      <trkpt lat="47.555494" lon="7.942104">
        <ele>298.352581</ele>
        <time>2021-11-22T10:08:24.575Z</time>
      </trkpt>
      <trkpt lat="47.555456" lon="7.942017">
        <ele>298.339735</ele>
        <time>2021-11-22T10:08:25.506Z</time>
      </trkpt>
      <trkpt lat="47.555313" lon="7.941663">
        <ele>298.288595</ele>
        <time>2021-11-22T10:08:29.010Z</time>
      </trkpt>
      <trkpt lat="47.555223" lon="7.941452">
        <ele>298.236249</ele>
        <time>2021-11-22T10:08:31.252Z</time>
      </trkpt>
      <trkpt lat="47.554981" lon="7.940858">
        <ele>297.974547</ele>
        <time>2021-11-22T10:08:37.545Z</time>
      </trkpt>
      <trkpt lat="47.554831" lon="7.940510">
        <ele>297.818801</ele>
        <time>2021-11-22T10:08:41.421Z</time>
      </trkpt>
      <trkpt lat="47.554786" lon="7.940407">
        <ele>297.772522</ele>
        <time>2021-11-22T10:08:42.496Z</time>
      </trkpt>
      <trkpt lat="47.554653" lon="7.940102">
        <ele>297.635557</ele>
        <time>2021-11-22T10:08:45.780Z</time>
      </trkpt>
      <trkpt lat="47.554446" lon="7.939644">
        <ele>297.427648</ele>
        <time>2021-11-22T10:08:50.589Z</time>
      </trkpt>
      <trkpt lat="47.554246" lon="7.939196">
        <ele>297.228195</ele>
        <time>2021-11-22T10:08:55.144Z</time>
      </trkpt>
      <trkpt lat="47.554109" lon="7.938885">
        <ele>297.099767</ele>
        <time>2021-11-22T10:08:58.287Z</time>
      </trkpt>
      <trkpt lat="47.553978" lon="7.938519">
        <ele>296.956504</ele>
        <time>2021-11-22T10:09:01.796Z</time>
      </trkpt>
      <trkpt lat="47.553909" lon="7.938319">
        <ele>296.878830</ele>
        <time>2021-11-22T10:09:03.730Z</time>
      </trkpt>
      <trkpt lat="47.553848" lon="7.938105">
        <ele>296.798497</ele>
        <time>2021-11-22T10:09:05.842Z</time>
      </trkpt>
      <trkpt lat="47.553805" lon="7.937948">
        <ele>296.739904</ele>
        <time>2021-11-22T10:09:07.381Z</time>
      </trkpt>
      <trkpt lat="47.553775" lon="7.937797">
        <ele>296.685472</ele>
        <time>2021-11-22T10:09:08.769Z</time>
      </trkpt>
      <trkpt lat="47.553769" lon="7.937764">
        <ele>296.673653</ele>
        <time>2021-11-22T10:09:09.084Z</time>
      </trkpt>
      <trkpt lat="47.553744" lon="7.937573">
        <ele>296.606373</ele>
        <time>2021-11-22T10:09:10.938Z</time>
      </trkpt>
      <trkpt lat="47.553727" lon="7.937367">
        <ele>296.534606</ele>
        <time>2021-11-22T10:09:12.847Z</time>
      </trkpt>
      <trkpt lat="47.553724" lon="7.937134">
        <ele>296.454017</ele>
        <time>2021-11-22T10:09:15.015Z</time>
      </trkpt>
      <trkpt lat="47.553732" lon="7.936945">
        <ele>296.388531</ele>
        <time>2021-11-22T10:09:16.808Z</time>
      </trkpt>
      <trkpt lat="47.553754" lon="7.936703">
        <ele>296.332761</ele>
        <time>2021-11-22T10:09:19.045Z</time>
      </trkpt>
      <trkpt lat="47.553763" lon="7.936585">
        <ele>296.323336</ele>
        <time>2021-11-22T10:09:20.175Z</time>
      </trkpt>
      <trkpt lat="47.553712" lon="7.936520">
        <ele>296.315426</ele>
        <time>2021-11-22T10:09:21.133Z</time>
      </trkpt>
      <trkpt lat="47.553680" lon="7.936493">
        <ele>296.311095</ele>
        <time>2021-11-22T10:09:21.656Z</time>
      </trkpt>
      <trkpt lat="47.553579" lon="7.936483">
        <ele>296.299192</ele>
        <time>2021-11-22T10:09:23.057Z</time>
      </trkpt>
      <trkpt lat="47.553468" lon="7.936486">
        <ele>296.286136</ele>
        <time>2021-11-22T10:09:24.647Z</time>
      </trkpt>
      <trkpt lat="47.553364" lon="7.936511">
        <ele>296.273746</ele>
        <time>2021-11-22T10:09:26.203Z</time>
      </trkpt>
      <trkpt lat="47.553216" lon="7.936481">
        <ele>296.256180</ele>
        <time>2021-11-22T10:09:28.510Z</time>
      </trkpt>
      <trkpt lat="47.553130" lon="7.936464">
        <ele>296.245977</ele>
        <time>2021-11-22T10:09:29.887Z</time>
      </trkpt>
      <trkpt lat="47.553015" lon="7.936441">
        <ele>296.232331</ele>
        <time>2021-11-22T10:09:31.794Z</time>
      </trkpt>
      <trkpt lat="47.552921" lon="7.936425">
        <ele>296.221205</ele>
        <time>2021-11-22T10:09:33.422Z</time>
      </trkpt>
      <trkpt lat="47.552791" lon="7.936403">
        <ele>296.205818</ele>
        <time>2021-11-22T10:09:35.262Z</time>
      </trkpt>
      <trkpt lat="47.552493" lon="7.936374">
        <ele>296.170699</ele>
        <time>2021-11-22T10:09:39.737Z</time>
      </trkpt>
      <trkpt lat="47.552311" lon="7.936357">
        <ele>296.149254</ele>
        <time>2021-11-22T10:09:42.259Z</time>
      </trkpt>
      <trkpt lat="47.551926" lon="7.936360">
        <ele>295.731084</ele>
        <time>2021-11-22T10:09:47.612Z</time>
      </trkpt>
      <trkpt lat="47.551730" lon="7.936373">
        <ele>295.374679</ele>
        <time>2021-11-22T10:09:50.220Z</time>
      </trkpt>
      <trkpt lat="47.551599" lon="7.936386">
        <ele>295.136174</ele>
        <time>2021-11-22T10:09:51.903Z</time>
      </trkpt>
      <trkpt lat="47.551477" lon="7.936401">
        <ele>294.913790</ele>
        <time>2021-11-22T10:09:53.263Z</time>
      </trkpt>
      <trkpt lat="47.551303" lon="7.936435">
        <ele>294.594969</ele>
        <time>2021-11-22T10:09:55.194Z</time>
      </trkpt>
      <trkpt lat="47.550607" lon="7.936694">
        <ele>293.291364</ele>
        <time>2021-11-22T10:10:02.826Z</time>
      </trkpt>
      <trkpt lat="47.550221" lon="7.936962">
        <ele>292.289263</ele>
        <time>2021-11-22T10:10:07.240Z</time>
      </trkpt>
      <trkpt lat="47.550098" lon="7.937070">
        <ele>291.858301</ele>
        <time>2021-11-22T10:10:08.629Z</time>
      </trkpt>
      <trkpt lat="47.549970" lon="7.937189">
        <ele>291.402817</ele>
        <time>2021-11-22T10:10:10.154Z</time>
      </trkpt>
      <trkpt lat="47.549714" lon="7.937478">
        <ele>290.432711</ele>
        <time>2021-11-22T10:10:13.388Z</time>
      </trkpt>
      <trkpt lat="47.549404" lon="7.937916">
        <ele>289.141535</ele>
        <time>2021-11-22T10:10:17.753Z</time>
      </trkpt>
      <trkpt lat="47.549168" lon="7.938309">
        <ele>288.071356</ele>
        <time>2021-11-22T10:10:21.351Z</time>
      </trkpt>
      <trkpt lat="47.549055" lon="7.938483">
        <ele>287.580109</ele>
        <time>2021-11-22T10:10:22.968Z</time>
      </trkpt>
      <trkpt lat="47.548911" lon="7.938838">
        <ele>287.177618</ele>
        <time>2021-11-22T10:10:25.948Z</time>
      </trkpt>
      <trkpt lat="47.548679" lon="7.939412">
        <ele>286.668089</ele>
        <time>2021-11-22T10:10:31.088Z</time>
      </trkpt>
      <trkpt lat="47.548592" lon="7.939666">
        <ele>286.451166</ele>
        <time>2021-11-22T10:10:33.465Z</time>
      </trkpt>
      <trkpt lat="47.548585" lon="7.939688">
        <ele>286.432643</ele>
        <time>2021-11-22T10:10:33.670Z</time>
      </trkpt>
      <trkpt lat="47.548563" lon="7.939753">
        <ele>286.377265</ele>
        <time>2021-11-22T10:10:34.269Z</time>
      </trkpt>
      <trkpt lat="47.548509" lon="7.939765">
        <ele>286.315654</ele>
        <time>2021-11-22T10:10:34.899Z</time>
      </trkpt>
      <trkpt lat="47.548479" lon="7.939789">
        <ele>286.277185</ele>
        <time>2021-11-22T10:10:35.298Z</time>
      </trkpt>
      <trkpt lat="47.548455" lon="7.939823">
        <ele>286.239718</ele>
        <time>2021-11-22T10:10:35.709Z</time>
      </trkpt>
      <trkpt lat="47.548437" lon="7.939866">
        <ele>286.201183</ele>
        <time>2021-11-22T10:10:36.128Z</time>
      </trkpt>
      <trkpt lat="47.548426" lon="7.939924">
        <ele>286.155301</ele>
        <time>2021-11-22T10:10:36.643Z</time>
      </trkpt>
      <trkpt lat="47.548427" lon="7.939957">
        <ele>286.130143</ele>
        <time>2021-11-22T10:10:36.955Z</time>
      </trkpt>
      <trkpt lat="47.548446" lon="7.940038">
        <ele>286.064836</ele>
        <time>2021-11-22T10:10:37.701Z</time>
      </trkpt>
      <trkpt lat="47.548468" lon="7.940081">
        <ele>286.023743</ele>
        <time>2021-11-22T10:10:38.208Z</time>
      </trkpt>
      <trkpt lat="47.548420" lon="7.940256">
        <ele>285.879882</ele>
        <time>2021-11-22T10:10:39.862Z</time>
      </trkpt>
      <trkpt lat="47.548303" lon="7.940599">
        <ele>285.587197</ele>
        <time>2021-11-22T10:10:43.783Z</time>
      </trkpt>
      <trkpt lat="47.548195" lon="7.940950">
        <ele>285.463139</ele>
        <time>2021-11-22T10:10:47.783Z</time>
      </trkpt>
      <trkpt lat="47.547852" lon="7.942144">
        <ele>285.895320</ele>
        <time>2021-11-22T10:11:02.242Z</time>
      </trkpt>
      <trkpt lat="47.547772" lon="7.942416">
        <ele>285.994137</ele>
        <time>2021-11-22T10:11:05.858Z</time>
      </trkpt>
      <trkpt lat="47.547436" lon="7.943731">
        <ele>286.432970</ele>
        <time>2021-11-22T10:11:22.854Z</time>
      </trkpt>
      <trkpt lat="47.547380" lon="7.943952">
        <ele>286.497418</ele>
        <time>2021-11-22T10:11:25.665Z</time>
      </trkpt>
      <trkpt lat="47.547280" lon="7.944357">
        <ele>286.615153</ele>
        <time>2021-11-22T10:11:30.574Z</time>
      </trkpt>
      <trkpt lat="47.547254" lon="7.944465">
        <ele>286.646458</ele>
        <time>2021-11-22T10:11:31.800Z</time>
      </trkpt>
      <trkpt lat="47.547245" lon="7.944501">
        <ele>286.656939</ele>
        <time>2021-11-22T10:11:32.195Z</time>
      </trkpt>
      <trkpt lat="47.547186" lon="7.944630">
        <ele>286.699481</ele>
        <time>2021-11-22T10:11:33.782Z</time>
      </trkpt>
      <trkpt lat="47.547164" lon="7.944724">
        <ele>286.726644</ele>
        <time>2021-11-22T10:11:34.841Z</time>
      </trkpt>
      <trkpt lat="47.547155" lon="7.944757">
        <ele>286.736361</ele>
        <time>2021-11-22T10:11:35.258Z</time>
      </trkpt>
      <trkpt lat="47.547020" lon="7.945146">
        <ele>286.855778</ele>
        <time>2021-11-22T10:11:39.589Z</time>
      </trkpt>
      <trkpt lat="47.546975" lon="7.945238">
        <ele>286.886797</ele>
        <time>2021-11-22T10:11:40.701Z</time>
      </trkpt>
      <trkpt lat="47.546915" lon="7.945468">
        <ele>286.954117</ele>
        <time>2021-11-22T10:11:42.931Z</time>
      </trkpt>
      <trkpt lat="47.546868" lon="7.945669">
        <ele>287.012192</ele>
        <time>2021-11-22T10:11:45.161Z</time>
      </trkpt>
      <trkpt lat="47.546859" lon="7.945706">
        <ele>287.022930</ele>
        <time>2021-11-22T10:11:45.622Z</time>
      </trkpt>
      <trkpt lat="47.546795" lon="7.946005">
        <ele>287.441896</ele>
        <time>2021-11-22T10:11:48.912Z</time>
      </trkpt>
      <trkpt lat="47.546735" lon="7.946282">
        <ele>287.843946</ele>
        <time>2021-11-22T10:11:52.591Z</time>
      </trkpt>
      <trkpt lat="47.546664" lon="7.946504">
        <ele>288.183454</ele>
        <time>2021-11-22T10:11:55.626Z</time>
      </trkpt>
      <trkpt lat="47.546655" lon="7.946544">
        <ele>288.241726</ele>
        <time>2021-11-22T10:11:56.190Z</time>
      </trkpt>
      <trkpt lat="47.546592" lon="7.946809">
        <ele>288.630016</ele>
        <time>2021-11-22T10:12:00.313Z</time>
      </trkpt>
      <trkpt lat="47.546633" lon="7.946946">
        <ele>288.837130</ele>
        <time>2021-11-22T10:12:02.494Z</time>
      </trkpt>
      <trkpt lat="47.546648" lon="7.947009">
        <ele>288.929455</ele>
        <time>2021-11-22T10:12:03.419Z</time>
      </trkpt>
      <trkpt lat="47.546651" lon="7.947115">
        <ele>289.076079</ele>
        <time>2021-11-22T10:12:05.143Z</time>
      </trkpt>
      <trkpt lat="47.546572" lon="7.947545">
        <ele>289.691973</ele>
        <time>2021-11-22T10:12:12.335Z</time>
      </trkpt>
      <trkpt lat="47.546159" lon="7.949303">
        <ele>293.477232</ele>
        <time>2021-11-22T10:12:50.543Z</time>
      </trkpt>
      <trkpt lat="47.545949" lon="7.950185">
        <ele>295.777618</ele>
        <time>2021-11-22T10:13:10.815Z</time>
      </trkpt>
      <trkpt lat="47.545884" lon="7.950363">
        <ele>296.275392</ele>
        <time>2021-11-22T10:13:14.747Z</time>
      </trkpt>
      <trkpt lat="47.545822" lon="7.950627">
        <ele>296.962913</ele>
        <time>2021-11-22T10:13:20.050Z</time>
      </trkpt>
      <trkpt lat="47.545810" lon="7.950694">
        <ele>297.133410</ele>
        <time>2021-11-22T10:13:21.281Z</time>
      </trkpt>
      <trkpt lat="47.545763" lon="7.950733">
        <ele>297.279321</ele>
        <time>2021-11-22T10:13:22.788Z</time>
      </trkpt>
      <trkpt lat="47.545659" lon="7.950771">
        <ele>297.373661</ele>
        <time>2021-11-22T10:13:25.210Z</time>
      </trkpt>
      <trkpt lat="47.545625" lon="7.950771">
        <ele>297.403605</ele>
        <time>2021-11-22T10:13:26.108Z</time>
      </trkpt>
      <trkpt lat="47.545567" lon="7.950765">
        <ele>297.454811</ele>
        <time>2021-11-22T10:13:27.520Z</time>
      </trkpt>
      <trkpt lat="47.545494" lon="7.950684">
        <ele>297.535138</ele>
        <time>2021-11-22T10:13:29.658Z</time>
      </trkpt>
      <trkpt lat="47.545434" lon="7.950668">
        <ele>297.588830</ele>
        <time>2021-11-22T10:13:31.137Z</time>
      </trkpt>
      <trkpt lat="47.545166" lon="7.950366">
        <ele>297.885386</ele>
        <time>2021-11-22T10:13:37.908Z</time>
      </trkpt>
      <trkpt lat="47.544901" lon="7.950044">
        <ele>298.187240</ele>
        <time>2021-11-22T10:13:43.544Z</time>
      </trkpt>
      <trkpt lat="47.544521" lon="7.949558">
        <ele>298.629378</ele>
        <time>2021-11-22T10:13:50.240Z</time>
      </trkpt>
      <trkpt lat="47.544239" lon="7.949202">
        <ele>298.981560</ele>
        <time>2021-11-22T10:13:55.203Z</time>
      </trkpt>
      <trkpt lat="47.543864" lon="7.948694">
        <ele>299.535994</ele>
        <time>2021-11-22T10:14:03.167Z</time>
      </trkpt>
      <trkpt lat="47.543760" lon="7.948548">
        <ele>299.692325</ele>
        <time>2021-11-22T10:14:05.409Z</time>
      </trkpt>
      <trkpt lat="47.543579" lon="7.948287">
        <ele>299.967922</ele>
        <time>2021-11-22T10:14:11.126Z</time>
      </trkpt>
      <trkpt lat="47.543532" lon="7.948214">
        <ele>300.042222</ele>
        <time>2021-11-22T10:14:12.252Z</time>
      </trkpt>
      <trkpt lat="47.543435" lon="7.948000">
        <ele>300.232074</ele>
        <time>2021-11-22T10:14:15.314Z</time>
      </trkpt>
      <trkpt lat="47.543407" lon="7.947938">
        <ele>300.287016</ele>
        <time>2021-11-22T10:14:17.172Z</time>
      </trkpt>
      <trkpt lat="47.543280" lon="7.947656">
        <ele>300.536696</ele>
        <time>2021-11-22T10:14:21.658Z</time>
      </trkpt>
      <trkpt lat="47.543142" lon="7.947250">
        <ele>300.960847</ele>
        <time>2021-11-22T10:14:29.122Z</time>
      </trkpt>
      <trkpt lat="47.543086" lon="7.947052">
        <ele>301.348140</ele>
        <time>2021-11-22T10:14:32.552Z</time>
      </trkpt>
      <trkpt lat="47.543056" lon="7.946935">
        <ele>301.573932</ele>
        <time>2021-11-22T10:14:35.393Z</time>
      </trkpt>
      <trkpt lat="47.543045" lon="7.946881">
        <ele>301.675691</ele>
        <time>2021-11-22T10:14:36.550Z</time>
      </trkpt>
      <trkpt lat="47.542982" lon="7.946547">
        <ele>302.301336</ele>
        <time>2021-11-22T10:14:41.950Z</time>
      </trkpt>
      <trkpt lat="47.542974" lon="7.946495">
        <ele>302.397553</ele>
        <time>2021-11-22T10:14:43.590Z</time>
      </trkpt>
      <trkpt lat="47.542960" lon="7.946400">
        <ele>302.572978</ele>
        <time>2021-11-22T10:14:45.656Z</time>
      </trkpt>
      <trkpt lat="47.542916" lon="7.945730">
        <ele>303.787420</ele>
        <time>2021-11-22T10:14:58.321Z</time>
      </trkpt>
      <trkpt lat="47.542913" lon="7.945267">
        <ele>304.622749</ele>
        <time>2021-11-22T10:15:06.817Z</time>
      </trkpt>
      <trkpt lat="47.543007" lon="7.943867">
        <ele>306.025488</ele>
        <time>2021-11-22T10:15:27.984Z</time>
      </trkpt>
      <trkpt lat="47.543161" lon="7.942213">
        <ele>306.822676</ele>
        <time>2021-11-22T10:15:46.390Z</time>
      </trkpt>
      <trkpt lat="47.543435" lon="7.940670">
        <ele>305.650002</ele>
        <time>2021-11-22T10:15:59.338Z</time>
      </trkpt>
      <trkpt lat="47.543826" lon="7.939433">
        <ele>304.429633</ele>
        <time>2021-11-22T10:16:09.739Z</time>
      </trkpt>
      <trkpt lat="47.544472" lon="7.937932">
        <ele>302.256433</ele>
        <time>2021-11-22T10:16:23.063Z</time>
      </trkpt>
      <trkpt lat="47.544705" lon="7.937395">
        <ele>301.477111</ele>
        <time>2021-11-22T10:16:27.903Z</time>
      </trkpt>
      <trkpt lat="47.544903" lon="7.936917">
        <ele>300.882498</ele>
        <time>2021-11-22T10:16:32.163Z</time>
      </trkpt>
      <trkpt lat="47.545074" lon="7.936484">
        <ele>300.365642</ele>
        <time>2021-11-22T10:16:35.994Z</time>
      </trkpt>
      <trkpt lat="47.545457" lon="7.935110">
        <ele>298.834080</ele>
        <time>2021-11-22T10:16:47.363Z</time>
      </trkpt>
      <trkpt lat="47.545674" lon="7.933625">
        <ele>298.628987</ele>
        <time>2021-11-22T10:17:00.443Z</time>
      </trkpt>
      <trkpt lat="47.545702" lon="7.933290">
        <ele>298.630232</ele>
        <time>2021-11-22T10:17:04.023Z</time>
      </trkpt>
      <trkpt lat="47.545724" lon="7.932758">
        <ele>298.632196</ele>
        <time>2021-11-22T10:17:10.289Z</time>
      </trkpt>
      <trkpt lat="47.545721" lon="7.931992">
        <ele>299.008617</ele>
        <time>2021-11-22T10:17:20.329Z</time>
      </trkpt>
      <trkpt lat="47.545696" lon="7.931497">
        <ele>299.655370</ele>
        <time>2021-11-22T10:17:27.534Z</time>
      </trkpt>
      <trkpt lat="47.545661" lon="7.930955">
        <ele>300.364782</ele>
        <time>2021-11-22T10:17:36.229Z</time>
      </trkpt>
      <trkpt lat="47.545563" lon="7.929641">
        <ele>302.087253</ele>
        <time>2021-11-22T10:17:58.569Z</time>
      </trkpt>
      <trkpt lat="47.545475" lon="7.928419">
        <ele>301.929701</ele>
        <time>2021-11-22T10:18:14.872Z</time>
      </trkpt>
      <trkpt lat="47.545421" lon="7.927686">
        <ele>301.822799</ele>
        <time>2021-11-22T10:18:20.975Z</time>
      </trkpt>
      <trkpt lat="47.545406" lon="7.927306">
        <ele>301.767611</ele>
        <time>2021-11-22T10:18:23.879Z</time>
      </trkpt>
      <trkpt lat="47.545407" lon="7.927001">
        <ele>301.723391</ele>
        <time>2021-11-22T10:18:26.166Z</time>
      </trkpt>
      <trkpt lat="47.545409" lon="7.926773">
        <ele>301.236013</ele>
        <time>2021-11-22T10:18:27.795Z</time>
      </trkpt>
      <trkpt lat="47.545417" lon="7.925848">
        <ele>299.011777</ele>
        <time>2021-11-22T10:18:34.130Z</time>
      </trkpt>
      <trkpt lat="47.545446" lon="7.925350">
        <ele>297.809948</ele>
        <time>2021-11-22T10:18:37.422Z</time>
      </trkpt>
      <trkpt lat="47.545466" lon="7.924880">
        <ele>296.677646</ele>
        <time>2021-11-22T10:18:40.475Z</time>
      </trkpt>
      <trkpt lat="47.545481" lon="7.924396">
        <ele>295.512701</ele>
        <time>2021-11-22T10:18:43.559Z</time>
      </trkpt>
      <trkpt lat="47.545521" lon="7.923709">
        <ele>294.284209</ele>
        <time>2021-11-22T10:18:48.084Z</time>
      </trkpt>
      <trkpt lat="47.545536" lon="7.923407">
        <ele>293.770589</ele>
        <time>2021-11-22T10:18:50.474Z</time>
      </trkpt>
      <trkpt lat="47.545553" lon="7.923142">
        <ele>293.319087</ele>
        <time>2021-11-22T10:18:52.194Z</time>
      </trkpt>
      <trkpt lat="47.545587" lon="7.922895">
        <ele>292.891518</ele>
        <time>2021-11-22T10:18:54.596Z</time>
      </trkpt>
      <trkpt lat="47.545641" lon="7.922610">
        <ele>292.389435</ele>
        <time>2021-11-22T10:18:56.594Z</time>
      </trkpt>
      <trkpt lat="47.545690" lon="7.922369">
        <ele>291.962525</ele>
        <time>2021-11-22T10:18:59.286Z</time>
      </trkpt>
      <trkpt lat="47.545699" lon="7.922325">
        <ele>291.884544</ele>
        <time>2021-11-22T10:18:59.547Z</time>
      </trkpt>
      <trkpt lat="47.545714" lon="7.922249">
        <ele>291.750240</ele>
        <time>2021-11-22T10:19:00.137Z</time>
      </trkpt>
      <trkpt lat="47.545778" lon="7.921947">
        <ele>291.213356</ele>
        <time>2021-11-22T10:19:03.292Z</time>
      </trkpt>
      <trkpt lat="47.545810" lon="7.921755">
        <ele>290.877918</ele>
        <time>2021-11-22T10:19:04.650Z</time>
      </trkpt>
      <trkpt lat="47.545881" lon="7.921096">
        <ele>290.558013</ele>
        <time>2021-11-22T10:19:09.998Z</time>
      </trkpt>
      <trkpt lat="47.545913" lon="7.920765">
        <ele>290.430687</ele>
        <time>2021-11-22T10:19:12.865Z</time>
      </trkpt>
      <trkpt lat="47.545973" lon="7.920313">
        <ele>290.255275</ele>
        <time>2021-11-22T10:19:18.013Z</time>
      </trkpt>
      <trkpt lat="47.546128" lon="7.919617">
        <ele>289.976197</ele>
        <time>2021-11-22T10:19:24.476Z</time>
      </trkpt>
      <trkpt lat="47.546262" lon="7.919081">
        <ele>289.760435</ele>
        <time>2021-11-22T10:19:30.475Z</time>
      </trkpt>
      <trkpt lat="47.546821" lon="7.916867">
        <ele>288.945856</ele>
        <time>2021-11-22T10:19:51.227Z</time>
      </trkpt>
      <trkpt lat="47.547032" lon="7.916218">
        <ele>288.810370</ele>
        <time>2021-11-22T10:19:57.718Z</time>
      </trkpt>
      <trkpt lat="47.547091" lon="7.916039">
        <ele>288.789343</ele>
        <time>2021-11-22T10:19:59.536Z</time>
      </trkpt>
      <trkpt lat="47.547113" lon="7.915971">
        <ele>288.781384</ele>
        <time>2021-11-22T10:20:00.134Z</time>
      </trkpt>
      <trkpt lat="47.547423" lon="7.915080">
        <ele>288.675577</ele>
        <time>2021-11-22T10:20:09.778Z</time>
      </trkpt>
      <trkpt lat="47.547994" lon="7.913433">
        <ele>289.067442</ele>
        <time>2021-11-22T10:20:29.498Z</time>
      </trkpt>
      <trkpt lat="47.548027" lon="7.913334">
        <ele>289.125105</ele>
        <time>2021-11-22T10:20:30.857Z</time>
      </trkpt>
      <trkpt lat="47.548412" lon="7.912168">
        <ele>289.802988</ele>
        <time>2021-11-22T10:20:47.260Z</time>
      </trkpt>
      <trkpt lat="47.549012" lon="7.910340">
        <ele>291.312761</ele>
        <time>2021-11-22T10:21:14.210Z</time>
      </trkpt>
      <trkpt lat="47.549102" lon="7.910058">
        <ele>291.557340</ele>
        <time>2021-11-22T10:21:18.307Z</time>
      </trkpt>
      <trkpt lat="47.549195" lon="7.909756">
        <ele>291.817610</ele>
        <time>2021-11-22T10:21:22.626Z</time>
      </trkpt>
      <trkpt lat="47.549311" lon="7.909371">
        <ele>292.201782</ele>
        <time>2021-11-22T10:21:28.049Z</time>
      </trkpt>
      <trkpt lat="47.549360" lon="7.909207">
        <ele>292.427802</ele>
        <time>2021-11-22T10:21:30.413Z</time>
      </trkpt>
      <trkpt lat="47.549520" lon="7.908678">
        <ele>293.158331</ele>
        <time>2021-11-22T10:21:37.902Z</time>
      </trkpt>
      <trkpt lat="47.549539" lon="7.908625">
        <ele>293.233959</ele>
        <time>2021-11-22T10:21:38.640Z</time>
      </trkpt>
      <trkpt lat="47.550497" lon="7.905558">
        <ele>298.657328</ele>
        <time>2021-11-22T10:22:33.557Z</time>
      </trkpt>
      <trkpt lat="47.550283" lon="7.905413">
        <ele>299.343308</ele>
        <time>2021-11-22T10:22:41.724Z</time>
      </trkpt>
      <trkpt lat="47.550067" lon="7.905245">
        <ele>300.054468</ele>
        <time>2021-11-22T10:22:50.410Z</time>
      </trkpt>
      <trkpt lat="47.549867" lon="7.905155">
        <ele>300.664513</ele>
        <time>2021-11-22T10:22:58.038Z</time>
      </trkpt>
      <trkpt lat="47.549868" lon="7.905010">
        <ele>301.039423</ele>
        <time>2021-11-22T10:23:01.443Z</time>
      </trkpt>
      <trkpt lat="47.550025" lon="7.904774">
        <ele>301.896154</ele>
        <time>2021-11-22T10:23:09.595Z</time>
      </trkpt>
      <trkpt lat="47.550302" lon="7.904164">
        <ele>303.796989</ele>
        <time>2021-11-22T10:23:27.894Z</time>
      </trkpt>
      <trkpt lat="47.550498" lon="7.903445">
        <ele>305.801804</ele>
        <time>2021-11-22T10:23:47.465Z</time>
      </trkpt>
      <trkpt lat="47.550688" lon="7.902451">
        <ele>308.493306</ele>
        <time>2021-11-22T10:24:10.014Z</time>
      </trkpt>
      <trkpt lat="47.550757" lon="7.901591">
        <ele>310.782292</ele>
        <time>2021-11-22T10:24:29.810Z</time>
      </trkpt>
      <trkpt lat="47.550769" lon="7.901362">
        <ele>311.389361</ele>
        <time>2021-11-22T10:24:35.718Z</time>
      </trkpt>
      <trkpt lat="47.550801" lon="7.900244">
        <ele>314.346890</ele>
        <time>2021-11-22T10:25:00.115Z</time>
      </trkpt>
      <trkpt lat="47.550819" lon="7.898109">
        <ele>319.980582</ele>
        <time>2021-11-22T10:25:47.156Z</time>
      </trkpt>
      <trkpt lat="47.550648" lon="7.896481">
        <ele>322.755124</ele>
        <time>2021-11-22T10:26:14.811Z</time>
      </trkpt>
      <trkpt lat="47.550639" lon="7.896345">
        <ele>322.905845</ele>
        <time>2021-11-22T10:26:17.186Z</time>
      </trkpt>
      <trkpt lat="47.550660" lon="7.896255">
        <ele>323.010875</ele>
        <time>2021-11-22T10:26:17.987Z</time>
      </trkpt>
      <trkpt lat="47.550838" lon="7.895509">
        <ele>323.883580</ele>
        <time>2021-11-22T10:26:28.154Z</time>
      </trkpt>
      <trkpt lat="47.550878" lon="7.895158">
        <ele>324.276195</ele>
        <time>2021-11-22T10:26:32.217Z</time>
      </trkpt>
      <trkpt lat="47.550908" lon="7.894308">
        <ele>325.410744</ele>
        <time>2021-11-22T10:26:42.689Z</time>
      </trkpt>
      <trkpt lat="47.550892" lon="7.893176">
        <ele>327.035597</ele>
        <time>2021-11-22T10:26:57.406Z</time>
      </trkpt>
      <trkpt lat="47.550904" lon="7.891725">
        <ele>330.308622</ele>
        <time>2021-11-22T10:27:27.169Z</time>
      </trkpt>
      <trkpt lat="47.550915" lon="7.890600">
        <ele>334.560794</ele>
        <time>2021-11-22T10:27:56.009Z</time>
      </trkpt>
      <trkpt lat="47.550833" lon="7.889069">
        <ele>340.543517</ele>
        <time>2021-11-22T10:28:38.642Z</time>
      </trkpt>
      <trkpt lat="47.550831" lon="7.888611">
        <ele>342.436638</ele>
        <time>2021-11-22T10:28:51.212Z</time>
      </trkpt>
      <trkpt lat="47.550789" lon="7.887816">
        <ele>345.732717</ele>
        <time>2021-11-22T10:29:11.824Z</time>
      </trkpt>
      <trkpt lat="47.550758" lon="7.887295">
        <ele>347.894555</ele>
        <time>2021-11-22T10:29:25.646Z</time>
      </trkpt>
      <trkpt lat="47.550677" lon="7.886476">
        <ele>351.022518</ele>
        <time>2021-11-22T10:29:47.134Z</time>
      </trkpt>
      <trkpt lat="47.550548" lon="7.885799">
        <ele>353.466553</ele>
        <time>2021-11-22T10:30:04.338Z</time>
      </trkpt>
      <trkpt lat="47.550391" lon="7.885109">
        <ele>355.996383</ele>
        <time>2021-11-22T10:30:21.975Z</time>
      </trkpt>
      <trkpt lat="47.550332" lon="7.884727">
        <ele>357.357876</ele>
        <time>2021-11-22T10:30:30.665Z</time>
      </trkpt>
      <trkpt lat="47.550234" lon="7.883221">
        <ele>361.489000</ele>
        <time>2021-11-22T10:31:03.497Z</time>
      </trkpt>
      <trkpt lat="47.549927" lon="7.881490">
        <ele>365.972531</ele>
        <time>2021-11-22T10:31:35.761Z</time>
      </trkpt>
      <trkpt lat="47.549726" lon="7.880786">
        <ele>368.076190</ele>
        <time>2021-11-22T10:31:51.737Z</time>
      </trkpt>
      <trkpt lat="47.549327" lon="7.879547">
        <ele>371.854235</ele>
        <time>2021-11-22T10:32:21.521Z</time>
      </trkpt>
      <trkpt lat="47.549318" lon="7.879398">
        <ele>372.265933</ele>
        <time>2021-11-22T10:32:24.710Z</time>
      </trkpt>
      <trkpt lat="47.549140" lon="7.879391">
        <ele>372.914357</ele>
        <time>2021-11-22T10:32:31.580Z</time>
      </trkpt>
      <trkpt lat="47.548718" lon="7.879258">
        <ele>374.284166</ele>
        <time>2021-11-22T10:32:45.251Z</time>
      </trkpt>
      <trkpt lat="47.548422" lon="7.878959">
        <ele>375.421601</ele>
        <time>2021-11-22T10:32:55.897Z</time>
      </trkpt>
      <trkpt lat="47.548234" lon="7.878638">
        <ele>376.332362</ele>
        <time>2021-11-22T10:33:04.329Z</time>
      </trkpt>
      <trkpt lat="47.547992" lon="7.877974">
        <ele>377.949500</ele>
        <time>2021-11-22T10:33:17.427Z</time>
      </trkpt>
      <trkpt lat="47.547574" lon="7.876801">
        <ele>377.403068</ele>
        <time>2021-11-22T10:33:31.190Z</time>
      </trkpt>
      <trkpt lat="47.547126" lon="7.875801">
        <ele>376.402918</ele>
        <time>2021-11-22T10:33:39.973Z</time>
      </trkpt>
      <trkpt lat="47.546309" lon="7.874154">
        <ele>376.131375</ele>
        <time>2021-11-22T10:33:53.572Z</time>
      </trkpt>
      <trkpt lat="47.546135" lon="7.873859">
        <ele>376.131375</ele>
        <time>2021-11-22T10:33:56.194Z</time>
      </trkpt>
      <trkpt lat="47.546077" lon="7.873763">
        <ele>376.131375</ele>
        <time>2021-11-22T10:33:57.097Z</time>
      </trkpt>
      <trkpt lat="47.545934" lon="7.873549">
        <ele>376.131375</ele>
        <time>2021-11-22T10:33:59.123Z</time>
      </trkpt>
      <trkpt lat="47.545840" lon="7.873425">
        <ele>376.131375</ele>
        <time>2021-11-22T10:34:00.474Z</time>
      </trkpt>
    </trkseg>
  </trk>
</gpx>